<?xml version="1.0" encoding="UTF-8" standalone="no" ?>
<gpx xmlns="http://www.topografix.com/GPX/1/1" xmlns:xsi="http://www.w3.org/2001/XMLSchema-instance" xsi:schemaLocation="http://www.topografix.com/GPX/1/1 http://www.topografix.com/GPX/1/1/gpx.xsd" version="1.1" creator="VisuGPX - https://www.visugpx.com">
  <metadata>
    <name>Arèches Plan Villard 24 Janvier</name>
    <desc><![CDATA[Journée avec Stéphane
belle balade avec des gamelles dans la neige !
Garmin
Grenam13]]></desc>
  </metadata>
  <trk>
    <name><![CDATA[ACTIVE LOG092913]]></name>
    <trkseg>
      <trkpt lat="45.67297" lon="6.53888">
        <ele>1187.029</ele>
        <time>2012-01-24T08:29:11Z</time>
      </trkpt>
      <trkpt lat="45.67304" lon="6.53874">
        <ele>1191.548</ele>
        <time>2012-01-24T08:29:21Z</time>
      </trkpt>
      <trkpt lat="45.67311" lon="6.53857">
        <ele>1196.786</ele>
        <time>2012-01-24T08:29:31Z</time>
      </trkpt>
      <trkpt lat="45.6732" lon="6.53848">
        <ele>1199.766</ele>
        <time>2012-01-24T08:29:41Z</time>
      </trkpt>
      <trkpt lat="45.67328" lon="6.53855">
        <ele>1202.135</ele>
        <time>2012-01-24T08:29:51Z</time>
      </trkpt>
      <trkpt lat="45.67335" lon="6.53867">
        <ele>1205.515</ele>
        <time>2012-01-24T08:30:01Z</time>
      </trkpt>
      <trkpt lat="45.67341" lon="6.5388">
        <ele>1207.51</ele>
        <time>2012-01-24T08:30:11Z</time>
      </trkpt>
      <trkpt lat="45.67348" lon="6.53892">
        <ele>1209.12</ele>
        <time>2012-01-24T08:30:21Z</time>
      </trkpt>
      <trkpt lat="45.67357" lon="6.53903">
        <ele>1210.306</ele>
        <time>2012-01-24T08:30:31Z</time>
      </trkpt>
      <trkpt lat="45.67365" lon="6.53914">
        <ele>1212.162</ele>
        <time>2012-01-24T08:30:41Z</time>
      </trkpt>
      <trkpt lat="45.67373" lon="6.53926">
        <ele>1212.746</ele>
        <time>2012-01-24T08:30:51Z</time>
      </trkpt>
      <trkpt lat="45.67379" lon="6.53937">
        <ele>1213.902</ele>
        <time>2012-01-24T08:31:01Z</time>
      </trkpt>
      <trkpt lat="45.67386" lon="6.5395">
        <ele>1215.152</ele>
        <time>2012-01-24T08:31:11Z</time>
      </trkpt>
      <trkpt lat="45.67392" lon="6.53964">
        <ele>1216.239</ele>
        <time>2012-01-24T08:31:21Z</time>
      </trkpt>
      <trkpt lat="45.67397" lon="6.53977">
        <ele>1217.193</ele>
        <time>2012-01-24T08:31:31Z</time>
      </trkpt>
      <trkpt lat="45.67407" lon="6.53987">
        <ele>1217.452</ele>
        <time>2012-01-24T08:31:41Z</time>
      </trkpt>
      <trkpt lat="45.67413" lon="6.53999">
        <ele>1218.111</ele>
        <time>2012-01-24T08:31:51Z</time>
      </trkpt>
      <trkpt lat="45.67424" lon="6.54007">
        <ele>1219.019</ele>
        <time>2012-01-24T08:32:01Z</time>
      </trkpt>
      <trkpt lat="45.67426" lon="6.54021">
        <ele>1219.896</ele>
        <time>2012-01-24T08:32:11Z</time>
      </trkpt>
      <trkpt lat="45.67435" lon="6.54032">
        <ele>1220.766</ele>
        <time>2012-01-24T08:32:21Z</time>
      </trkpt>
      <trkpt lat="45.67439" lon="6.54045">
        <ele>1222.189</ele>
        <time>2012-01-24T08:32:31Z</time>
      </trkpt>
      <trkpt lat="45.67442" lon="6.54058">
        <ele>1223.465</ele>
        <time>2012-01-24T08:32:41Z</time>
      </trkpt>
      <trkpt lat="45.67445" lon="6.54073">
        <ele>1224.41</ele>
        <time>2012-01-24T08:32:51Z</time>
      </trkpt>
      <trkpt lat="45.67442" lon="6.54088">
        <ele>1225.16</ele>
        <time>2012-01-24T08:33:01Z</time>
      </trkpt>
      <trkpt lat="45.67439" lon="6.54102">
        <ele>1225.982</ele>
        <time>2012-01-24T08:33:11Z</time>
      </trkpt>
      <trkpt lat="45.67435" lon="6.54108">
        <ele>1226.724</ele>
        <time>2012-01-24T08:33:21Z</time>
      </trkpt>
      <trkpt lat="45.67435" lon="6.54116">
        <ele>1227.27</ele>
        <time>2012-01-24T08:33:31Z</time>
      </trkpt>
      <trkpt lat="45.6743" lon="6.54132">
        <ele>1228.079</ele>
        <time>2012-01-24T08:33:41Z</time>
      </trkpt>
      <trkpt lat="45.67428" lon="6.54148">
        <ele>1228.957</ele>
        <time>2012-01-24T08:33:51Z</time>
      </trkpt>
      <trkpt lat="45.6743" lon="6.54162">
        <ele>1230.105</ele>
        <time>2012-01-24T08:34:01Z</time>
      </trkpt>
      <trkpt lat="45.67435" lon="6.54179">
        <ele>1230.84</ele>
        <time>2012-01-24T08:34:11Z</time>
      </trkpt>
      <trkpt lat="45.67442" lon="6.54193">
        <ele>1231.55</ele>
        <time>2012-01-24T08:34:21Z</time>
      </trkpt>
      <trkpt lat="45.6744" lon="6.54211">
        <ele>1232.459</ele>
        <time>2012-01-24T08:34:31Z</time>
      </trkpt>
      <trkpt lat="45.67443" lon="6.54227">
        <ele>1232.943</ele>
        <time>2012-01-24T08:34:41Z</time>
      </trkpt>
      <trkpt lat="45.67443" lon="6.5424">
        <ele>1234.546</ele>
        <time>2012-01-24T08:34:51Z</time>
      </trkpt>
      <trkpt lat="45.67441" lon="6.54255">
        <ele>1235.226</ele>
        <time>2012-01-24T08:35:01Z</time>
      </trkpt>
      <trkpt lat="45.67444" lon="6.5427">
        <ele>1236.235</ele>
        <time>2012-01-24T08:35:11Z</time>
      </trkpt>
      <trkpt lat="45.67442" lon="6.54288">
        <ele>1237.179</ele>
        <time>2012-01-24T08:35:21Z</time>
      </trkpt>
      <trkpt lat="45.67444" lon="6.54305">
        <ele>1238.376</ele>
        <time>2012-01-24T08:35:31Z</time>
      </trkpt>
      <trkpt lat="45.67451" lon="6.54319">
        <ele>1238.901</ele>
        <time>2012-01-24T08:35:41Z</time>
      </trkpt>
      <trkpt lat="45.67455" lon="6.54332">
        <ele>1240.028</ele>
        <time>2012-01-24T08:35:51Z</time>
      </trkpt>
      <trkpt lat="45.6746" lon="6.54348">
        <ele>1240.723</ele>
        <time>2012-01-24T08:36:01Z</time>
      </trkpt>
      <trkpt lat="45.67468" lon="6.54361">
        <ele>1240.727</ele>
        <time>2012-01-24T08:36:11Z</time>
      </trkpt>
      <trkpt lat="45.67474" lon="6.54377">
        <ele>1240.438</ele>
        <time>2012-01-24T08:36:21Z</time>
      </trkpt>
      <trkpt lat="45.67482" lon="6.54385">
        <ele>1240.351</ele>
        <time>2012-01-24T08:36:31Z</time>
      </trkpt>
      <trkpt lat="45.67488" lon="6.54395">
        <ele>1241.037</ele>
        <time>2012-01-24T08:36:41Z</time>
      </trkpt>
      <trkpt lat="45.67495" lon="6.54396">
        <ele>1241.76</ele>
        <time>2012-01-24T08:36:51Z</time>
      </trkpt>
      <trkpt lat="45.67507" lon="6.54399">
        <ele>1242.911</ele>
        <time>2012-01-24T08:37:01Z</time>
      </trkpt>
      <trkpt lat="45.67508" lon="6.5441">
        <ele>1242.731</ele>
        <time>2012-01-24T08:37:11Z</time>
      </trkpt>
      <trkpt lat="45.67509" lon="6.54414">
        <ele>1243.091</ele>
        <time>2012-01-24T08:37:21Z</time>
      </trkpt>
      <trkpt lat="45.67513" lon="6.54412">
        <ele>1243.177</ele>
        <time>2012-01-24T08:37:31Z</time>
      </trkpt>
      <trkpt lat="45.67513" lon="6.54413">
        <ele>1243.288</ele>
        <time>2012-01-24T08:37:41Z</time>
      </trkpt>
      <trkpt lat="45.67517" lon="6.54413">
        <ele>1244.436</ele>
        <time>2012-01-24T08:37:51Z</time>
      </trkpt>
      <trkpt lat="45.67517" lon="6.54413">
        <ele>1243.056</ele>
        <time>2012-01-24T08:38:01Z</time>
      </trkpt>
      <trkpt lat="45.67523" lon="6.5441">
        <ele>1243.903</ele>
        <time>2012-01-24T08:38:11Z</time>
      </trkpt>
      <trkpt lat="45.67522" lon="6.54406">
        <ele>1243.229</ele>
        <time>2012-01-24T08:38:21Z</time>
      </trkpt>
      <trkpt lat="45.67524" lon="6.54414">
        <ele>1243.032</ele>
        <time>2012-01-24T08:38:31Z</time>
      </trkpt>
      <trkpt lat="45.67516" lon="6.54417">
        <ele>1243.36</ele>
        <time>2012-01-24T08:38:41Z</time>
      </trkpt>
      <trkpt lat="45.67515" lon="6.5442">
        <ele>1243.574</ele>
        <time>2012-01-24T08:38:51Z</time>
      </trkpt>
      <trkpt lat="45.67516" lon="6.54418">
        <ele>1244.24</ele>
        <time>2012-01-24T08:39:01Z</time>
      </trkpt>
      <trkpt lat="45.6752" lon="6.54409">
        <ele>1244.986</ele>
        <time>2012-01-24T08:39:11Z</time>
      </trkpt>
      <trkpt lat="45.67522" lon="6.54411">
        <ele>1244.201</ele>
        <time>2012-01-24T08:39:21Z</time>
      </trkpt>
      <trkpt lat="45.67521" lon="6.54404">
        <ele>1244.845</ele>
        <time>2012-01-24T08:39:31Z</time>
      </trkpt>
      <trkpt lat="45.6752" lon="6.54402">
        <ele>1244.516</ele>
        <time>2012-01-24T08:39:41Z</time>
      </trkpt>
      <trkpt lat="45.67518" lon="6.54403">
        <ele>1244.672</ele>
        <time>2012-01-24T08:39:51Z</time>
      </trkpt>
      <trkpt lat="45.67517" lon="6.54403">
        <ele>1244.311</ele>
        <time>2012-01-24T08:40:01Z</time>
      </trkpt>
      <trkpt lat="45.67518" lon="6.54403">
        <ele>1245.089</ele>
        <time>2012-01-24T08:40:11Z</time>
      </trkpt>
      <trkpt lat="45.67521" lon="6.54401">
        <ele>1245.052</ele>
        <time>2012-01-24T08:40:21Z</time>
      </trkpt>
      <trkpt lat="45.67518" lon="6.544">
        <ele>1245.434</ele>
        <time>2012-01-24T08:40:31Z</time>
      </trkpt>
      <trkpt lat="45.67515" lon="6.54402">
        <ele>1245.198</ele>
        <time>2012-01-24T08:40:41Z</time>
      </trkpt>
      <trkpt lat="45.67516" lon="6.54401">
        <ele>1245.601</ele>
        <time>2012-01-24T08:40:51Z</time>
      </trkpt>
      <trkpt lat="45.67516" lon="6.544">
        <ele>1244.155</ele>
        <time>2012-01-24T08:41:01Z</time>
      </trkpt>
      <trkpt lat="45.67515" lon="6.544">
        <ele>1245.359</ele>
        <time>2012-01-24T08:41:11Z</time>
      </trkpt>
      <trkpt lat="45.67516" lon="6.544">
        <ele>1245.405</ele>
        <time>2012-01-24T08:41:21Z</time>
      </trkpt>
      <trkpt lat="45.67516" lon="6.54401">
        <ele>1245.854</ele>
        <time>2012-01-24T08:41:31Z</time>
      </trkpt>
      <trkpt lat="45.67516" lon="6.54402">
        <ele>1245.923</ele>
        <time>2012-01-24T08:41:41Z</time>
      </trkpt>
      <trkpt lat="45.67516" lon="6.54402">
        <ele>1245.894</ele>
        <time>2012-01-24T08:41:51Z</time>
      </trkpt>
      <trkpt lat="45.67517" lon="6.54402">
        <ele>1246.42</ele>
        <time>2012-01-24T08:42:01Z</time>
      </trkpt>
      <trkpt lat="45.67517" lon="6.54403">
        <ele>1245.536</ele>
        <time>2012-01-24T08:42:11Z</time>
      </trkpt>
      <trkpt lat="45.67516" lon="6.54403">
        <ele>1246.204</ele>
        <time>2012-01-24T08:42:21Z</time>
      </trkpt>
      <trkpt lat="45.67516" lon="6.54402">
        <ele>1246.124</ele>
        <time>2012-01-24T08:42:31Z</time>
      </trkpt>
      <trkpt lat="45.67516" lon="6.54402">
        <ele>1245.728</ele>
        <time>2012-01-24T08:42:41Z</time>
      </trkpt>
      <trkpt lat="45.67515" lon="6.54402">
        <ele>1246.24</ele>
        <time>2012-01-24T08:42:51Z</time>
      </trkpt>
      <trkpt lat="45.67514" lon="6.54401">
        <ele>1246.37</ele>
        <time>2012-01-24T08:43:01Z</time>
      </trkpt>
      <trkpt lat="45.67514" lon="6.54401">
        <ele>1246.799</ele>
        <time>2012-01-24T08:43:11Z</time>
      </trkpt>
      <trkpt lat="45.67513" lon="6.54402">
        <ele>1246.501</ele>
        <time>2012-01-24T08:43:21Z</time>
      </trkpt>
      <trkpt lat="45.67512" lon="6.54402">
        <ele>1246.629</ele>
        <time>2012-01-24T08:43:31Z</time>
      </trkpt>
      <trkpt lat="45.67512" lon="6.54403">
        <ele>1246.716</ele>
        <time>2012-01-24T08:43:41Z</time>
      </trkpt>
      <trkpt lat="45.67513" lon="6.54403">
        <ele>1246.659</ele>
        <time>2012-01-24T08:43:51Z</time>
      </trkpt>
      <trkpt lat="45.67509" lon="6.54402">
        <ele>1246.803</ele>
        <time>2012-01-24T08:44:01Z</time>
      </trkpt>
      <trkpt lat="45.67509" lon="6.54402">
        <ele>1246.739</ele>
        <time>2012-01-24T08:44:11Z</time>
      </trkpt>
      <trkpt lat="45.67508" lon="6.54402">
        <ele>1246.82</ele>
        <time>2012-01-24T08:44:21Z</time>
      </trkpt>
      <trkpt lat="45.67507" lon="6.54401">
        <ele>1247.165</ele>
        <time>2012-01-24T08:44:31Z</time>
      </trkpt>
      <trkpt lat="45.67507" lon="6.544">
        <ele>1247.268</ele>
        <time>2012-01-24T08:44:41Z</time>
      </trkpt>
      <trkpt lat="45.67507" lon="6.544">
        <ele>1246.768</ele>
        <time>2012-01-24T08:44:51Z</time>
      </trkpt>
      <trkpt lat="45.67506" lon="6.544">
        <ele>1247.184</ele>
        <time>2012-01-24T08:45:01Z</time>
      </trkpt>
      <trkpt lat="45.67506" lon="6.544">
        <ele>1247.048</ele>
        <time>2012-01-24T08:45:11Z</time>
      </trkpt>
      <trkpt lat="45.67505" lon="6.544">
        <ele>1247.337</ele>
        <time>2012-01-24T08:45:21Z</time>
      </trkpt>
      <trkpt lat="45.67506" lon="6.54401">
        <ele>1247.567</ele>
        <time>2012-01-24T08:45:31Z</time>
      </trkpt>
      <trkpt lat="45.67505" lon="6.54401">
        <ele>1247.84</ele>
        <time>2012-01-24T08:45:41Z</time>
      </trkpt>
      <trkpt lat="45.67504" lon="6.54404">
        <ele>1248.153</ele>
        <time>2012-01-24T08:45:51Z</time>
      </trkpt>
      <trkpt lat="45.67507" lon="6.54405">
        <ele>1248.133</ele>
        <time>2012-01-24T08:46:01Z</time>
      </trkpt>
      <trkpt lat="45.67509" lon="6.54411">
        <ele>1248.519</ele>
        <time>2012-01-24T08:46:11Z</time>
      </trkpt>
      <trkpt lat="45.67512" lon="6.54414">
        <ele>1248.773</ele>
        <time>2012-01-24T08:46:21Z</time>
      </trkpt>
      <trkpt lat="45.67519" lon="6.5441">
        <ele>1249.55</ele>
        <time>2012-01-24T08:46:31Z</time>
      </trkpt>
      <trkpt lat="45.67526" lon="6.54408">
        <ele>1250.881</ele>
        <time>2012-01-24T08:46:41Z</time>
      </trkpt>
      <trkpt lat="45.67526" lon="6.54406">
        <ele>1251.378</ele>
        <time>2012-01-24T08:46:51Z</time>
      </trkpt>
      <trkpt lat="45.67527" lon="6.54405">
        <ele>1252.23</ele>
        <time>2012-01-24T08:47:01Z</time>
      </trkpt>
      <trkpt lat="45.67529" lon="6.54401">
        <ele>1252.79</ele>
        <time>2012-01-24T08:47:11Z</time>
      </trkpt>
      <trkpt lat="45.67529" lon="6.544">
        <ele>1253.053</ele>
        <time>2012-01-24T08:47:21Z</time>
      </trkpt>
      <trkpt lat="45.67529" lon="6.54398">
        <ele>1253.269</ele>
        <time>2012-01-24T08:47:31Z</time>
      </trkpt>
      <trkpt lat="45.67531" lon="6.54395">
        <ele>1254.192</ele>
        <time>2012-01-24T08:47:41Z</time>
      </trkpt>
      <trkpt lat="45.67531" lon="6.54395">
        <ele>1254.224</ele>
        <time>2012-01-24T08:47:51Z</time>
      </trkpt>
      <trkpt lat="45.67532" lon="6.54395">
        <ele>1255.461</ele>
        <time>2012-01-24T08:48:01Z</time>
      </trkpt>
      <trkpt lat="45.67532" lon="6.54395">
        <ele>1255.32</ele>
        <time>2012-01-24T08:48:11Z</time>
      </trkpt>
      <trkpt lat="45.67535" lon="6.54394">
        <ele>1256.116</ele>
        <time>2012-01-24T08:48:21Z</time>
      </trkpt>
      <trkpt lat="45.67536" lon="6.54393">
        <ele>1255.135</ele>
        <time>2012-01-24T08:48:31Z</time>
      </trkpt>
      <trkpt lat="45.67537" lon="6.54391">
        <ele>1256.581</ele>
        <time>2012-01-24T08:48:41Z</time>
      </trkpt>
      <trkpt lat="45.67539" lon="6.54388">
        <ele>1257.015</ele>
        <time>2012-01-24T08:48:51Z</time>
      </trkpt>
      <trkpt lat="45.67537" lon="6.5439">
        <ele>1258.828</ele>
        <time>2012-01-24T08:49:01Z</time>
      </trkpt>
      <trkpt lat="45.67534" lon="6.54385">
        <ele>1260.217</ele>
        <time>2012-01-24T08:49:11Z</time>
      </trkpt>
      <trkpt lat="45.67532" lon="6.54374">
        <ele>1262.034</ele>
        <time>2012-01-24T08:49:21Z</time>
      </trkpt>
      <trkpt lat="45.67536" lon="6.54366">
        <ele>1263.799</ele>
        <time>2012-01-24T08:49:31Z</time>
      </trkpt>
      <trkpt lat="45.67537" lon="6.54355">
        <ele>1265.08</ele>
        <time>2012-01-24T08:49:41Z</time>
      </trkpt>
      <trkpt lat="45.6754" lon="6.54346">
        <ele>1266.412</ele>
        <time>2012-01-24T08:49:51Z</time>
      </trkpt>
      <trkpt lat="45.67545" lon="6.54344">
        <ele>1266.855</ele>
        <time>2012-01-24T08:50:01Z</time>
      </trkpt>
      <trkpt lat="45.67546" lon="6.54339">
        <ele>1268.165</ele>
        <time>2012-01-24T08:50:11Z</time>
      </trkpt>
      <trkpt lat="45.67547" lon="6.54331">
        <ele>1269.266</ele>
        <time>2012-01-24T08:50:21Z</time>
      </trkpt>
      <trkpt lat="45.67548" lon="6.54324">
        <ele>1270.485</ele>
        <time>2012-01-24T08:50:31Z</time>
      </trkpt>
      <trkpt lat="45.67551" lon="6.54316">
        <ele>1271.632</ele>
        <time>2012-01-24T08:50:41Z</time>
      </trkpt>
      <trkpt lat="45.67552" lon="6.54307">
        <ele>1272.38</ele>
        <time>2012-01-24T08:50:51Z</time>
      </trkpt>
      <trkpt lat="45.67554" lon="6.543">
        <ele>1273.958</ele>
        <time>2012-01-24T08:51:01Z</time>
      </trkpt>
      <trkpt lat="45.67554" lon="6.54293">
        <ele>1274.443</ele>
        <time>2012-01-24T08:51:11Z</time>
      </trkpt>
      <trkpt lat="45.67555" lon="6.54292">
        <ele>1274.829</ele>
        <time>2012-01-24T08:51:21Z</time>
      </trkpt>
      <trkpt lat="45.67555" lon="6.54289">
        <ele>1275.246</ele>
        <time>2012-01-24T08:51:31Z</time>
      </trkpt>
      <trkpt lat="45.67553" lon="6.54281">
        <ele>1276.497</ele>
        <time>2012-01-24T08:51:41Z</time>
      </trkpt>
      <trkpt lat="45.67554" lon="6.54275">
        <ele>1277.889</ele>
        <time>2012-01-24T08:51:51Z</time>
      </trkpt>
      <trkpt lat="45.67557" lon="6.54267">
        <ele>1279.738</ele>
        <time>2012-01-24T08:52:01Z</time>
      </trkpt>
      <trkpt lat="45.67558" lon="6.5426">
        <ele>1280.759</ele>
        <time>2012-01-24T08:52:11Z</time>
      </trkpt>
      <trkpt lat="45.6756" lon="6.54251">
        <ele>1282.449</ele>
        <time>2012-01-24T08:52:21Z</time>
      </trkpt>
      <trkpt lat="45.67563" lon="6.54247">
        <ele>1283.115</ele>
        <time>2012-01-24T08:52:31Z</time>
      </trkpt>
      <trkpt lat="45.67565" lon="6.54242">
        <ele>1283.773</ele>
        <time>2012-01-24T08:52:41Z</time>
      </trkpt>
      <trkpt lat="45.67567" lon="6.54241">
        <ele>1285.776</ele>
        <time>2012-01-24T08:52:51Z</time>
      </trkpt>
      <trkpt lat="45.67566" lon="6.54241">
        <ele>1284.746</ele>
        <time>2012-01-24T08:53:01Z</time>
      </trkpt>
      <trkpt lat="45.67566" lon="6.54235">
        <ele>1285.031</ele>
        <time>2012-01-24T08:53:11Z</time>
      </trkpt>
      <trkpt lat="45.67569" lon="6.54225">
        <ele>1286.841</ele>
        <time>2012-01-24T08:53:21Z</time>
      </trkpt>
      <trkpt lat="45.67571" lon="6.54221">
        <ele>1288.349</ele>
        <time>2012-01-24T08:53:31Z</time>
      </trkpt>
      <trkpt lat="45.67572" lon="6.54211">
        <ele>1289.403</ele>
        <time>2012-01-24T08:53:41Z</time>
      </trkpt>
      <trkpt lat="45.67577" lon="6.54206">
        <ele>1291.378</ele>
        <time>2012-01-24T08:53:51Z</time>
      </trkpt>
      <trkpt lat="45.67578" lon="6.54206">
        <ele>1292.043</ele>
        <time>2012-01-24T08:54:01Z</time>
      </trkpt>
      <trkpt lat="45.67578" lon="6.54206">
        <ele>1292.187</ele>
        <time>2012-01-24T08:54:11Z</time>
      </trkpt>
      <trkpt lat="45.67578" lon="6.542">
        <ele>1293.235</ele>
        <time>2012-01-24T08:54:21Z</time>
      </trkpt>
      <trkpt lat="45.67577" lon="6.542">
        <ele>1293.1</ele>
        <time>2012-01-24T08:54:31Z</time>
      </trkpt>
      <trkpt lat="45.67578" lon="6.542">
        <ele>1293.831</ele>
        <time>2012-01-24T08:54:41Z</time>
      </trkpt>
      <trkpt lat="45.67577" lon="6.542">
        <ele>1293.638</ele>
        <time>2012-01-24T08:54:51Z</time>
      </trkpt>
      <trkpt lat="45.67577" lon="6.542">
        <ele>1293.751</ele>
        <time>2012-01-24T08:55:01Z</time>
      </trkpt>
      <trkpt lat="45.67577" lon="6.542">
        <ele>1293.729</ele>
        <time>2012-01-24T08:55:11Z</time>
      </trkpt>
      <trkpt lat="45.67577" lon="6.542">
        <ele>1294.042</ele>
        <time>2012-01-24T08:55:21Z</time>
      </trkpt>
      <trkpt lat="45.67578" lon="6.542">
        <ele>1293.944</ele>
        <time>2012-01-24T08:55:31Z</time>
      </trkpt>
      <trkpt lat="45.67579" lon="6.54197">
        <ele>1294.507</ele>
        <time>2012-01-24T08:55:41Z</time>
      </trkpt>
      <trkpt lat="45.67581" lon="6.54191">
        <ele>1295.243</ele>
        <time>2012-01-24T08:55:51Z</time>
      </trkpt>
      <trkpt lat="45.67582" lon="6.54189">
        <ele>1295.744</ele>
        <time>2012-01-24T08:56:01Z</time>
      </trkpt>
      <trkpt lat="45.67582" lon="6.54184">
        <ele>1297.341</ele>
        <time>2012-01-24T08:56:11Z</time>
      </trkpt>
      <trkpt lat="45.67582" lon="6.54182">
        <ele>1298.075</ele>
        <time>2012-01-24T08:56:21Z</time>
      </trkpt>
      <trkpt lat="45.67582" lon="6.54181">
        <ele>1297.808</ele>
        <time>2012-01-24T08:56:31Z</time>
      </trkpt>
      <trkpt lat="45.67584" lon="6.54178">
        <ele>1298.518</ele>
        <time>2012-01-24T08:56:41Z</time>
      </trkpt>
      <trkpt lat="45.67584" lon="6.54178">
        <ele>1299.329</ele>
        <time>2012-01-24T08:56:51Z</time>
      </trkpt>
      <trkpt lat="45.67586" lon="6.54174">
        <ele>1299.51</ele>
        <time>2012-01-24T08:57:01Z</time>
      </trkpt>
      <trkpt lat="45.67589" lon="6.54167">
        <ele>1301.206</ele>
        <time>2012-01-24T08:57:11Z</time>
      </trkpt>
      <trkpt lat="45.67591" lon="6.54162">
        <ele>1302.885</ele>
        <time>2012-01-24T08:57:21Z</time>
      </trkpt>
      <trkpt lat="45.67594" lon="6.54157">
        <ele>1304.432</ele>
        <time>2012-01-24T08:57:31Z</time>
      </trkpt>
      <trkpt lat="45.67599" lon="6.54156">
        <ele>1305.229</ele>
        <time>2012-01-24T08:57:41Z</time>
      </trkpt>
      <trkpt lat="45.67603" lon="6.54157">
        <ele>1307.121</ele>
        <time>2012-01-24T08:57:51Z</time>
      </trkpt>
      <trkpt lat="45.67606" lon="6.5416">
        <ele>1308.008</ele>
        <time>2012-01-24T08:58:01Z</time>
      </trkpt>
      <trkpt lat="45.67608" lon="6.54162">
        <ele>1308.996</ele>
        <time>2012-01-24T08:58:11Z</time>
      </trkpt>
      <trkpt lat="45.6761" lon="6.54163">
        <ele>1309.807</ele>
        <time>2012-01-24T08:58:21Z</time>
      </trkpt>
      <trkpt lat="45.67613" lon="6.54165">
        <ele>1311.098</ele>
        <time>2012-01-24T08:58:31Z</time>
      </trkpt>
      <trkpt lat="45.67616" lon="6.54166">
        <ele>1311.772</ele>
        <time>2012-01-24T08:58:41Z</time>
      </trkpt>
      <trkpt lat="45.67615" lon="6.54168">
        <ele>1312.163</ele>
        <time>2012-01-24T08:58:51Z</time>
      </trkpt>
      <trkpt lat="45.67615" lon="6.54168">
        <ele>1312.965</ele>
        <time>2012-01-24T08:59:01Z</time>
      </trkpt>
      <trkpt lat="45.67616" lon="6.5417">
        <ele>1313.911</ele>
        <time>2012-01-24T08:59:11Z</time>
      </trkpt>
      <trkpt lat="45.6762" lon="6.54173">
        <ele>1313.768</ele>
        <time>2012-01-24T08:59:21Z</time>
      </trkpt>
      <trkpt lat="45.6762" lon="6.54174">
        <ele>1314.221</ele>
        <time>2012-01-24T08:59:31Z</time>
      </trkpt>
      <trkpt lat="45.67619" lon="6.54174">
        <ele>1314.56</ele>
        <time>2012-01-24T08:59:41Z</time>
      </trkpt>
      <trkpt lat="45.6762" lon="6.54172">
        <ele>1313.984</ele>
        <time>2012-01-24T08:59:51Z</time>
      </trkpt>
      <trkpt lat="45.67622" lon="6.5417">
        <ele>1313.828</ele>
        <time>2012-01-24T09:00:01Z</time>
      </trkpt>
      <trkpt lat="45.67624" lon="6.5417">
        <ele>1313.836</ele>
        <time>2012-01-24T09:00:11Z</time>
      </trkpt>
      <trkpt lat="45.67624" lon="6.5417">
        <ele>1319.695</ele>
        <time>2012-01-24T09:00:21Z</time>
      </trkpt>
      <trkpt lat="45.67626" lon="6.54172">
        <ele>1315.473</ele>
        <time>2012-01-24T09:00:31Z</time>
      </trkpt>
      <trkpt lat="45.67625" lon="6.54174">
        <ele>1314.593</ele>
        <time>2012-01-24T09:00:41Z</time>
      </trkpt>
      <trkpt lat="45.67626" lon="6.54172">
        <ele>1314.405</ele>
        <time>2012-01-24T09:00:51Z</time>
      </trkpt>
      <trkpt lat="45.67624" lon="6.54172">
        <ele>1320.424</ele>
        <time>2012-01-24T09:01:01Z</time>
      </trkpt>
      <trkpt lat="45.67627" lon="6.5417">
        <ele>1316.286</ele>
        <time>2012-01-24T09:01:11Z</time>
      </trkpt>
      <trkpt lat="45.67627" lon="6.5417">
        <ele>1316.08</ele>
        <time>2012-01-24T09:01:21Z</time>
      </trkpt>
      <trkpt lat="45.67627" lon="6.5417">
        <ele>1316.075</ele>
        <time>2012-01-24T09:01:31Z</time>
      </trkpt>
      <trkpt lat="45.67627" lon="6.5417">
        <ele>1316.376</ele>
        <time>2012-01-24T09:01:41Z</time>
      </trkpt>
      <trkpt lat="45.67627" lon="6.54175">
        <ele>1316.693</ele>
        <time>2012-01-24T09:01:51Z</time>
      </trkpt>
      <trkpt lat="45.67629" lon="6.54176">
        <ele>1317.467</ele>
        <time>2012-01-24T09:02:01Z</time>
      </trkpt>
      <trkpt lat="45.6763" lon="6.54177">
        <ele>1317.933</ele>
        <time>2012-01-24T09:02:11Z</time>
      </trkpt>
      <trkpt lat="45.67635" lon="6.54177">
        <ele>1319.443</ele>
        <time>2012-01-24T09:02:21Z</time>
      </trkpt>
      <trkpt lat="45.6764" lon="6.54177">
        <ele>1320.451</ele>
        <time>2012-01-24T09:02:31Z</time>
      </trkpt>
      <trkpt lat="45.67647" lon="6.54179">
        <ele>1321.714</ele>
        <time>2012-01-24T09:02:41Z</time>
      </trkpt>
      <trkpt lat="45.67652" lon="6.5418">
        <ele>1323.637</ele>
        <time>2012-01-24T09:02:51Z</time>
      </trkpt>
      <trkpt lat="45.67656" lon="6.54179">
        <ele>1325.069</ele>
        <time>2012-01-24T09:03:01Z</time>
      </trkpt>
      <trkpt lat="45.67658" lon="6.54179">
        <ele>1326.134</ele>
        <time>2012-01-24T09:03:11Z</time>
      </trkpt>
      <trkpt lat="45.67662" lon="6.54179">
        <ele>1326.805</ele>
        <time>2012-01-24T09:03:21Z</time>
      </trkpt>
      <trkpt lat="45.67665" lon="6.54178">
        <ele>1327.69</ele>
        <time>2012-01-24T09:03:31Z</time>
      </trkpt>
      <trkpt lat="45.67669" lon="6.54177">
        <ele>1329.249</ele>
        <time>2012-01-24T09:03:41Z</time>
      </trkpt>
      <trkpt lat="45.67673" lon="6.54175">
        <ele>1330.628</ele>
        <time>2012-01-24T09:03:51Z</time>
      </trkpt>
      <trkpt lat="45.67674" lon="6.54168">
        <ele>1331.747</ele>
        <time>2012-01-24T09:04:01Z</time>
      </trkpt>
      <trkpt lat="45.67676" lon="6.54162">
        <ele>1332.532</ele>
        <time>2012-01-24T09:04:11Z</time>
      </trkpt>
      <trkpt lat="45.67677" lon="6.54156">
        <ele>1334.61</ele>
        <time>2012-01-24T09:04:21Z</time>
      </trkpt>
      <trkpt lat="45.6768" lon="6.54149">
        <ele>1335.904</ele>
        <time>2012-01-24T09:04:31Z</time>
      </trkpt>
      <trkpt lat="45.67685" lon="6.54144">
        <ele>1337.633</ele>
        <time>2012-01-24T09:04:41Z</time>
      </trkpt>
      <trkpt lat="45.67688" lon="6.54141">
        <ele>1338.591</ele>
        <time>2012-01-24T09:04:51Z</time>
      </trkpt>
      <trkpt lat="45.6769" lon="6.54137">
        <ele>1340.023</ele>
        <time>2012-01-24T09:05:01Z</time>
      </trkpt>
      <trkpt lat="45.67693" lon="6.54133">
        <ele>1341.091</ele>
        <time>2012-01-24T09:05:11Z</time>
      </trkpt>
      <trkpt lat="45.67697" lon="6.54129">
        <ele>1342.041</ele>
        <time>2012-01-24T09:05:21Z</time>
      </trkpt>
      <trkpt lat="45.677" lon="6.54127">
        <ele>1343.739</ele>
        <time>2012-01-24T09:05:31Z</time>
      </trkpt>
      <trkpt lat="45.67704" lon="6.54126">
        <ele>1344.525</ele>
        <time>2012-01-24T09:05:41Z</time>
      </trkpt>
      <trkpt lat="45.67707" lon="6.54132">
        <ele>1345.777</ele>
        <time>2012-01-24T09:05:51Z</time>
      </trkpt>
      <trkpt lat="45.6771" lon="6.54137">
        <ele>1347.098</ele>
        <time>2012-01-24T09:06:01Z</time>
      </trkpt>
      <trkpt lat="45.67716" lon="6.54139">
        <ele>1348.557</ele>
        <time>2012-01-24T09:06:11Z</time>
      </trkpt>
      <trkpt lat="45.67718" lon="6.54141">
        <ele>1349.493</ele>
        <time>2012-01-24T09:06:21Z</time>
      </trkpt>
      <trkpt lat="45.67719" lon="6.54142">
        <ele>1350.156</ele>
        <time>2012-01-24T09:06:31Z</time>
      </trkpt>
      <trkpt lat="45.67722" lon="6.54143">
        <ele>1351.223</ele>
        <time>2012-01-24T09:06:41Z</time>
      </trkpt>
      <trkpt lat="45.67728" lon="6.54145">
        <ele>1352.747</ele>
        <time>2012-01-24T09:06:51Z</time>
      </trkpt>
      <trkpt lat="45.67733" lon="6.54144">
        <ele>1354.789</ele>
        <time>2012-01-24T09:07:01Z</time>
      </trkpt>
      <trkpt lat="45.67737" lon="6.54143">
        <ele>1355.927</ele>
        <time>2012-01-24T09:07:11Z</time>
      </trkpt>
      <trkpt lat="45.67741" lon="6.54142">
        <ele>1356.923</ele>
        <time>2012-01-24T09:07:21Z</time>
      </trkpt>
      <trkpt lat="45.67745" lon="6.54142">
        <ele>1358.116</ele>
        <time>2012-01-24T09:07:31Z</time>
      </trkpt>
      <trkpt lat="45.6775" lon="6.54141">
        <ele>1359.602</ele>
        <time>2012-01-24T09:07:41Z</time>
      </trkpt>
      <trkpt lat="45.67756" lon="6.54142">
        <ele>1361.175</ele>
        <time>2012-01-24T09:07:51Z</time>
      </trkpt>
      <trkpt lat="45.67757" lon="6.54144">
        <ele>1362.046</ele>
        <time>2012-01-24T09:08:01Z</time>
      </trkpt>
      <trkpt lat="45.67761" lon="6.54143">
        <ele>1363.046</ele>
        <time>2012-01-24T09:08:11Z</time>
      </trkpt>
      <trkpt lat="45.67763" lon="6.54143">
        <ele>1363.833</ele>
        <time>2012-01-24T09:08:21Z</time>
      </trkpt>
      <trkpt lat="45.67764" lon="6.54145">
        <ele>1364.953</ele>
        <time>2012-01-24T09:08:31Z</time>
      </trkpt>
      <trkpt lat="45.67766" lon="6.54146">
        <ele>1365.298</ele>
        <time>2012-01-24T09:08:41Z</time>
      </trkpt>
      <trkpt lat="45.67767" lon="6.54146">
        <ele>1366.23</ele>
        <time>2012-01-24T09:08:51Z</time>
      </trkpt>
      <trkpt lat="45.67768" lon="6.54147">
        <ele>1366.494</ele>
        <time>2012-01-24T09:09:01Z</time>
      </trkpt>
      <trkpt lat="45.67769" lon="6.54147">
        <ele>1367.264</ele>
        <time>2012-01-24T09:09:11Z</time>
      </trkpt>
      <trkpt lat="45.67772" lon="6.54147">
        <ele>1367.23</ele>
        <time>2012-01-24T09:09:21Z</time>
      </trkpt>
      <trkpt lat="45.67776" lon="6.54144">
        <ele>1368.086</ele>
        <time>2012-01-24T09:09:31Z</time>
      </trkpt>
      <trkpt lat="45.67776" lon="6.54145">
        <ele>1368.21</ele>
        <time>2012-01-24T09:09:41Z</time>
      </trkpt>
      <trkpt lat="45.67776" lon="6.54145">
        <ele>1368.19</ele>
        <time>2012-01-24T09:09:51Z</time>
      </trkpt>
      <trkpt lat="45.67776" lon="6.54146">
        <ele>1367.937</ele>
        <time>2012-01-24T09:10:01Z</time>
      </trkpt>
      <trkpt lat="45.67776" lon="6.54145">
        <ele>1367.776</ele>
        <time>2012-01-24T09:10:11Z</time>
      </trkpt>
      <trkpt lat="45.67776" lon="6.54145">
        <ele>1368.221</ele>
        <time>2012-01-24T09:10:21Z</time>
      </trkpt>
      <trkpt lat="45.67776" lon="6.54145">
        <ele>1367.827</ele>
        <time>2012-01-24T09:10:31Z</time>
      </trkpt>
      <trkpt lat="45.67776" lon="6.54145">
        <ele>1367.969</ele>
        <time>2012-01-24T09:10:41Z</time>
      </trkpt>
      <trkpt lat="45.67776" lon="6.54145">
        <ele>1367.977</ele>
        <time>2012-01-24T09:10:51Z</time>
      </trkpt>
      <trkpt lat="45.67776" lon="6.54146">
        <ele>1368.089</ele>
        <time>2012-01-24T09:11:01Z</time>
      </trkpt>
      <trkpt lat="45.67775" lon="6.54145">
        <ele>1368.064</ele>
        <time>2012-01-24T09:11:11Z</time>
      </trkpt>
      <trkpt lat="45.67775" lon="6.54144">
        <ele>1368.306</ele>
        <time>2012-01-24T09:11:21Z</time>
      </trkpt>
      <trkpt lat="45.67775" lon="6.54144">
        <ele>1368.437</ele>
        <time>2012-01-24T09:11:31Z</time>
      </trkpt>
      <trkpt lat="45.67775" lon="6.54144">
        <ele>1368.379</ele>
        <time>2012-01-24T09:11:41Z</time>
      </trkpt>
      <trkpt lat="45.67775" lon="6.54144">
        <ele>1367.956</ele>
        <time>2012-01-24T09:11:51Z</time>
      </trkpt>
      <trkpt lat="45.67775" lon="6.54144">
        <ele>1368.661</ele>
        <time>2012-01-24T09:12:01Z</time>
      </trkpt>
      <trkpt lat="45.67775" lon="6.54144">
        <ele>1368.391</ele>
        <time>2012-01-24T09:12:11Z</time>
      </trkpt>
      <trkpt lat="45.67775" lon="6.54143">
        <ele>1368.815</ele>
        <time>2012-01-24T09:12:21Z</time>
      </trkpt>
      <trkpt lat="45.67775" lon="6.54144">
        <ele>1369.298</ele>
        <time>2012-01-24T09:12:31Z</time>
      </trkpt>
      <trkpt lat="45.67775" lon="6.54144">
        <ele>1368.879</ele>
        <time>2012-01-24T09:12:41Z</time>
      </trkpt>
      <trkpt lat="45.67775" lon="6.54143">
        <ele>1369.045</ele>
        <time>2012-01-24T09:12:51Z</time>
      </trkpt>
      <trkpt lat="45.67775" lon="6.54143">
        <ele>1368.764</ele>
        <time>2012-01-24T09:13:01Z</time>
      </trkpt>
      <trkpt lat="45.67775" lon="6.54143">
        <ele>1369.51</ele>
        <time>2012-01-24T09:13:11Z</time>
      </trkpt>
      <trkpt lat="45.67775" lon="6.54142">
        <ele>1369.218</ele>
        <time>2012-01-24T09:13:21Z</time>
      </trkpt>
      <trkpt lat="45.67776" lon="6.54143">
        <ele>1369.782</ele>
        <time>2012-01-24T09:13:31Z</time>
      </trkpt>
      <trkpt lat="45.67775" lon="6.54142">
        <ele>1369.481</ele>
        <time>2012-01-24T09:13:41Z</time>
      </trkpt>
      <trkpt lat="45.67776" lon="6.54141">
        <ele>1369.256</ele>
        <time>2012-01-24T09:13:51Z</time>
      </trkpt>
      <trkpt lat="45.67776" lon="6.54142">
        <ele>1369.491</ele>
        <time>2012-01-24T09:14:01Z</time>
      </trkpt>
      <trkpt lat="45.67777" lon="6.54142">
        <ele>1369.749</ele>
        <time>2012-01-24T09:14:11Z</time>
      </trkpt>
      <trkpt lat="45.67779" lon="6.54148">
        <ele>1369.998</ele>
        <time>2012-01-24T09:14:21Z</time>
      </trkpt>
      <trkpt lat="45.67786" lon="6.54153">
        <ele>1370.531</ele>
        <time>2012-01-24T09:14:31Z</time>
      </trkpt>
      <trkpt lat="45.67792" lon="6.54156">
        <ele>1370.953</ele>
        <time>2012-01-24T09:14:41Z</time>
      </trkpt>
      <trkpt lat="45.67792" lon="6.54157">
        <ele>1371.079</ele>
        <time>2012-01-24T09:14:51Z</time>
      </trkpt>
      <trkpt lat="45.67792" lon="6.54157">
        <ele>1371.44</ele>
        <time>2012-01-24T09:15:01Z</time>
      </trkpt>
      <trkpt lat="45.67791" lon="6.54157">
        <ele>1371.234</ele>
        <time>2012-01-24T09:15:11Z</time>
      </trkpt>
      <trkpt lat="45.67791" lon="6.54157">
        <ele>1371.336</ele>
        <time>2012-01-24T09:15:21Z</time>
      </trkpt>
      <trkpt lat="45.67794" lon="6.54159">
        <ele>1371.67</ele>
        <time>2012-01-24T09:15:31Z</time>
      </trkpt>
      <trkpt lat="45.67799" lon="6.54162">
        <ele>1372.646</ele>
        <time>2012-01-24T09:15:41Z</time>
      </trkpt>
      <trkpt lat="45.67803" lon="6.54165">
        <ele>1374.343</ele>
        <time>2012-01-24T09:15:51Z</time>
      </trkpt>
      <trkpt lat="45.6781" lon="6.54167">
        <ele>1376.56</ele>
        <time>2012-01-24T09:16:01Z</time>
      </trkpt>
      <trkpt lat="45.67814" lon="6.54169">
        <ele>1377.196</ele>
        <time>2012-01-24T09:16:11Z</time>
      </trkpt>
      <trkpt lat="45.67816" lon="6.54173">
        <ele>1378.87</ele>
        <time>2012-01-24T09:16:21Z</time>
      </trkpt>
      <trkpt lat="45.6782" lon="6.54175">
        <ele>1379.143</ele>
        <time>2012-01-24T09:16:31Z</time>
      </trkpt>
      <trkpt lat="45.67823" lon="6.54177">
        <ele>1380.988</ele>
        <time>2012-01-24T09:16:41Z</time>
      </trkpt>
      <trkpt lat="45.67827" lon="6.5418">
        <ele>1381.417</ele>
        <time>2012-01-24T09:16:51Z</time>
      </trkpt>
      <trkpt lat="45.67833" lon="6.54184">
        <ele>1382.927</ele>
        <time>2012-01-24T09:17:01Z</time>
      </trkpt>
      <trkpt lat="45.67837" lon="6.54187">
        <ele>1384.727</ele>
        <time>2012-01-24T09:17:11Z</time>
      </trkpt>
      <trkpt lat="45.6784" lon="6.5419">
        <ele>1385.725</ele>
        <time>2012-01-24T09:17:21Z</time>
      </trkpt>
      <trkpt lat="45.67845" lon="6.54193">
        <ele>1387.571</ele>
        <time>2012-01-24T09:17:31Z</time>
      </trkpt>
      <trkpt lat="45.6785" lon="6.54196">
        <ele>1389.051</ele>
        <time>2012-01-24T09:17:41Z</time>
      </trkpt>
      <trkpt lat="45.67854" lon="6.54196">
        <ele>1389.635</ele>
        <time>2012-01-24T09:17:51Z</time>
      </trkpt>
      <trkpt lat="45.67859" lon="6.54195">
        <ele>1390.944</ele>
        <time>2012-01-24T09:18:01Z</time>
      </trkpt>
      <trkpt lat="45.67863" lon="6.54196">
        <ele>1390.496</ele>
        <time>2012-01-24T09:18:11Z</time>
      </trkpt>
      <trkpt lat="45.67864" lon="6.54199">
        <ele>1392.662</ele>
        <time>2012-01-24T09:18:21Z</time>
      </trkpt>
      <trkpt lat="45.67869" lon="6.542">
        <ele>1393.796</ele>
        <time>2012-01-24T09:18:31Z</time>
      </trkpt>
      <trkpt lat="45.67874" lon="6.54203">
        <ele>1394.916</ele>
        <time>2012-01-24T09:18:41Z</time>
      </trkpt>
      <trkpt lat="45.6788" lon="6.54207">
        <ele>1396.209</ele>
        <time>2012-01-24T09:18:51Z</time>
      </trkpt>
      <trkpt lat="45.67882" lon="6.54211">
        <ele>1397.058</ele>
        <time>2012-01-24T09:19:01Z</time>
      </trkpt>
      <trkpt lat="45.67887" lon="6.54215">
        <ele>1398.338</ele>
        <time>2012-01-24T09:19:11Z</time>
      </trkpt>
      <trkpt lat="45.67891" lon="6.54219">
        <ele>1399.24</ele>
        <time>2012-01-24T09:19:21Z</time>
      </trkpt>
      <trkpt lat="45.67893" lon="6.54222">
        <ele>1400.618</ele>
        <time>2012-01-24T09:19:31Z</time>
      </trkpt>
      <trkpt lat="45.67896" lon="6.54225">
        <ele>1402.077</ele>
        <time>2012-01-24T09:19:41Z</time>
      </trkpt>
      <trkpt lat="45.67902" lon="6.54228">
        <ele>1402.69</ele>
        <time>2012-01-24T09:19:51Z</time>
      </trkpt>
      <trkpt lat="45.67905" lon="6.54234">
        <ele>1403</ele>
        <time>2012-01-24T09:20:01Z</time>
      </trkpt>
      <trkpt lat="45.67906" lon="6.54243">
        <ele>1403.427</ele>
        <time>2012-01-24T09:20:11Z</time>
      </trkpt>
      <trkpt lat="45.67907" lon="6.54251">
        <ele>1403.881</ele>
        <time>2012-01-24T09:20:21Z</time>
      </trkpt>
      <trkpt lat="45.67906" lon="6.54252">
        <ele>1403.854</ele>
        <time>2012-01-24T09:20:31Z</time>
      </trkpt>
      <trkpt lat="45.67905" lon="6.54254">
        <ele>1404.061</ele>
        <time>2012-01-24T09:20:41Z</time>
      </trkpt>
      <trkpt lat="45.67905" lon="6.54255">
        <ele>1404.167</ele>
        <time>2012-01-24T09:20:51Z</time>
      </trkpt>
      <trkpt lat="45.67905" lon="6.54255">
        <ele>1403.706</ele>
        <time>2012-01-24T09:21:01Z</time>
      </trkpt>
      <trkpt lat="45.67905" lon="6.54255">
        <ele>1404.007</ele>
        <time>2012-01-24T09:21:11Z</time>
      </trkpt>
      <trkpt lat="45.67905" lon="6.54255">
        <ele>1403.433</ele>
        <time>2012-01-24T09:21:21Z</time>
      </trkpt>
      <trkpt lat="45.67905" lon="6.54255">
        <ele>1403.881</ele>
        <time>2012-01-24T09:21:31Z</time>
      </trkpt>
      <trkpt lat="45.67905" lon="6.54255">
        <ele>1403.52</ele>
        <time>2012-01-24T09:21:41Z</time>
      </trkpt>
      <trkpt lat="45.67905" lon="6.54255">
        <ele>1403.565</ele>
        <time>2012-01-24T09:21:51Z</time>
      </trkpt>
      <trkpt lat="45.67905" lon="6.54255">
        <ele>1403.72</ele>
        <time>2012-01-24T09:22:01Z</time>
      </trkpt>
      <trkpt lat="45.67905" lon="6.54255">
        <ele>1403.513</ele>
        <time>2012-01-24T09:22:11Z</time>
      </trkpt>
      <trkpt lat="45.67905" lon="6.54256">
        <ele>1403.302</ele>
        <time>2012-01-24T09:22:21Z</time>
      </trkpt>
      <trkpt lat="45.67905" lon="6.54256">
        <ele>1403.26</ele>
        <time>2012-01-24T09:22:31Z</time>
      </trkpt>
      <trkpt lat="45.67905" lon="6.54256">
        <ele>1402.762</ele>
        <time>2012-01-24T09:22:41Z</time>
      </trkpt>
      <trkpt lat="45.67905" lon="6.54256">
        <ele>1402.984</ele>
        <time>2012-01-24T09:22:51Z</time>
      </trkpt>
      <trkpt lat="45.67905" lon="6.54255">
        <ele>1402.728</ele>
        <time>2012-01-24T09:23:01Z</time>
      </trkpt>
      <trkpt lat="45.67905" lon="6.54256">
        <ele>1403.002</ele>
        <time>2012-01-24T09:23:11Z</time>
      </trkpt>
      <trkpt lat="45.67905" lon="6.54256">
        <ele>1402.503</ele>
        <time>2012-01-24T09:23:21Z</time>
      </trkpt>
      <trkpt lat="45.67905" lon="6.54256">
        <ele>1402.34</ele>
        <time>2012-01-24T09:23:31Z</time>
      </trkpt>
      <trkpt lat="45.67905" lon="6.54256">
        <ele>1402.733</ele>
        <time>2012-01-24T09:23:41Z</time>
      </trkpt>
      <trkpt lat="45.67905" lon="6.54256">
        <ele>1402.875</ele>
        <time>2012-01-24T09:23:51Z</time>
      </trkpt>
      <trkpt lat="45.67905" lon="6.54256">
        <ele>1402.631</ele>
        <time>2012-01-24T09:24:01Z</time>
      </trkpt>
      <trkpt lat="45.67904" lon="6.54259">
        <ele>1402.57</ele>
        <time>2012-01-24T09:24:11Z</time>
      </trkpt>
      <trkpt lat="45.67899" lon="6.54268">
        <ele>1403.563</ele>
        <time>2012-01-24T09:24:21Z</time>
      </trkpt>
      <trkpt lat="45.67894" lon="6.54274">
        <ele>1404.89</ele>
        <time>2012-01-24T09:24:31Z</time>
      </trkpt>
      <trkpt lat="45.67888" lon="6.54278">
        <ele>1404.679</ele>
        <time>2012-01-24T09:24:41Z</time>
      </trkpt>
      <trkpt lat="45.67882" lon="6.54279">
        <ele>1405.073</ele>
        <time>2012-01-24T09:24:51Z</time>
      </trkpt>
      <trkpt lat="45.67877" lon="6.5428">
        <ele>1405.62</ele>
        <time>2012-01-24T09:25:01Z</time>
      </trkpt>
      <trkpt lat="45.6787" lon="6.54281">
        <ele>1406.265</ele>
        <time>2012-01-24T09:25:11Z</time>
      </trkpt>
      <trkpt lat="45.67865" lon="6.54281">
        <ele>1407.188</ele>
        <time>2012-01-24T09:25:21Z</time>
      </trkpt>
      <trkpt lat="45.67858" lon="6.54283">
        <ele>1407.574</ele>
        <time>2012-01-24T09:25:31Z</time>
      </trkpt>
      <trkpt lat="45.67858" lon="6.54283">
        <ele>1407.592</ele>
        <time>2012-01-24T09:25:41Z</time>
      </trkpt>
      <trkpt lat="45.67858" lon="6.54283">
        <ele>1407.094</ele>
        <time>2012-01-24T09:25:51Z</time>
      </trkpt>
      <trkpt lat="45.67857" lon="6.54286">
        <ele>1407.657</ele>
        <time>2012-01-24T09:26:01Z</time>
      </trkpt>
      <trkpt lat="45.67857" lon="6.54288">
        <ele>1407.053</ele>
        <time>2012-01-24T09:26:11Z</time>
      </trkpt>
      <trkpt lat="45.67858" lon="6.54288">
        <ele>1406.883</ele>
        <time>2012-01-24T09:26:21Z</time>
      </trkpt>
      <trkpt lat="45.67858" lon="6.54288">
        <ele>1406.874</ele>
        <time>2012-01-24T09:26:31Z</time>
      </trkpt>
      <trkpt lat="45.67858" lon="6.54288">
        <ele>1407.01</ele>
        <time>2012-01-24T09:26:41Z</time>
      </trkpt>
      <trkpt lat="45.67858" lon="6.54288">
        <ele>1407.159</ele>
        <time>2012-01-24T09:26:51Z</time>
      </trkpt>
      <trkpt lat="45.67854" lon="6.54293">
        <ele>1407.699</ele>
        <time>2012-01-24T09:27:01Z</time>
      </trkpt>
      <trkpt lat="45.6785" lon="6.54297">
        <ele>1408.366</ele>
        <time>2012-01-24T09:27:11Z</time>
      </trkpt>
      <trkpt lat="45.67848" lon="6.54303">
        <ele>1409.205</ele>
        <time>2012-01-24T09:27:21Z</time>
      </trkpt>
      <trkpt lat="45.67843" lon="6.54312">
        <ele>1409.878</ele>
        <time>2012-01-24T09:27:31Z</time>
      </trkpt>
      <trkpt lat="45.67836" lon="6.54317">
        <ele>1410.568</ele>
        <time>2012-01-24T09:27:41Z</time>
      </trkpt>
      <trkpt lat="45.6783" lon="6.54319">
        <ele>1410.96</ele>
        <time>2012-01-24T09:27:51Z</time>
      </trkpt>
      <trkpt lat="45.67825" lon="6.54323">
        <ele>1411.475</ele>
        <time>2012-01-24T09:28:01Z</time>
      </trkpt>
      <trkpt lat="45.67825" lon="6.54333">
        <ele>1411.931</ele>
        <time>2012-01-24T09:28:11Z</time>
      </trkpt>
      <trkpt lat="45.67819" lon="6.5434">
        <ele>1412.771</ele>
        <time>2012-01-24T09:28:21Z</time>
      </trkpt>
      <trkpt lat="45.67818" lon="6.54345">
        <ele>1413.37</ele>
        <time>2012-01-24T09:28:31Z</time>
      </trkpt>
      <trkpt lat="45.67817" lon="6.54349">
        <ele>1413.771</ele>
        <time>2012-01-24T09:28:41Z</time>
      </trkpt>
      <trkpt lat="45.67815" lon="6.54354">
        <ele>1413.715</ele>
        <time>2012-01-24T09:28:51Z</time>
      </trkpt>
      <trkpt lat="45.67813" lon="6.5436">
        <ele>1414.373</ele>
        <time>2012-01-24T09:29:01Z</time>
      </trkpt>
      <trkpt lat="45.67809" lon="6.54368">
        <ele>1415.148</ele>
        <time>2012-01-24T09:29:11Z</time>
      </trkpt>
      <trkpt lat="45.67805" lon="6.54374">
        <ele>1415.561</ele>
        <time>2012-01-24T09:29:21Z</time>
      </trkpt>
      <trkpt lat="45.67803" lon="6.5438">
        <ele>1416.468</ele>
        <time>2012-01-24T09:29:31Z</time>
      </trkpt>
      <trkpt lat="45.67802" lon="6.54382">
        <ele>1417.445</ele>
        <time>2012-01-24T09:29:41Z</time>
      </trkpt>
      <trkpt lat="45.67803" lon="6.54384">
        <ele>1417.401</ele>
        <time>2012-01-24T09:29:51Z</time>
      </trkpt>
      <trkpt lat="45.67799" lon="6.54396">
        <ele>1418.142</ele>
        <time>2012-01-24T09:30:01Z</time>
      </trkpt>
      <trkpt lat="45.67796" lon="6.54407">
        <ele>1419.071</ele>
        <time>2012-01-24T09:30:11Z</time>
      </trkpt>
      <trkpt lat="45.67795" lon="6.54417">
        <ele>1420.259</ele>
        <time>2012-01-24T09:30:21Z</time>
      </trkpt>
      <trkpt lat="45.67794" lon="6.54422">
        <ele>1420.685</ele>
        <time>2012-01-24T09:30:31Z</time>
      </trkpt>
      <trkpt lat="45.67794" lon="6.5443">
        <ele>1421.065</ele>
        <time>2012-01-24T09:30:41Z</time>
      </trkpt>
      <trkpt lat="45.67793" lon="6.54436">
        <ele>1421.181</ele>
        <time>2012-01-24T09:30:51Z</time>
      </trkpt>
      <trkpt lat="45.67791" lon="6.54442">
        <ele>1422.613</ele>
        <time>2012-01-24T09:31:01Z</time>
      </trkpt>
      <trkpt lat="45.6779" lon="6.54446">
        <ele>1422.93</ele>
        <time>2012-01-24T09:31:11Z</time>
      </trkpt>
      <trkpt lat="45.67788" lon="6.54453">
        <ele>1423.906</ele>
        <time>2012-01-24T09:31:21Z</time>
      </trkpt>
      <trkpt lat="45.67786" lon="6.5446">
        <ele>1423.992</ele>
        <time>2012-01-24T09:31:31Z</time>
      </trkpt>
      <trkpt lat="45.67785" lon="6.54467">
        <ele>1425.348</ele>
        <time>2012-01-24T09:31:41Z</time>
      </trkpt>
      <trkpt lat="45.67785" lon="6.54474">
        <ele>1425.098</ele>
        <time>2012-01-24T09:31:51Z</time>
      </trkpt>
      <trkpt lat="45.67786" lon="6.5448">
        <ele>1426.126</ele>
        <time>2012-01-24T09:32:01Z</time>
      </trkpt>
      <trkpt lat="45.67788" lon="6.54489">
        <ele>1426.281</ele>
        <time>2012-01-24T09:32:11Z</time>
      </trkpt>
      <trkpt lat="45.67788" lon="6.54494">
        <ele>1427.321</ele>
        <time>2012-01-24T09:32:21Z</time>
      </trkpt>
      <trkpt lat="45.67791" lon="6.54504">
        <ele>1428.232</ele>
        <time>2012-01-24T09:32:31Z</time>
      </trkpt>
      <trkpt lat="45.67792" lon="6.54513">
        <ele>1428.087</ele>
        <time>2012-01-24T09:32:41Z</time>
      </trkpt>
      <trkpt lat="45.67794" lon="6.54518">
        <ele>1428.216</ele>
        <time>2012-01-24T09:32:51Z</time>
      </trkpt>
      <trkpt lat="45.67798" lon="6.54525">
        <ele>1428.649</ele>
        <time>2012-01-24T09:33:01Z</time>
      </trkpt>
      <trkpt lat="45.67801" lon="6.5453">
        <ele>1429.621</ele>
        <time>2012-01-24T09:33:11Z</time>
      </trkpt>
      <trkpt lat="45.67805" lon="6.54536">
        <ele>1430.122</ele>
        <time>2012-01-24T09:33:21Z</time>
      </trkpt>
      <trkpt lat="45.67808" lon="6.54541">
        <ele>1430.108</ele>
        <time>2012-01-24T09:33:31Z</time>
      </trkpt>
      <trkpt lat="45.67808" lon="6.54541">
        <ele>1429.826</ele>
        <time>2012-01-24T09:33:41Z</time>
      </trkpt>
      <trkpt lat="45.67808" lon="6.54541">
        <ele>1429.651</ele>
        <time>2012-01-24T09:33:51Z</time>
      </trkpt>
      <trkpt lat="45.67808" lon="6.54541">
        <ele>1425.284</ele>
        <time>2012-01-24T09:34:01Z</time>
      </trkpt>
      <trkpt lat="45.67808" lon="6.54541">
        <ele>1431.063</ele>
        <time>2012-01-24T09:34:11Z</time>
      </trkpt>
      <trkpt lat="45.67808" lon="6.54541">
        <ele>1429.582</ele>
        <time>2012-01-24T09:34:21Z</time>
      </trkpt>
      <trkpt lat="45.67808" lon="6.54545">
        <ele>1429.556</ele>
        <time>2012-01-24T09:34:31Z</time>
      </trkpt>
      <trkpt lat="45.67808" lon="6.54549">
        <ele>1430.336</ele>
        <time>2012-01-24T09:34:41Z</time>
      </trkpt>
      <trkpt lat="45.67808" lon="6.54549">
        <ele>1429.737</ele>
        <time>2012-01-24T09:34:51Z</time>
      </trkpt>
      <trkpt lat="45.67808" lon="6.54549">
        <ele>1429.781</ele>
        <time>2012-01-24T09:35:01Z</time>
      </trkpt>
      <trkpt lat="45.67808" lon="6.54549">
        <ele>1429.743</ele>
        <time>2012-01-24T09:35:11Z</time>
      </trkpt>
      <trkpt lat="45.67808" lon="6.54549">
        <ele>1429.381</ele>
        <time>2012-01-24T09:35:21Z</time>
      </trkpt>
      <trkpt lat="45.67808" lon="6.5455">
        <ele>1429.464</ele>
        <time>2012-01-24T09:35:31Z</time>
      </trkpt>
      <trkpt lat="45.67808" lon="6.54551">
        <ele>1429.166</ele>
        <time>2012-01-24T09:35:41Z</time>
      </trkpt>
      <trkpt lat="45.67811" lon="6.5456">
        <ele>1429.853</ele>
        <time>2012-01-24T09:35:51Z</time>
      </trkpt>
      <trkpt lat="45.67814" lon="6.54567">
        <ele>1430.531</ele>
        <time>2012-01-24T09:36:01Z</time>
      </trkpt>
      <trkpt lat="45.67817" lon="6.54574">
        <ele>1431.249</ele>
        <time>2012-01-24T09:36:11Z</time>
      </trkpt>
      <trkpt lat="45.67819" lon="6.5458">
        <ele>1431.526</ele>
        <time>2012-01-24T09:36:21Z</time>
      </trkpt>
      <trkpt lat="45.67823" lon="6.54588">
        <ele>1432.461</ele>
        <time>2012-01-24T09:36:31Z</time>
      </trkpt>
      <trkpt lat="45.67826" lon="6.54597">
        <ele>1432.797</ele>
        <time>2012-01-24T09:36:41Z</time>
      </trkpt>
      <trkpt lat="45.67829" lon="6.54603">
        <ele>1433.233</ele>
        <time>2012-01-24T09:36:51Z</time>
      </trkpt>
      <trkpt lat="45.67832" lon="6.5461">
        <ele>1434.165</ele>
        <time>2012-01-24T09:37:01Z</time>
      </trkpt>
      <trkpt lat="45.67836" lon="6.54616">
        <ele>1434.263</ele>
        <time>2012-01-24T09:37:11Z</time>
      </trkpt>
      <trkpt lat="45.67839" lon="6.54624">
        <ele>1435.246</ele>
        <time>2012-01-24T09:37:21Z</time>
      </trkpt>
      <trkpt lat="45.67843" lon="6.5463">
        <ele>1435.645</ele>
        <time>2012-01-24T09:37:31Z</time>
      </trkpt>
      <trkpt lat="45.67846" lon="6.54636">
        <ele>1437.135</ele>
        <time>2012-01-24T09:37:41Z</time>
      </trkpt>
      <trkpt lat="45.67849" lon="6.54644">
        <ele>1437.367</ele>
        <time>2012-01-24T09:37:51Z</time>
      </trkpt>
      <trkpt lat="45.67853" lon="6.54651">
        <ele>1438.137</ele>
        <time>2012-01-24T09:38:01Z</time>
      </trkpt>
      <trkpt lat="45.67856" lon="6.54659">
        <ele>1439.178</ele>
        <time>2012-01-24T09:38:11Z</time>
      </trkpt>
      <trkpt lat="45.6786" lon="6.54665">
        <ele>1439.822</ele>
        <time>2012-01-24T09:38:21Z</time>
      </trkpt>
      <trkpt lat="45.67863" lon="6.54672">
        <ele>1440.872</ele>
        <time>2012-01-24T09:38:31Z</time>
      </trkpt>
      <trkpt lat="45.67867" lon="6.5468">
        <ele>1440.912</ele>
        <time>2012-01-24T09:38:41Z</time>
      </trkpt>
      <trkpt lat="45.6787" lon="6.54687">
        <ele>1441.816</ele>
        <time>2012-01-24T09:38:51Z</time>
      </trkpt>
      <trkpt lat="45.67873" lon="6.54694">
        <ele>1442.081</ele>
        <time>2012-01-24T09:39:01Z</time>
      </trkpt>
      <trkpt lat="45.67877" lon="6.54701">
        <ele>1442.748</ele>
        <time>2012-01-24T09:39:11Z</time>
      </trkpt>
      <trkpt lat="45.67881" lon="6.54706">
        <ele>1443.489</ele>
        <time>2012-01-24T09:39:21Z</time>
      </trkpt>
      <trkpt lat="45.67884" lon="6.54712">
        <ele>1444.102</ele>
        <time>2012-01-24T09:39:31Z</time>
      </trkpt>
      <trkpt lat="45.67888" lon="6.54722">
        <ele>1444.739</ele>
        <time>2012-01-24T09:39:41Z</time>
      </trkpt>
      <trkpt lat="45.67891" lon="6.54727">
        <ele>1445.585</ele>
        <time>2012-01-24T09:39:51Z</time>
      </trkpt>
      <trkpt lat="45.67895" lon="6.54734">
        <ele>1446.352</ele>
        <time>2012-01-24T09:40:01Z</time>
      </trkpt>
      <trkpt lat="45.67899" lon="6.54741">
        <ele>1447.35</ele>
        <time>2012-01-24T09:40:11Z</time>
      </trkpt>
      <trkpt lat="45.67904" lon="6.54748">
        <ele>1447.347</ele>
        <time>2012-01-24T09:40:21Z</time>
      </trkpt>
      <trkpt lat="45.67908" lon="6.54753">
        <ele>1448.17</ele>
        <time>2012-01-24T09:40:31Z</time>
      </trkpt>
      <trkpt lat="45.67913" lon="6.54759">
        <ele>1448.722</ele>
        <time>2012-01-24T09:40:41Z</time>
      </trkpt>
      <trkpt lat="45.67917" lon="6.54765">
        <ele>1449.203</ele>
        <time>2012-01-24T09:40:51Z</time>
      </trkpt>
      <trkpt lat="45.67919" lon="6.54771">
        <ele>1450.129</ele>
        <time>2012-01-24T09:41:01Z</time>
      </trkpt>
      <trkpt lat="45.67921" lon="6.54779">
        <ele>1450.6</ele>
        <time>2012-01-24T09:41:11Z</time>
      </trkpt>
      <trkpt lat="45.67925" lon="6.54786">
        <ele>1451.216</ele>
        <time>2012-01-24T09:41:21Z</time>
      </trkpt>
      <trkpt lat="45.6793" lon="6.5479">
        <ele>1451.71</ele>
        <time>2012-01-24T09:41:31Z</time>
      </trkpt>
      <trkpt lat="45.67932" lon="6.54792">
        <ele>1451.635</ele>
        <time>2012-01-24T09:41:41Z</time>
      </trkpt>
      <trkpt lat="45.67931" lon="6.54793">
        <ele>1452.465</ele>
        <time>2012-01-24T09:41:51Z</time>
      </trkpt>
      <trkpt lat="45.67932" lon="6.54794">
        <ele>1451.72</ele>
        <time>2012-01-24T09:42:01Z</time>
      </trkpt>
      <trkpt lat="45.67932" lon="6.54793">
        <ele>1451.545</ele>
        <time>2012-01-24T09:42:11Z</time>
      </trkpt>
      <trkpt lat="45.67932" lon="6.54793">
        <ele>1451.797</ele>
        <time>2012-01-24T09:42:21Z</time>
      </trkpt>
      <trkpt lat="45.67932" lon="6.54793">
        <ele>1451.465</ele>
        <time>2012-01-24T09:42:31Z</time>
      </trkpt>
      <trkpt lat="45.67932" lon="6.54793">
        <ele>1451.135</ele>
        <time>2012-01-24T09:42:41Z</time>
      </trkpt>
      <trkpt lat="45.67932" lon="6.54793">
        <ele>1450.989</ele>
        <time>2012-01-24T09:42:51Z</time>
      </trkpt>
      <trkpt lat="45.67931" lon="6.54794">
        <ele>1451.409</ele>
        <time>2012-01-24T09:43:01Z</time>
      </trkpt>
      <trkpt lat="45.67931" lon="6.5479">
        <ele>1451.239</ele>
        <time>2012-01-24T09:43:11Z</time>
      </trkpt>
      <trkpt lat="45.67932" lon="6.5479">
        <ele>1450.426</ele>
        <time>2012-01-24T09:43:21Z</time>
      </trkpt>
      <trkpt lat="45.67932" lon="6.5479">
        <ele>1450.505</ele>
        <time>2012-01-24T09:43:31Z</time>
      </trkpt>
      <trkpt lat="45.67932" lon="6.5479">
        <ele>1450.945</ele>
        <time>2012-01-24T09:43:41Z</time>
      </trkpt>
      <trkpt lat="45.67932" lon="6.5479">
        <ele>1450.372</ele>
        <time>2012-01-24T09:43:51Z</time>
      </trkpt>
      <trkpt lat="45.67932" lon="6.5479">
        <ele>1450.533</ele>
        <time>2012-01-24T09:44:01Z</time>
      </trkpt>
      <trkpt lat="45.67932" lon="6.5479">
        <ele>1450.178</ele>
        <time>2012-01-24T09:44:11Z</time>
      </trkpt>
      <trkpt lat="45.67932" lon="6.5479">
        <ele>1450.329</ele>
        <time>2012-01-24T09:44:21Z</time>
      </trkpt>
      <trkpt lat="45.67932" lon="6.5479">
        <ele>1450.528</ele>
        <time>2012-01-24T09:44:31Z</time>
      </trkpt>
      <trkpt lat="45.67932" lon="6.5479">
        <ele>1450.122</ele>
        <time>2012-01-24T09:44:41Z</time>
      </trkpt>
      <trkpt lat="45.67932" lon="6.5479">
        <ele>1450.197</ele>
        <time>2012-01-24T09:44:51Z</time>
      </trkpt>
      <trkpt lat="45.67932" lon="6.5479">
        <ele>1450.199</ele>
        <time>2012-01-24T09:45:01Z</time>
      </trkpt>
      <trkpt lat="45.67932" lon="6.5479">
        <ele>1450.156</ele>
        <time>2012-01-24T09:45:11Z</time>
      </trkpt>
      <trkpt lat="45.67932" lon="6.5479">
        <ele>1449.704</ele>
        <time>2012-01-24T09:45:21Z</time>
      </trkpt>
      <trkpt lat="45.67932" lon="6.5479">
        <ele>1449.373</ele>
        <time>2012-01-24T09:45:31Z</time>
      </trkpt>
      <trkpt lat="45.67932" lon="6.5479">
        <ele>1449.685</ele>
        <time>2012-01-24T09:45:41Z</time>
      </trkpt>
      <trkpt lat="45.67932" lon="6.5479">
        <ele>1449.487</ele>
        <time>2012-01-24T09:45:51Z</time>
      </trkpt>
      <trkpt lat="45.67932" lon="6.5479">
        <ele>1449.651</ele>
        <time>2012-01-24T09:46:01Z</time>
      </trkpt>
      <trkpt lat="45.67931" lon="6.5479">
        <ele>1449.134</ele>
        <time>2012-01-24T09:46:11Z</time>
      </trkpt>
      <trkpt lat="45.67931" lon="6.5479">
        <ele>1449.167</ele>
        <time>2012-01-24T09:46:21Z</time>
      </trkpt>
      <trkpt lat="45.67932" lon="6.5479">
        <ele>1449.241</ele>
        <time>2012-01-24T09:46:31Z</time>
      </trkpt>
      <trkpt lat="45.67931" lon="6.54791">
        <ele>1449.662</ele>
        <time>2012-01-24T09:46:41Z</time>
      </trkpt>
      <trkpt lat="45.67931" lon="6.54791">
        <ele>1449.121</ele>
        <time>2012-01-24T09:46:51Z</time>
      </trkpt>
      <trkpt lat="45.67931" lon="6.54791">
        <ele>1448.488</ele>
        <time>2012-01-24T09:47:01Z</time>
      </trkpt>
      <trkpt lat="45.67931" lon="6.54791">
        <ele>1448.778</ele>
        <time>2012-01-24T09:47:11Z</time>
      </trkpt>
      <trkpt lat="45.67931" lon="6.54791">
        <ele>1448.487</ele>
        <time>2012-01-24T09:47:21Z</time>
      </trkpt>
      <trkpt lat="45.67931" lon="6.54791">
        <ele>1448.803</ele>
        <time>2012-01-24T09:47:31Z</time>
      </trkpt>
      <trkpt lat="45.67931" lon="6.54791">
        <ele>1448.598</ele>
        <time>2012-01-24T09:47:41Z</time>
      </trkpt>
      <trkpt lat="45.67931" lon="6.54791">
        <ele>1448.329</ele>
        <time>2012-01-24T09:47:51Z</time>
      </trkpt>
      <trkpt lat="45.67932" lon="6.54791">
        <ele>1448.319</ele>
        <time>2012-01-24T09:48:01Z</time>
      </trkpt>
      <trkpt lat="45.67931" lon="6.54791">
        <ele>1448.015</ele>
        <time>2012-01-24T09:48:11Z</time>
      </trkpt>
      <trkpt lat="45.67931" lon="6.54791">
        <ele>1448.206</ele>
        <time>2012-01-24T09:48:21Z</time>
      </trkpt>
      <trkpt lat="45.67932" lon="6.54791">
        <ele>1447.996</ele>
        <time>2012-01-24T09:48:31Z</time>
      </trkpt>
      <trkpt lat="45.67931" lon="6.54791">
        <ele>1447.672</ele>
        <time>2012-01-24T09:48:41Z</time>
      </trkpt>
      <trkpt lat="45.67931" lon="6.54791">
        <ele>1447.447</ele>
        <time>2012-01-24T09:48:51Z</time>
      </trkpt>
      <trkpt lat="45.67931" lon="6.54791">
        <ele>1447.822</ele>
        <time>2012-01-24T09:49:01Z</time>
      </trkpt>
      <trkpt lat="45.67931" lon="6.54791">
        <ele>1447.363</ele>
        <time>2012-01-24T09:49:11Z</time>
      </trkpt>
      <trkpt lat="45.67932" lon="6.54791">
        <ele>1446.989</ele>
        <time>2012-01-24T09:49:21Z</time>
      </trkpt>
      <trkpt lat="45.67932" lon="6.54791">
        <ele>1447.191</ele>
        <time>2012-01-24T09:49:31Z</time>
      </trkpt>
      <trkpt lat="45.67932" lon="6.54791">
        <ele>1447.398</ele>
        <time>2012-01-24T09:49:41Z</time>
      </trkpt>
      <trkpt lat="45.67932" lon="6.54791">
        <ele>1447.24</ele>
        <time>2012-01-24T09:49:51Z</time>
      </trkpt>
      <trkpt lat="45.67932" lon="6.54791">
        <ele>1446.421</ele>
        <time>2012-01-24T09:50:01Z</time>
      </trkpt>
      <trkpt lat="45.67932" lon="6.54791">
        <ele>1446.673</ele>
        <time>2012-01-24T09:50:11Z</time>
      </trkpt>
      <trkpt lat="45.67932" lon="6.54791">
        <ele>1446.614</ele>
        <time>2012-01-24T09:50:21Z</time>
      </trkpt>
      <trkpt lat="45.67932" lon="6.54791">
        <ele>1446.889</ele>
        <time>2012-01-24T09:50:31Z</time>
      </trkpt>
      <trkpt lat="45.67932" lon="6.54791">
        <ele>1446.363</ele>
        <time>2012-01-24T09:50:41Z</time>
      </trkpt>
      <trkpt lat="45.67932" lon="6.54791">
        <ele>1446.427</ele>
        <time>2012-01-24T09:50:51Z</time>
      </trkpt>
      <trkpt lat="45.67932" lon="6.54791">
        <ele>1446.119</ele>
        <time>2012-01-24T09:51:01Z</time>
      </trkpt>
      <trkpt lat="45.67932" lon="6.54791">
        <ele>1446.412</ele>
        <time>2012-01-24T09:51:11Z</time>
      </trkpt>
      <trkpt lat="45.67932" lon="6.54791">
        <ele>1446.078</ele>
        <time>2012-01-24T09:51:21Z</time>
      </trkpt>
      <trkpt lat="45.67932" lon="6.54791">
        <ele>1446.131</ele>
        <time>2012-01-24T09:51:31Z</time>
      </trkpt>
      <trkpt lat="45.67932" lon="6.54792">
        <ele>1445.924</ele>
        <time>2012-01-24T09:51:41Z</time>
      </trkpt>
      <trkpt lat="45.67938" lon="6.548">
        <ele>1446.956</ele>
        <time>2012-01-24T09:51:51Z</time>
      </trkpt>
      <trkpt lat="45.67943" lon="6.54806">
        <ele>1447.408</ele>
        <time>2012-01-24T09:52:01Z</time>
      </trkpt>
      <trkpt lat="45.67946" lon="6.54813">
        <ele>1448.199</ele>
        <time>2012-01-24T09:52:11Z</time>
      </trkpt>
      <trkpt lat="45.6795" lon="6.5482">
        <ele>1448.938</ele>
        <time>2012-01-24T09:52:21Z</time>
      </trkpt>
      <trkpt lat="45.67953" lon="6.54826">
        <ele>1449.385</ele>
        <time>2012-01-24T09:52:31Z</time>
      </trkpt>
      <trkpt lat="45.67956" lon="6.54832">
        <ele>1449.899</ele>
        <time>2012-01-24T09:52:41Z</time>
      </trkpt>
      <trkpt lat="45.67958" lon="6.54835">
        <ele>1450.322</ele>
        <time>2012-01-24T09:52:51Z</time>
      </trkpt>
      <trkpt lat="45.67958" lon="6.54835">
        <ele>1450.229</ele>
        <time>2012-01-24T09:53:01Z</time>
      </trkpt>
      <trkpt lat="45.67958" lon="6.54835">
        <ele>1449.661</ele>
        <time>2012-01-24T09:53:11Z</time>
      </trkpt>
      <trkpt lat="45.67958" lon="6.54835">
        <ele>1449.748</ele>
        <time>2012-01-24T09:53:21Z</time>
      </trkpt>
      <trkpt lat="45.67958" lon="6.54835">
        <ele>1449.893</ele>
        <time>2012-01-24T09:53:31Z</time>
      </trkpt>
      <trkpt lat="45.67958" lon="6.54835">
        <ele>1449.607</ele>
        <time>2012-01-24T09:53:41Z</time>
      </trkpt>
      <trkpt lat="45.67958" lon="6.54835">
        <ele>1449.686</ele>
        <time>2012-01-24T09:53:51Z</time>
      </trkpt>
      <trkpt lat="45.67958" lon="6.54835">
        <ele>1449.901</ele>
        <time>2012-01-24T09:54:01Z</time>
      </trkpt>
      <trkpt lat="45.67959" lon="6.54837">
        <ele>1449.869</ele>
        <time>2012-01-24T09:54:11Z</time>
      </trkpt>
      <trkpt lat="45.67963" lon="6.54841">
        <ele>1450.002</ele>
        <time>2012-01-24T09:54:21Z</time>
      </trkpt>
      <trkpt lat="45.67968" lon="6.54847">
        <ele>1450.707</ele>
        <time>2012-01-24T09:54:31Z</time>
      </trkpt>
      <trkpt lat="45.67972" lon="6.54852">
        <ele>1451.93</ele>
        <time>2012-01-24T09:54:41Z</time>
      </trkpt>
      <trkpt lat="45.67978" lon="6.54857">
        <ele>1452.043</ele>
        <time>2012-01-24T09:54:51Z</time>
      </trkpt>
      <trkpt lat="45.67984" lon="6.54858">
        <ele>1452.639</ele>
        <time>2012-01-24T09:55:01Z</time>
      </trkpt>
      <trkpt lat="45.67989" lon="6.54859">
        <ele>1452.873</ele>
        <time>2012-01-24T09:55:11Z</time>
      </trkpt>
      <trkpt lat="45.67994" lon="6.54863">
        <ele>1453.638</ele>
        <time>2012-01-24T09:55:21Z</time>
      </trkpt>
      <trkpt lat="45.67999" lon="6.54869">
        <ele>1454.041</ele>
        <time>2012-01-24T09:55:31Z</time>
      </trkpt>
      <trkpt lat="45.68003" lon="6.54876">
        <ele>1454.552</ele>
        <time>2012-01-24T09:55:41Z</time>
      </trkpt>
      <trkpt lat="45.68007" lon="6.54882">
        <ele>1455.003</ele>
        <time>2012-01-24T09:55:51Z</time>
      </trkpt>
      <trkpt lat="45.68011" lon="6.54887">
        <ele>1456.242</ele>
        <time>2012-01-24T09:56:01Z</time>
      </trkpt>
      <trkpt lat="45.68014" lon="6.54889">
        <ele>1448.868</ele>
        <time>2012-01-24T09:56:11Z</time>
      </trkpt>
      <trkpt lat="45.68016" lon="6.54892">
        <ele>1457.117</ele>
        <time>2012-01-24T09:56:21Z</time>
      </trkpt>
      <trkpt lat="45.68021" lon="6.54899">
        <ele>1457.624</ele>
        <time>2012-01-24T09:56:31Z</time>
      </trkpt>
      <trkpt lat="45.68025" lon="6.54905">
        <ele>1458.646</ele>
        <time>2012-01-24T09:56:41Z</time>
      </trkpt>
      <trkpt lat="45.6803" lon="6.54913">
        <ele>1459.524</ele>
        <time>2012-01-24T09:56:51Z</time>
      </trkpt>
      <trkpt lat="45.68035" lon="6.54918">
        <ele>1460.391</ele>
        <time>2012-01-24T09:57:01Z</time>
      </trkpt>
      <trkpt lat="45.68042" lon="6.54923">
        <ele>1460.931</ele>
        <time>2012-01-24T09:57:11Z</time>
      </trkpt>
      <trkpt lat="45.68049" lon="6.54926">
        <ele>1461.049</ele>
        <time>2012-01-24T09:57:21Z</time>
      </trkpt>
      <trkpt lat="45.68055" lon="6.54929">
        <ele>1462.138</ele>
        <time>2012-01-24T09:57:31Z</time>
      </trkpt>
      <trkpt lat="45.68061" lon="6.54933">
        <ele>1462.281</ele>
        <time>2012-01-24T09:57:41Z</time>
      </trkpt>
      <trkpt lat="45.68068" lon="6.54937">
        <ele>1462.788</ele>
        <time>2012-01-24T09:57:51Z</time>
      </trkpt>
      <trkpt lat="45.68073" lon="6.54942">
        <ele>1463.667</ele>
        <time>2012-01-24T09:58:01Z</time>
      </trkpt>
      <trkpt lat="45.6808" lon="6.54949">
        <ele>1464.416</ele>
        <time>2012-01-24T09:58:11Z</time>
      </trkpt>
      <trkpt lat="45.68084" lon="6.54953">
        <ele>1464.789</ele>
        <time>2012-01-24T09:58:21Z</time>
      </trkpt>
      <trkpt lat="45.68087" lon="6.54959">
        <ele>1465.678</ele>
        <time>2012-01-24T09:58:31Z</time>
      </trkpt>
      <trkpt lat="45.68094" lon="6.54961">
        <ele>1466.242</ele>
        <time>2012-01-24T09:58:41Z</time>
      </trkpt>
      <trkpt lat="45.68093" lon="6.54962">
        <ele>1466.474</ele>
        <time>2012-01-24T09:58:51Z</time>
      </trkpt>
      <trkpt lat="45.68092" lon="6.54963">
        <ele>1465.972</ele>
        <time>2012-01-24T09:59:01Z</time>
      </trkpt>
      <trkpt lat="45.68092" lon="6.54963">
        <ele>1465.566</ele>
        <time>2012-01-24T09:59:11Z</time>
      </trkpt>
      <trkpt lat="45.68092" lon="6.54963">
        <ele>1465.826</ele>
        <time>2012-01-24T09:59:21Z</time>
      </trkpt>
      <trkpt lat="45.68092" lon="6.54963">
        <ele>1465.791</ele>
        <time>2012-01-24T09:59:31Z</time>
      </trkpt>
      <trkpt lat="45.68093" lon="6.54964">
        <ele>1465.737</ele>
        <time>2012-01-24T09:59:41Z</time>
      </trkpt>
      <trkpt lat="45.68093" lon="6.54963">
        <ele>1466.09</ele>
        <time>2012-01-24T09:59:51Z</time>
      </trkpt>
      <trkpt lat="45.68093" lon="6.54964">
        <ele>1461.257</ele>
        <time>2012-01-24T10:00:01Z</time>
      </trkpt>
      <trkpt lat="45.6809" lon="6.54965">
        <ele>1465.643</ele>
        <time>2012-01-24T10:00:11Z</time>
      </trkpt>
      <trkpt lat="45.6809" lon="6.54965">
        <ele>1465.643</ele>
        <time>2012-01-24T10:00:21Z</time>
      </trkpt>
      <trkpt lat="45.68089" lon="6.54965">
        <ele>1465.157</ele>
        <time>2012-01-24T10:00:31Z</time>
      </trkpt>
      <trkpt lat="45.68089" lon="6.54965">
        <ele>1465.749</ele>
        <time>2012-01-24T10:00:41Z</time>
      </trkpt>
      <trkpt lat="45.68089" lon="6.54965">
        <ele>1465.059</ele>
        <time>2012-01-24T10:00:51Z</time>
      </trkpt>
      <trkpt lat="45.68089" lon="6.54965">
        <ele>1465.342</ele>
        <time>2012-01-24T10:01:01Z</time>
      </trkpt>
      <trkpt lat="45.68089" lon="6.54965">
        <ele>1465.582</ele>
        <time>2012-01-24T10:01:11Z</time>
      </trkpt>
      <trkpt lat="45.6809" lon="6.54965">
        <ele>1465.315</ele>
        <time>2012-01-24T10:01:21Z</time>
      </trkpt>
      <trkpt lat="45.6809" lon="6.54965">
        <ele>1465.677</ele>
        <time>2012-01-24T10:01:31Z</time>
      </trkpt>
      <trkpt lat="45.6809" lon="6.54965">
        <ele>1465.371</ele>
        <time>2012-01-24T10:01:41Z</time>
      </trkpt>
      <trkpt lat="45.6809" lon="6.54965">
        <ele>1465.866</ele>
        <time>2012-01-24T10:01:51Z</time>
      </trkpt>
      <trkpt lat="45.68098" lon="6.54973">
        <ele>1466.888</ele>
        <time>2012-01-24T10:02:01Z</time>
      </trkpt>
      <trkpt lat="45.68105" lon="6.54978">
        <ele>1466.918</ele>
        <time>2012-01-24T10:02:11Z</time>
      </trkpt>
      <trkpt lat="45.68111" lon="6.54986">
        <ele>1467.775</ele>
        <time>2012-01-24T10:02:21Z</time>
      </trkpt>
      <trkpt lat="45.68117" lon="6.5499">
        <ele>1468.5</ele>
        <time>2012-01-24T10:02:31Z</time>
      </trkpt>
      <trkpt lat="45.68122" lon="6.54999">
        <ele>1469.428</ele>
        <time>2012-01-24T10:02:41Z</time>
      </trkpt>
      <trkpt lat="45.68126" lon="6.55005">
        <ele>1469.792</ele>
        <time>2012-01-24T10:02:51Z</time>
      </trkpt>
      <trkpt lat="45.68132" lon="6.55009">
        <ele>1469.952</ele>
        <time>2012-01-24T10:03:01Z</time>
      </trkpt>
      <trkpt lat="45.68134" lon="6.55011">
        <ele>1470.674</ele>
        <time>2012-01-24T10:03:11Z</time>
      </trkpt>
      <trkpt lat="45.68139" lon="6.55017">
        <ele>1471.453</ele>
        <time>2012-01-24T10:03:21Z</time>
      </trkpt>
      <trkpt lat="45.68145" lon="6.55019">
        <ele>1471.565</ele>
        <time>2012-01-24T10:03:31Z</time>
      </trkpt>
      <trkpt lat="45.6815" lon="6.55025">
        <ele>1472.554</ele>
        <time>2012-01-24T10:03:41Z</time>
      </trkpt>
      <trkpt lat="45.68154" lon="6.55029">
        <ele>1473.031</ele>
        <time>2012-01-24T10:03:51Z</time>
      </trkpt>
      <trkpt lat="45.6816" lon="6.55032">
        <ele>1473.409</ele>
        <time>2012-01-24T10:04:01Z</time>
      </trkpt>
      <trkpt lat="45.68165" lon="6.5504">
        <ele>1474.417</ele>
        <time>2012-01-24T10:04:11Z</time>
      </trkpt>
      <trkpt lat="45.6817" lon="6.55046">
        <ele>1474.667</ele>
        <time>2012-01-24T10:04:21Z</time>
      </trkpt>
      <trkpt lat="45.68175" lon="6.55053">
        <ele>1475.177</ele>
        <time>2012-01-24T10:04:31Z</time>
      </trkpt>
      <trkpt lat="45.68179" lon="6.55058">
        <ele>1475.672</ele>
        <time>2012-01-24T10:04:41Z</time>
      </trkpt>
      <trkpt lat="45.68184" lon="6.55061">
        <ele>1476.41</ele>
        <time>2012-01-24T10:04:51Z</time>
      </trkpt>
      <trkpt lat="45.68193" lon="6.55062">
        <ele>1477.205</ele>
        <time>2012-01-24T10:05:01Z</time>
      </trkpt>
      <trkpt lat="45.68198" lon="6.5507">
        <ele>1478.137</ele>
        <time>2012-01-24T10:05:11Z</time>
      </trkpt>
      <trkpt lat="45.68205" lon="6.55073">
        <ele>1477.857</ele>
        <time>2012-01-24T10:05:21Z</time>
      </trkpt>
      <trkpt lat="45.68212" lon="6.55076">
        <ele>1478.801</ele>
        <time>2012-01-24T10:05:31Z</time>
      </trkpt>
      <trkpt lat="45.68217" lon="6.55075">
        <ele>1480.189</ele>
        <time>2012-01-24T10:05:41Z</time>
      </trkpt>
      <trkpt lat="45.68223" lon="6.55076">
        <ele>1480.733</ele>
        <time>2012-01-24T10:05:51Z</time>
      </trkpt>
      <trkpt lat="45.68228" lon="6.55077">
        <ele>1481.087</ele>
        <time>2012-01-24T10:06:01Z</time>
      </trkpt>
      <trkpt lat="45.68232" lon="6.55075">
        <ele>1481.588</ele>
        <time>2012-01-24T10:06:11Z</time>
      </trkpt>
      <trkpt lat="45.68238" lon="6.55074">
        <ele>1482.578</ele>
        <time>2012-01-24T10:06:21Z</time>
      </trkpt>
      <trkpt lat="45.68244" lon="6.55072">
        <ele>1483.021</ele>
        <time>2012-01-24T10:06:31Z</time>
      </trkpt>
      <trkpt lat="45.68249" lon="6.5507">
        <ele>1483.606</ele>
        <time>2012-01-24T10:06:41Z</time>
      </trkpt>
      <trkpt lat="45.6825" lon="6.55067">
        <ele>1483.267</ele>
        <time>2012-01-24T10:06:51Z</time>
      </trkpt>
      <trkpt lat="45.6825" lon="6.55067">
        <ele>1482.078</ele>
        <time>2012-01-24T10:07:01Z</time>
      </trkpt>
      <trkpt lat="45.68247" lon="6.55064">
        <ele>1487.558</ele>
        <time>2012-01-24T10:07:11Z</time>
      </trkpt>
      <trkpt lat="45.68247" lon="6.5506">
        <ele>1483.225</ele>
        <time>2012-01-24T10:07:21Z</time>
      </trkpt>
      <trkpt lat="45.68248" lon="6.55061">
        <ele>1483.575</ele>
        <time>2012-01-24T10:07:31Z</time>
      </trkpt>
      <trkpt lat="45.68248" lon="6.55061">
        <ele>1483.604</ele>
        <time>2012-01-24T10:07:41Z</time>
      </trkpt>
      <trkpt lat="45.68251" lon="6.55061">
        <ele>1483.686</ele>
        <time>2012-01-24T10:07:51Z</time>
      </trkpt>
      <trkpt lat="45.68248" lon="6.55063">
        <ele>1483.152</ele>
        <time>2012-01-24T10:08:01Z</time>
      </trkpt>
      <trkpt lat="45.68256" lon="6.55064">
        <ele>1484.558</ele>
        <time>2012-01-24T10:08:11Z</time>
      </trkpt>
      <trkpt lat="45.68263" lon="6.55066">
        <ele>1484.792</ele>
        <time>2012-01-24T10:08:21Z</time>
      </trkpt>
      <trkpt lat="45.68267" lon="6.55063">
        <ele>1485.016</ele>
        <time>2012-01-24T10:08:31Z</time>
      </trkpt>
      <trkpt lat="45.68269" lon="6.55057">
        <ele>1485.048</ele>
        <time>2012-01-24T10:08:41Z</time>
      </trkpt>
      <trkpt lat="45.68269" lon="6.55052">
        <ele>1486.251</ele>
        <time>2012-01-24T10:08:51Z</time>
      </trkpt>
      <trkpt lat="45.68269" lon="6.55048">
        <ele>1485.827</ele>
        <time>2012-01-24T10:09:01Z</time>
      </trkpt>
      <trkpt lat="45.68269" lon="6.55039">
        <ele>1486.511</ele>
        <time>2012-01-24T10:09:11Z</time>
      </trkpt>
      <trkpt lat="45.68266" lon="6.5503">
        <ele>1486.98</ele>
        <time>2012-01-24T10:09:21Z</time>
      </trkpt>
      <trkpt lat="45.68264" lon="6.55023">
        <ele>1486.945</ele>
        <time>2012-01-24T10:09:31Z</time>
      </trkpt>
      <trkpt lat="45.68264" lon="6.55023">
        <ele>1487.253</ele>
        <time>2012-01-24T10:09:41Z</time>
      </trkpt>
      <trkpt lat="45.68263" lon="6.55021">
        <ele>1487.421</ele>
        <time>2012-01-24T10:09:51Z</time>
      </trkpt>
      <trkpt lat="45.68263" lon="6.55021">
        <ele>1486.907</ele>
        <time>2012-01-24T10:10:01Z</time>
      </trkpt>
      <trkpt lat="45.68262" lon="6.55019">
        <ele>1487.294</ele>
        <time>2012-01-24T10:10:11Z</time>
      </trkpt>
      <trkpt lat="45.6826" lon="6.55012">
        <ele>1487.782</ele>
        <time>2012-01-24T10:10:21Z</time>
      </trkpt>
      <trkpt lat="45.68257" lon="6.55006">
        <ele>1488.471</ele>
        <time>2012-01-24T10:10:31Z</time>
      </trkpt>
      <trkpt lat="45.68256" lon="6.54998">
        <ele>1488.59</ele>
        <time>2012-01-24T10:10:41Z</time>
      </trkpt>
      <trkpt lat="45.68253" lon="6.54991">
        <ele>1489.054</ele>
        <time>2012-01-24T10:10:51Z</time>
      </trkpt>
      <trkpt lat="45.68254" lon="6.54988">
        <ele>1489.018</ele>
        <time>2012-01-24T10:11:01Z</time>
      </trkpt>
      <trkpt lat="45.6825" lon="6.54983">
        <ele>1489.903</ele>
        <time>2012-01-24T10:11:11Z</time>
      </trkpt>
      <trkpt lat="45.68245" lon="6.54974">
        <ele>1489.969</ele>
        <time>2012-01-24T10:11:21Z</time>
      </trkpt>
      <trkpt lat="45.68243" lon="6.54969">
        <ele>1490.191</ele>
        <time>2012-01-24T10:11:31Z</time>
      </trkpt>
      <trkpt lat="45.68239" lon="6.54961">
        <ele>1491.336</ele>
        <time>2012-01-24T10:11:41Z</time>
      </trkpt>
      <trkpt lat="45.68239" lon="6.54952">
        <ele>1491.385</ele>
        <time>2012-01-24T10:11:51Z</time>
      </trkpt>
      <trkpt lat="45.68239" lon="6.54941">
        <ele>1491.746</ele>
        <time>2012-01-24T10:12:01Z</time>
      </trkpt>
      <trkpt lat="45.68239" lon="6.54933">
        <ele>1492.52</ele>
        <time>2012-01-24T10:12:11Z</time>
      </trkpt>
      <trkpt lat="45.6824" lon="6.54929">
        <ele>1491.986</ele>
        <time>2012-01-24T10:12:21Z</time>
      </trkpt>
      <trkpt lat="45.6824" lon="6.54929">
        <ele>1492.191</ele>
        <time>2012-01-24T10:12:31Z</time>
      </trkpt>
      <trkpt lat="45.6824" lon="6.54929">
        <ele>1492.203</ele>
        <time>2012-01-24T10:12:41Z</time>
      </trkpt>
      <trkpt lat="45.6824" lon="6.54929">
        <ele>1491.956</ele>
        <time>2012-01-24T10:12:51Z</time>
      </trkpt>
      <trkpt lat="45.6824" lon="6.54929">
        <ele>1491.715</ele>
        <time>2012-01-24T10:13:01Z</time>
      </trkpt>
      <trkpt lat="45.6824" lon="6.54929">
        <ele>1491.968</ele>
        <time>2012-01-24T10:13:11Z</time>
      </trkpt>
      <trkpt lat="45.68243" lon="6.54926">
        <ele>1491.8</ele>
        <time>2012-01-24T10:13:21Z</time>
      </trkpt>
      <trkpt lat="45.68243" lon="6.54926">
        <ele>1491.822</ele>
        <time>2012-01-24T10:13:31Z</time>
      </trkpt>
      <trkpt lat="45.68243" lon="6.54926">
        <ele>1491.938</ele>
        <time>2012-01-24T10:13:41Z</time>
      </trkpt>
      <trkpt lat="45.68243" lon="6.54926">
        <ele>1491.59</ele>
        <time>2012-01-24T10:13:51Z</time>
      </trkpt>
      <trkpt lat="45.68243" lon="6.54926">
        <ele>1491.418</ele>
        <time>2012-01-24T10:14:01Z</time>
      </trkpt>
      <trkpt lat="45.68243" lon="6.54926">
        <ele>1491.695</ele>
        <time>2012-01-24T10:14:11Z</time>
      </trkpt>
      <trkpt lat="45.68242" lon="6.54926">
        <ele>1491.636</ele>
        <time>2012-01-24T10:14:21Z</time>
      </trkpt>
      <trkpt lat="45.68243" lon="6.54926">
        <ele>1491.303</ele>
        <time>2012-01-24T10:14:31Z</time>
      </trkpt>
      <trkpt lat="45.68242" lon="6.54927">
        <ele>1491.449</ele>
        <time>2012-01-24T10:14:41Z</time>
      </trkpt>
      <trkpt lat="45.68242" lon="6.54927">
        <ele>1491.216</ele>
        <time>2012-01-24T10:14:51Z</time>
      </trkpt>
      <trkpt lat="45.68242" lon="6.54927">
        <ele>1491.082</ele>
        <time>2012-01-24T10:15:01Z</time>
      </trkpt>
      <trkpt lat="45.68242" lon="6.54927">
        <ele>1491.261</ele>
        <time>2012-01-24T10:15:11Z</time>
      </trkpt>
      <trkpt lat="45.68242" lon="6.54927">
        <ele>1491.473</ele>
        <time>2012-01-24T10:15:21Z</time>
      </trkpt>
      <trkpt lat="45.68242" lon="6.54927">
        <ele>1491.247</ele>
        <time>2012-01-24T10:15:31Z</time>
      </trkpt>
      <trkpt lat="45.68241" lon="6.54928">
        <ele>1490.975</ele>
        <time>2012-01-24T10:15:41Z</time>
      </trkpt>
      <trkpt lat="45.68241" lon="6.54931">
        <ele>1490.724</ele>
        <time>2012-01-24T10:15:51Z</time>
      </trkpt>
      <trkpt lat="45.68241" lon="6.54931">
        <ele>1490.977</ele>
        <time>2012-01-24T10:16:01Z</time>
      </trkpt>
      <trkpt lat="45.68241" lon="6.54932">
        <ele>1490.919</ele>
        <time>2012-01-24T10:16:11Z</time>
      </trkpt>
      <trkpt lat="45.68241" lon="6.54932">
        <ele>1490.925</ele>
        <time>2012-01-24T10:16:21Z</time>
      </trkpt>
      <trkpt lat="45.68241" lon="6.54932">
        <ele>1491.278</ele>
        <time>2012-01-24T10:16:31Z</time>
      </trkpt>
      <trkpt lat="45.68241" lon="6.54931">
        <ele>1491.064</ele>
        <time>2012-01-24T10:16:41Z</time>
      </trkpt>
      <trkpt lat="45.68241" lon="6.54931">
        <ele>1491.616</ele>
        <time>2012-01-24T10:16:51Z</time>
      </trkpt>
      <trkpt lat="45.68242" lon="6.5493">
        <ele>1491.797</ele>
        <time>2012-01-24T10:17:01Z</time>
      </trkpt>
      <trkpt lat="45.68237" lon="6.54926">
        <ele>1493.365</ele>
        <time>2012-01-24T10:17:11Z</time>
      </trkpt>
      <trkpt lat="45.68234" lon="6.54917">
        <ele>1493.857</ele>
        <time>2012-01-24T10:17:21Z</time>
      </trkpt>
      <trkpt lat="45.68229" lon="6.54911">
        <ele>1495.194</ele>
        <time>2012-01-24T10:17:31Z</time>
      </trkpt>
      <trkpt lat="45.68223" lon="6.54903">
        <ele>1496.558</ele>
        <time>2012-01-24T10:17:41Z</time>
      </trkpt>
      <trkpt lat="45.6822" lon="6.549">
        <ele>1497.541</ele>
        <time>2012-01-24T10:17:51Z</time>
      </trkpt>
      <trkpt lat="45.68217" lon="6.54898">
        <ele>1497.871</ele>
        <time>2012-01-24T10:18:01Z</time>
      </trkpt>
      <trkpt lat="45.68218" lon="6.54891">
        <ele>1499.811</ele>
        <time>2012-01-24T10:18:11Z</time>
      </trkpt>
      <trkpt lat="45.68218" lon="6.54889">
        <ele>1500.158</ele>
        <time>2012-01-24T10:18:21Z</time>
      </trkpt>
      <trkpt lat="45.6822" lon="6.54885">
        <ele>1500.276</ele>
        <time>2012-01-24T10:18:31Z</time>
      </trkpt>
      <trkpt lat="45.68222" lon="6.54879">
        <ele>1500.907</ele>
        <time>2012-01-24T10:18:41Z</time>
      </trkpt>
      <trkpt lat="45.68218" lon="6.54877">
        <ele>1502.669</ele>
        <time>2012-01-24T10:18:51Z</time>
      </trkpt>
      <trkpt lat="45.68213" lon="6.54876">
        <ele>1503.223</ele>
        <time>2012-01-24T10:19:01Z</time>
      </trkpt>
      <trkpt lat="45.68207" lon="6.54872">
        <ele>1504.424</ele>
        <time>2012-01-24T10:19:11Z</time>
      </trkpt>
      <trkpt lat="45.68206" lon="6.54869">
        <ele>1505.384</ele>
        <time>2012-01-24T10:19:21Z</time>
      </trkpt>
      <trkpt lat="45.68202" lon="6.54864">
        <ele>1507.176</ele>
        <time>2012-01-24T10:19:31Z</time>
      </trkpt>
      <trkpt lat="45.68198" lon="6.54858">
        <ele>1506.936</ele>
        <time>2012-01-24T10:19:41Z</time>
      </trkpt>
      <trkpt lat="45.68194" lon="6.54855">
        <ele>1507.973</ele>
        <time>2012-01-24T10:19:51Z</time>
      </trkpt>
      <trkpt lat="45.68193" lon="6.54851">
        <ele>1508.929</ele>
        <time>2012-01-24T10:20:01Z</time>
      </trkpt>
      <trkpt lat="45.68191" lon="6.54848">
        <ele>1509.264</ele>
        <time>2012-01-24T10:20:11Z</time>
      </trkpt>
      <trkpt lat="45.68191" lon="6.54846">
        <ele>1510.523</ele>
        <time>2012-01-24T10:20:21Z</time>
      </trkpt>
      <trkpt lat="45.68187" lon="6.5485">
        <ele>1511.421</ele>
        <time>2012-01-24T10:20:31Z</time>
      </trkpt>
      <trkpt lat="45.68184" lon="6.5485">
        <ele>1512.534</ele>
        <time>2012-01-24T10:20:41Z</time>
      </trkpt>
      <trkpt lat="45.68175" lon="6.54853">
        <ele>1513.473</ele>
        <time>2012-01-24T10:20:51Z</time>
      </trkpt>
      <trkpt lat="45.68173" lon="6.54852">
        <ele>1514.351</ele>
        <time>2012-01-24T10:21:01Z</time>
      </trkpt>
      <trkpt lat="45.68169" lon="6.54854">
        <ele>1514.661</ele>
        <time>2012-01-24T10:21:11Z</time>
      </trkpt>
      <trkpt lat="45.68167" lon="6.54854">
        <ele>1516.06</ele>
        <time>2012-01-24T10:21:21Z</time>
      </trkpt>
      <trkpt lat="45.68167" lon="6.54855">
        <ele>1515.902</ele>
        <time>2012-01-24T10:21:31Z</time>
      </trkpt>
      <trkpt lat="45.68165" lon="6.54855">
        <ele>1516.359</ele>
        <time>2012-01-24T10:21:41Z</time>
      </trkpt>
      <trkpt lat="45.68165" lon="6.54855">
        <ele>1516.239</ele>
        <time>2012-01-24T10:21:51Z</time>
      </trkpt>
      <trkpt lat="45.68165" lon="6.54856">
        <ele>1516.657</ele>
        <time>2012-01-24T10:22:01Z</time>
      </trkpt>
      <trkpt lat="45.68165" lon="6.54856">
        <ele>1516.398</ele>
        <time>2012-01-24T10:22:11Z</time>
      </trkpt>
      <trkpt lat="45.68165" lon="6.54857">
        <ele>1516.377</ele>
        <time>2012-01-24T10:22:21Z</time>
      </trkpt>
      <trkpt lat="45.68165" lon="6.54857">
        <ele>1516.394</ele>
        <time>2012-01-24T10:22:31Z</time>
      </trkpt>
      <trkpt lat="45.68165" lon="6.54857">
        <ele>1516.535</ele>
        <time>2012-01-24T10:22:41Z</time>
      </trkpt>
      <trkpt lat="45.68165" lon="6.54857">
        <ele>1516.707</ele>
        <time>2012-01-24T10:22:51Z</time>
      </trkpt>
      <trkpt lat="45.68165" lon="6.54857">
        <ele>1516.607</ele>
        <time>2012-01-24T10:23:01Z</time>
      </trkpt>
      <trkpt lat="45.68165" lon="6.54857">
        <ele>1516.838</ele>
        <time>2012-01-24T10:23:11Z</time>
      </trkpt>
      <trkpt lat="45.68165" lon="6.54857">
        <ele>1516.953</ele>
        <time>2012-01-24T10:23:21Z</time>
      </trkpt>
      <trkpt lat="45.68165" lon="6.54857">
        <ele>1516.949</ele>
        <time>2012-01-24T10:23:31Z</time>
      </trkpt>
      <trkpt lat="45.68165" lon="6.54857">
        <ele>1516.312</ele>
        <time>2012-01-24T10:23:41Z</time>
      </trkpt>
      <trkpt lat="45.68165" lon="6.54857">
        <ele>1516.769</ele>
        <time>2012-01-24T10:23:51Z</time>
      </trkpt>
      <trkpt lat="45.68165" lon="6.54857">
        <ele>1516.863</ele>
        <time>2012-01-24T10:24:01Z</time>
      </trkpt>
      <trkpt lat="45.68165" lon="6.54857">
        <ele>1516.855</ele>
        <time>2012-01-24T10:24:11Z</time>
      </trkpt>
      <trkpt lat="45.68165" lon="6.54857">
        <ele>1517.014</ele>
        <time>2012-01-24T10:24:21Z</time>
      </trkpt>
      <trkpt lat="45.68165" lon="6.54857">
        <ele>1517.125</ele>
        <time>2012-01-24T10:24:31Z</time>
      </trkpt>
      <trkpt lat="45.68165" lon="6.54857">
        <ele>1517.116</ele>
        <time>2012-01-24T10:24:41Z</time>
      </trkpt>
      <trkpt lat="45.68164" lon="6.54858">
        <ele>1517.257</ele>
        <time>2012-01-24T10:24:51Z</time>
      </trkpt>
      <trkpt lat="45.68164" lon="6.54858">
        <ele>1516.865</ele>
        <time>2012-01-24T10:25:01Z</time>
      </trkpt>
      <trkpt lat="45.68164" lon="6.54858">
        <ele>1516.958</ele>
        <time>2012-01-24T10:25:11Z</time>
      </trkpt>
      <trkpt lat="45.68164" lon="6.54858">
        <ele>1517.063</ele>
        <time>2012-01-24T10:25:21Z</time>
      </trkpt>
      <trkpt lat="45.68164" lon="6.54858">
        <ele>1517.124</ele>
        <time>2012-01-24T10:25:31Z</time>
      </trkpt>
      <trkpt lat="45.68164" lon="6.54858">
        <ele>1516.914</ele>
        <time>2012-01-24T10:25:41Z</time>
      </trkpt>
      <trkpt lat="45.68164" lon="6.54858">
        <ele>1517.148</ele>
        <time>2012-01-24T10:25:51Z</time>
      </trkpt>
      <trkpt lat="45.68164" lon="6.54858">
        <ele>1517.496</ele>
        <time>2012-01-24T10:26:01Z</time>
      </trkpt>
      <trkpt lat="45.68164" lon="6.54858">
        <ele>1517.407</ele>
        <time>2012-01-24T10:26:11Z</time>
      </trkpt>
      <trkpt lat="45.68164" lon="6.54858">
        <ele>1517.229</ele>
        <time>2012-01-24T10:26:21Z</time>
      </trkpt>
      <trkpt lat="45.68164" lon="6.54858">
        <ele>1517.143</ele>
        <time>2012-01-24T10:26:31Z</time>
      </trkpt>
      <trkpt lat="45.68164" lon="6.54858">
        <ele>1517.491</ele>
        <time>2012-01-24T10:26:41Z</time>
      </trkpt>
      <trkpt lat="45.68164" lon="6.54858">
        <ele>1517.193</ele>
        <time>2012-01-24T10:26:51Z</time>
      </trkpt>
      <trkpt lat="45.68164" lon="6.54858">
        <ele>1517.459</ele>
        <time>2012-01-24T10:27:01Z</time>
      </trkpt>
      <trkpt lat="45.68162" lon="6.54852">
        <ele>1518.5</ele>
        <time>2012-01-24T10:27:11Z</time>
      </trkpt>
      <trkpt lat="45.68155" lon="6.54847">
        <ele>1519.301</ele>
        <time>2012-01-24T10:27:21Z</time>
      </trkpt>
      <trkpt lat="45.6815" lon="6.54845">
        <ele>1520.168</ele>
        <time>2012-01-24T10:27:31Z</time>
      </trkpt>
      <trkpt lat="45.68148" lon="6.54837">
        <ele>1521.115</ele>
        <time>2012-01-24T10:27:41Z</time>
      </trkpt>
      <trkpt lat="45.68144" lon="6.54828">
        <ele>1522.199</ele>
        <time>2012-01-24T10:27:51Z</time>
      </trkpt>
      <trkpt lat="45.68144" lon="6.54823">
        <ele>1522.519</ele>
        <time>2012-01-24T10:28:01Z</time>
      </trkpt>
      <trkpt lat="45.68143" lon="6.54818">
        <ele>1523.731</ele>
        <time>2012-01-24T10:28:11Z</time>
      </trkpt>
      <trkpt lat="45.68142" lon="6.54811">
        <ele>1525.327</ele>
        <time>2012-01-24T10:28:21Z</time>
      </trkpt>
      <trkpt lat="45.68138" lon="6.54808">
        <ele>1525.737</ele>
        <time>2012-01-24T10:28:31Z</time>
      </trkpt>
      <trkpt lat="45.68137" lon="6.54795">
        <ele>1525.756</ele>
        <time>2012-01-24T10:28:41Z</time>
      </trkpt>
      <trkpt lat="45.68133" lon="6.54787">
        <ele>1526.505</ele>
        <time>2012-01-24T10:28:51Z</time>
      </trkpt>
      <trkpt lat="45.68135" lon="6.5478">
        <ele>1526.81</ele>
        <time>2012-01-24T10:29:01Z</time>
      </trkpt>
      <trkpt lat="45.68137" lon="6.54773">
        <ele>1527.242</ele>
        <time>2012-01-24T10:29:11Z</time>
      </trkpt>
      <trkpt lat="45.68137" lon="6.54772">
        <ele>1526.913</ele>
        <time>2012-01-24T10:29:21Z</time>
      </trkpt>
      <trkpt lat="45.68139" lon="6.54765">
        <ele>1526.796</ele>
        <time>2012-01-24T10:29:31Z</time>
      </trkpt>
      <trkpt lat="45.6814" lon="6.54757">
        <ele>1527.872</ele>
        <time>2012-01-24T10:29:41Z</time>
      </trkpt>
      <trkpt lat="45.6814" lon="6.5475">
        <ele>1528.916</ele>
        <time>2012-01-24T10:29:51Z</time>
      </trkpt>
      <trkpt lat="45.68139" lon="6.54743">
        <ele>1529.706</ele>
        <time>2012-01-24T10:30:01Z</time>
      </trkpt>
      <trkpt lat="45.68137" lon="6.54736">
        <ele>1530.121</ele>
        <time>2012-01-24T10:30:11Z</time>
      </trkpt>
      <trkpt lat="45.68135" lon="6.54731">
        <ele>1529.744</ele>
        <time>2012-01-24T10:30:21Z</time>
      </trkpt>
      <trkpt lat="45.68136" lon="6.54729">
        <ele>1530.351</ele>
        <time>2012-01-24T10:30:31Z</time>
      </trkpt>
      <trkpt lat="45.68135" lon="6.54729">
        <ele>1529.987</ele>
        <time>2012-01-24T10:30:41Z</time>
      </trkpt>
      <trkpt lat="45.68134" lon="6.54726">
        <ele>1530.133</ele>
        <time>2012-01-24T10:30:51Z</time>
      </trkpt>
      <trkpt lat="45.68134" lon="6.54726">
        <ele>1530.051</ele>
        <time>2012-01-24T10:31:01Z</time>
      </trkpt>
      <trkpt lat="45.68134" lon="6.54726">
        <ele>1530.212</ele>
        <time>2012-01-24T10:31:11Z</time>
      </trkpt>
      <trkpt lat="45.68134" lon="6.54726">
        <ele>1530.375</ele>
        <time>2012-01-24T10:31:21Z</time>
      </trkpt>
      <trkpt lat="45.68134" lon="6.54726">
        <ele>1530.02</ele>
        <time>2012-01-24T10:31:31Z</time>
      </trkpt>
      <trkpt lat="45.68134" lon="6.54726">
        <ele>1530.374</ele>
        <time>2012-01-24T10:31:41Z</time>
      </trkpt>
      <trkpt lat="45.68133" lon="6.54726">
        <ele>1529.925</ele>
        <time>2012-01-24T10:31:51Z</time>
      </trkpt>
      <trkpt lat="45.68134" lon="6.54726">
        <ele>1530.329</ele>
        <time>2012-01-24T10:32:01Z</time>
      </trkpt>
      <trkpt lat="45.68134" lon="6.54726">
        <ele>1529.863</ele>
        <time>2012-01-24T10:32:11Z</time>
      </trkpt>
      <trkpt lat="45.68134" lon="6.54726">
        <ele>1530.301</ele>
        <time>2012-01-24T10:32:21Z</time>
      </trkpt>
      <trkpt lat="45.68134" lon="6.54726">
        <ele>1530.409</ele>
        <time>2012-01-24T10:32:31Z</time>
      </trkpt>
      <trkpt lat="45.68134" lon="6.54726">
        <ele>1529.661</ele>
        <time>2012-01-24T10:32:41Z</time>
      </trkpt>
      <trkpt lat="45.68134" lon="6.54726">
        <ele>1530.194</ele>
        <time>2012-01-24T10:32:51Z</time>
      </trkpt>
      <trkpt lat="45.68133" lon="6.54726">
        <ele>1530.149</ele>
        <time>2012-01-24T10:33:01Z</time>
      </trkpt>
      <trkpt lat="45.68134" lon="6.54726">
        <ele>1529.956</ele>
        <time>2012-01-24T10:33:11Z</time>
      </trkpt>
      <trkpt lat="45.68133" lon="6.54726">
        <ele>1530.472</ele>
        <time>2012-01-24T10:33:21Z</time>
      </trkpt>
      <trkpt lat="45.68133" lon="6.54726">
        <ele>1530.091</ele>
        <time>2012-01-24T10:33:31Z</time>
      </trkpt>
      <trkpt lat="45.68133" lon="6.54725">
        <ele>1530.289</ele>
        <time>2012-01-24T10:33:41Z</time>
      </trkpt>
      <trkpt lat="45.68134" lon="6.54724">
        <ele>1522.301</ele>
        <time>2012-01-24T10:33:51Z</time>
      </trkpt>
      <trkpt lat="45.68135" lon="6.54725">
        <ele>1530.467</ele>
        <time>2012-01-24T10:34:01Z</time>
      </trkpt>
      <trkpt lat="45.68135" lon="6.54725">
        <ele>1530.144</ele>
        <time>2012-01-24T10:34:11Z</time>
      </trkpt>
      <trkpt lat="45.68134" lon="6.54726">
        <ele>1530.354</ele>
        <time>2012-01-24T10:34:21Z</time>
      </trkpt>
      <trkpt lat="45.68134" lon="6.54726">
        <ele>1530.439</ele>
        <time>2012-01-24T10:34:31Z</time>
      </trkpt>
      <trkpt lat="45.68135" lon="6.54724">
        <ele>1530.273</ele>
        <time>2012-01-24T10:34:41Z</time>
      </trkpt>
      <trkpt lat="45.68135" lon="6.54724">
        <ele>1530.583</ele>
        <time>2012-01-24T10:34:51Z</time>
      </trkpt>
      <trkpt lat="45.68135" lon="6.54724">
        <ele>1530.761</ele>
        <time>2012-01-24T10:35:01Z</time>
      </trkpt>
      <trkpt lat="45.68135" lon="6.54724">
        <ele>1530.662</ele>
        <time>2012-01-24T10:35:11Z</time>
      </trkpt>
      <trkpt lat="45.68135" lon="6.54725">
        <ele>1530.258</ele>
        <time>2012-01-24T10:35:21Z</time>
      </trkpt>
      <trkpt lat="45.68135" lon="6.54726">
        <ele>1531.469</ele>
        <time>2012-01-24T10:35:31Z</time>
      </trkpt>
      <trkpt lat="45.68135" lon="6.54726">
        <ele>1531.686</ele>
        <time>2012-01-24T10:35:41Z</time>
      </trkpt>
      <trkpt lat="45.68133" lon="6.54727">
        <ele>1531.053</ele>
        <time>2012-01-24T10:35:51Z</time>
      </trkpt>
      <trkpt lat="45.68133" lon="6.54727">
        <ele>1531.142</ele>
        <time>2012-01-24T10:36:01Z</time>
      </trkpt>
      <trkpt lat="45.68133" lon="6.54727">
        <ele>1531.545</ele>
        <time>2012-01-24T10:36:11Z</time>
      </trkpt>
      <trkpt lat="45.68133" lon="6.54727">
        <ele>1530.687</ele>
        <time>2012-01-24T10:36:21Z</time>
      </trkpt>
      <trkpt lat="45.68133" lon="6.54727">
        <ele>1530.452</ele>
        <time>2012-01-24T10:36:31Z</time>
      </trkpt>
      <trkpt lat="45.68133" lon="6.54727">
        <ele>1530.815</ele>
        <time>2012-01-24T10:36:41Z</time>
      </trkpt>
      <trkpt lat="45.68133" lon="6.54727">
        <ele>1531.104</ele>
        <time>2012-01-24T10:36:51Z</time>
      </trkpt>
      <trkpt lat="45.68134" lon="6.54727">
        <ele>1530.985</ele>
        <time>2012-01-24T10:37:01Z</time>
      </trkpt>
      <trkpt lat="45.68134" lon="6.54727">
        <ele>1530.401</ele>
        <time>2012-01-24T10:37:11Z</time>
      </trkpt>
      <trkpt lat="45.68134" lon="6.54727">
        <ele>1530.891</ele>
        <time>2012-01-24T10:37:21Z</time>
      </trkpt>
      <trkpt lat="45.68133" lon="6.54727">
        <ele>1530.285</ele>
        <time>2012-01-24T10:37:31Z</time>
      </trkpt>
      <trkpt lat="45.68133" lon="6.54727">
        <ele>1530.556</ele>
        <time>2012-01-24T10:37:41Z</time>
      </trkpt>
      <trkpt lat="45.68134" lon="6.54726">
        <ele>1530.388</ele>
        <time>2012-01-24T10:37:51Z</time>
      </trkpt>
      <trkpt lat="45.68136" lon="6.54728">
        <ele>1530.705</ele>
        <time>2012-01-24T10:38:01Z</time>
      </trkpt>
      <trkpt lat="45.68137" lon="6.54729">
        <ele>1530.224</ele>
        <time>2012-01-24T10:38:11Z</time>
      </trkpt>
      <trkpt lat="45.68137" lon="6.54729">
        <ele>1530.225</ele>
        <time>2012-01-24T10:38:21Z</time>
      </trkpt>
      <trkpt lat="45.68137" lon="6.54729">
        <ele>1530.123</ele>
        <time>2012-01-24T10:38:31Z</time>
      </trkpt>
      <trkpt lat="45.68137" lon="6.54729">
        <ele>1530.443</ele>
        <time>2012-01-24T10:38:41Z</time>
      </trkpt>
      <trkpt lat="45.68139" lon="6.54727">
        <ele>1529.594</ele>
        <time>2012-01-24T10:38:51Z</time>
      </trkpt>
      <trkpt lat="45.68144" lon="6.54711">
        <ele>1525.315</ele>
        <time>2012-01-24T10:39:01Z</time>
      </trkpt>
      <trkpt lat="45.68151" lon="6.54702">
        <ele>1522.434</ele>
        <time>2012-01-24T10:39:11Z</time>
      </trkpt>
      <trkpt lat="45.68154" lon="6.54695">
        <ele>1520.59</ele>
        <time>2012-01-24T10:39:21Z</time>
      </trkpt>
      <trkpt lat="45.68156" lon="6.54691">
        <ele>1519.571</ele>
        <time>2012-01-24T10:39:31Z</time>
      </trkpt>
      <trkpt lat="45.68157" lon="6.5469">
        <ele>1519.439</ele>
        <time>2012-01-24T10:39:41Z</time>
      </trkpt>
      <trkpt lat="45.68157" lon="6.54691">
        <ele>1519.55</ele>
        <time>2012-01-24T10:39:51Z</time>
      </trkpt>
      <trkpt lat="45.68156" lon="6.54691">
        <ele>1519.568</ele>
        <time>2012-01-24T10:40:01Z</time>
      </trkpt>
      <trkpt lat="45.68156" lon="6.54691">
        <ele>1519.606</ele>
        <time>2012-01-24T10:40:11Z</time>
      </trkpt>
      <trkpt lat="45.68157" lon="6.5469">
        <ele>1519.134</ele>
        <time>2012-01-24T10:40:21Z</time>
      </trkpt>
      <trkpt lat="45.68155" lon="6.54686">
        <ele>1519.383</ele>
        <time>2012-01-24T10:40:31Z</time>
      </trkpt>
      <trkpt lat="45.68154" lon="6.54676">
        <ele>1520.152</ele>
        <time>2012-01-24T10:40:41Z</time>
      </trkpt>
      <trkpt lat="45.68154" lon="6.54666">
        <ele>1519.336</ele>
        <time>2012-01-24T10:40:51Z</time>
      </trkpt>
      <trkpt lat="45.68158" lon="6.54659">
        <ele>1519.664</ele>
        <time>2012-01-24T10:41:01Z</time>
      </trkpt>
      <trkpt lat="45.68163" lon="6.54653">
        <ele>1518.254</ele>
        <time>2012-01-24T10:41:11Z</time>
      </trkpt>
      <trkpt lat="45.68167" lon="6.54646">
        <ele>1515.234</ele>
        <time>2012-01-24T10:41:21Z</time>
      </trkpt>
      <trkpt lat="45.68172" lon="6.54644">
        <ele>1512.903</ele>
        <time>2012-01-24T10:41:31Z</time>
      </trkpt>
      <trkpt lat="45.68169" lon="6.54643">
        <ele>1514.616</ele>
        <time>2012-01-24T10:41:41Z</time>
      </trkpt>
      <trkpt lat="45.68169" lon="6.54643">
        <ele>1514.577</ele>
        <time>2012-01-24T10:41:51Z</time>
      </trkpt>
      <trkpt lat="45.68168" lon="6.54643">
        <ele>1514.773</ele>
        <time>2012-01-24T10:42:01Z</time>
      </trkpt>
      <trkpt lat="45.68167" lon="6.54643">
        <ele>1514.529</ele>
        <time>2012-01-24T10:42:11Z</time>
      </trkpt>
      <trkpt lat="45.68166" lon="6.54641">
        <ele>1514.828</ele>
        <time>2012-01-24T10:42:21Z</time>
      </trkpt>
      <trkpt lat="45.68166" lon="6.54641">
        <ele>1514.646</ele>
        <time>2012-01-24T10:42:31Z</time>
      </trkpt>
      <trkpt lat="45.68165" lon="6.54641">
        <ele>1514.797</ele>
        <time>2012-01-24T10:42:41Z</time>
      </trkpt>
      <trkpt lat="45.68164" lon="6.54642">
        <ele>1515.008</ele>
        <time>2012-01-24T10:42:51Z</time>
      </trkpt>
      <trkpt lat="45.68164" lon="6.54642">
        <ele>1515.158</ele>
        <time>2012-01-24T10:43:01Z</time>
      </trkpt>
      <trkpt lat="45.68164" lon="6.54642">
        <ele>1515.098</ele>
        <time>2012-01-24T10:43:11Z</time>
      </trkpt>
      <trkpt lat="45.68164" lon="6.54641">
        <ele>1515.01</ele>
        <time>2012-01-24T10:43:21Z</time>
      </trkpt>
      <trkpt lat="45.68164" lon="6.54641">
        <ele>1514.75</ele>
        <time>2012-01-24T10:43:31Z</time>
      </trkpt>
      <trkpt lat="45.68164" lon="6.54639">
        <ele>1515.063</ele>
        <time>2012-01-24T10:43:41Z</time>
      </trkpt>
      <trkpt lat="45.68164" lon="6.54639">
        <ele>1515.233</ele>
        <time>2012-01-24T10:43:51Z</time>
      </trkpt>
      <trkpt lat="45.68164" lon="6.54639">
        <ele>1515.19</ele>
        <time>2012-01-24T10:44:01Z</time>
      </trkpt>
      <trkpt lat="45.68164" lon="6.54639">
        <ele>1515.333</ele>
        <time>2012-01-24T10:44:11Z</time>
      </trkpt>
      <trkpt lat="45.68164" lon="6.54639">
        <ele>1515.195</ele>
        <time>2012-01-24T10:44:21Z</time>
      </trkpt>
      <trkpt lat="45.68164" lon="6.54639">
        <ele>1515.41</ele>
        <time>2012-01-24T10:44:31Z</time>
      </trkpt>
      <trkpt lat="45.68164" lon="6.54639">
        <ele>1515.344</ele>
        <time>2012-01-24T10:44:41Z</time>
      </trkpt>
      <trkpt lat="45.68164" lon="6.54639">
        <ele>1516.145</ele>
        <time>2012-01-24T10:44:51Z</time>
      </trkpt>
      <trkpt lat="45.68164" lon="6.54631">
        <ele>1516.369</ele>
        <time>2012-01-24T10:45:01Z</time>
      </trkpt>
      <trkpt lat="45.68165" lon="6.54615">
        <ele>1517.068</ele>
        <time>2012-01-24T10:45:11Z</time>
      </trkpt>
      <trkpt lat="45.68167" lon="6.54601">
        <ele>1517.101</ele>
        <time>2012-01-24T10:45:21Z</time>
      </trkpt>
      <trkpt lat="45.68166" lon="6.5459">
        <ele>1517.716</ele>
        <time>2012-01-24T10:45:31Z</time>
      </trkpt>
      <trkpt lat="45.6816" lon="6.54582">
        <ele>1517.513</ele>
        <time>2012-01-24T10:45:41Z</time>
      </trkpt>
      <trkpt lat="45.68158" lon="6.54572">
        <ele>1518.261</ele>
        <time>2012-01-24T10:45:51Z</time>
      </trkpt>
      <trkpt lat="45.68157" lon="6.54564">
        <ele>1518.523</ele>
        <time>2012-01-24T10:46:01Z</time>
      </trkpt>
      <trkpt lat="45.68157" lon="6.54555">
        <ele>1519.016</ele>
        <time>2012-01-24T10:46:11Z</time>
      </trkpt>
      <trkpt lat="45.68153" lon="6.54545">
        <ele>1519.594</ele>
        <time>2012-01-24T10:46:21Z</time>
      </trkpt>
      <trkpt lat="45.68154" lon="6.54536">
        <ele>1520.301</ele>
        <time>2012-01-24T10:46:31Z</time>
      </trkpt>
      <trkpt lat="45.68153" lon="6.54526">
        <ele>1520.616</ele>
        <time>2012-01-24T10:46:41Z</time>
      </trkpt>
      <trkpt lat="45.68154" lon="6.54519">
        <ele>1521.76</ele>
        <time>2012-01-24T10:46:51Z</time>
      </trkpt>
      <trkpt lat="45.68154" lon="6.54513">
        <ele>1522.983</ele>
        <time>2012-01-24T10:47:01Z</time>
      </trkpt>
      <trkpt lat="45.68156" lon="6.5451">
        <ele>1524.089</ele>
        <time>2012-01-24T10:47:11Z</time>
      </trkpt>
      <trkpt lat="45.68158" lon="6.54508">
        <ele>1525.531</ele>
        <time>2012-01-24T10:47:21Z</time>
      </trkpt>
      <trkpt lat="45.6816" lon="6.54507">
        <ele>1525.049</ele>
        <time>2012-01-24T10:47:31Z</time>
      </trkpt>
      <trkpt lat="45.68161" lon="6.54506">
        <ele>1525.525</ele>
        <time>2012-01-24T10:47:41Z</time>
      </trkpt>
      <trkpt lat="45.68161" lon="6.54506">
        <ele>1521.24</ele>
        <time>2012-01-24T10:47:51Z</time>
      </trkpt>
      <trkpt lat="45.68163" lon="6.54506">
        <ele>1524.981</ele>
        <time>2012-01-24T10:48:01Z</time>
      </trkpt>
      <trkpt lat="45.68167" lon="6.54508">
        <ele>1524.792</ele>
        <time>2012-01-24T10:48:11Z</time>
      </trkpt>
      <trkpt lat="45.68167" lon="6.54507">
        <ele>1524.584</ele>
        <time>2012-01-24T10:48:21Z</time>
      </trkpt>
      <trkpt lat="45.68166" lon="6.54507">
        <ele>1524.599</ele>
        <time>2012-01-24T10:48:31Z</time>
      </trkpt>
      <trkpt lat="45.68166" lon="6.54507">
        <ele>1523.557</ele>
        <time>2012-01-24T10:48:41Z</time>
      </trkpt>
      <trkpt lat="45.68167" lon="6.54509">
        <ele>1520.234</ele>
        <time>2012-01-24T10:48:51Z</time>
      </trkpt>
      <trkpt lat="45.68169" lon="6.5451">
        <ele>1520.368</ele>
        <time>2012-01-24T10:49:01Z</time>
      </trkpt>
      <trkpt lat="45.68168" lon="6.54507">
        <ele>1521.194</ele>
        <time>2012-01-24T10:49:11Z</time>
      </trkpt>
      <trkpt lat="45.68168" lon="6.54505">
        <ele>1520.76</ele>
        <time>2012-01-24T10:49:21Z</time>
      </trkpt>
      <trkpt lat="45.68168" lon="6.54506">
        <ele>1520.828</ele>
        <time>2012-01-24T10:49:31Z</time>
      </trkpt>
      <trkpt lat="45.68167" lon="6.54506">
        <ele>1520.579</ele>
        <time>2012-01-24T10:49:41Z</time>
      </trkpt>
      <trkpt lat="45.68168" lon="6.54507">
        <ele>1520.785</ele>
        <time>2012-01-24T10:49:51Z</time>
      </trkpt>
      <trkpt lat="45.68168" lon="6.54508">
        <ele>1520.383</ele>
        <time>2012-01-24T10:50:01Z</time>
      </trkpt>
      <trkpt lat="45.68167" lon="6.54508">
        <ele>1521.133</ele>
        <time>2012-01-24T10:50:11Z</time>
      </trkpt>
      <trkpt lat="45.68167" lon="6.54509">
        <ele>1520.981</ele>
        <time>2012-01-24T10:50:21Z</time>
      </trkpt>
      <trkpt lat="45.6817" lon="6.5451">
        <ele>1520.755</ele>
        <time>2012-01-24T10:50:31Z</time>
      </trkpt>
      <trkpt lat="45.6817" lon="6.54507">
        <ele>1521.28</ele>
        <time>2012-01-24T10:50:41Z</time>
      </trkpt>
      <trkpt lat="45.68169" lon="6.54508">
        <ele>1521.051</ele>
        <time>2012-01-24T10:50:51Z</time>
      </trkpt>
      <trkpt lat="45.68168" lon="6.54506">
        <ele>1520.981</ele>
        <time>2012-01-24T10:51:01Z</time>
      </trkpt>
      <trkpt lat="45.68168" lon="6.54505">
        <ele>1521.222</ele>
        <time>2012-01-24T10:51:11Z</time>
      </trkpt>
      <trkpt lat="45.68168" lon="6.54501">
        <ele>1522.675</ele>
        <time>2012-01-24T10:51:21Z</time>
      </trkpt>
      <trkpt lat="45.68171" lon="6.54494">
        <ele>1522.69</ele>
        <time>2012-01-24T10:51:31Z</time>
      </trkpt>
      <trkpt lat="45.68175" lon="6.5449">
        <ele>1523.442</ele>
        <time>2012-01-24T10:51:41Z</time>
      </trkpt>
      <trkpt lat="45.68182" lon="6.54496">
        <ele>1524.746</ele>
        <time>2012-01-24T10:51:51Z</time>
      </trkpt>
      <trkpt lat="45.68182" lon="6.54498">
        <ele>1525.193</ele>
        <time>2012-01-24T10:52:01Z</time>
      </trkpt>
      <trkpt lat="45.68182" lon="6.54504">
        <ele>1526.628</ele>
        <time>2012-01-24T10:52:11Z</time>
      </trkpt>
      <trkpt lat="45.68185" lon="6.54501">
        <ele>1527.277</ele>
        <time>2012-01-24T10:52:21Z</time>
      </trkpt>
      <trkpt lat="45.68191" lon="6.545">
        <ele>1528.191</ele>
        <time>2012-01-24T10:52:31Z</time>
      </trkpt>
      <trkpt lat="45.68197" lon="6.545">
        <ele>1527.401</ele>
        <time>2012-01-24T10:52:41Z</time>
      </trkpt>
      <trkpt lat="45.68203" lon="6.54502">
        <ele>1526.693</ele>
        <time>2012-01-24T10:52:51Z</time>
      </trkpt>
      <trkpt lat="45.68206" lon="6.54501">
        <ele>1526.894</ele>
        <time>2012-01-24T10:53:01Z</time>
      </trkpt>
      <trkpt lat="45.68212" lon="6.54497">
        <ele>1526.133</ele>
        <time>2012-01-24T10:53:11Z</time>
      </trkpt>
      <trkpt lat="45.68213" lon="6.54496">
        <ele>1525.837</ele>
        <time>2012-01-24T10:53:21Z</time>
      </trkpt>
      <trkpt lat="45.68213" lon="6.54496">
        <ele>1525.912</ele>
        <time>2012-01-24T10:53:31Z</time>
      </trkpt>
      <trkpt lat="45.68213" lon="6.54495">
        <ele>1525.356</ele>
        <time>2012-01-24T10:53:41Z</time>
      </trkpt>
      <trkpt lat="45.68213" lon="6.54496">
        <ele>1525.825</ele>
        <time>2012-01-24T10:53:51Z</time>
      </trkpt>
      <trkpt lat="45.68213" lon="6.54496">
        <ele>1525.784</ele>
        <time>2012-01-24T10:54:01Z</time>
      </trkpt>
      <trkpt lat="45.68212" lon="6.54497">
        <ele>1525.313</ele>
        <time>2012-01-24T10:54:11Z</time>
      </trkpt>
      <trkpt lat="45.68212" lon="6.54497">
        <ele>1525.809</ele>
        <time>2012-01-24T10:54:21Z</time>
      </trkpt>
      <trkpt lat="45.68212" lon="6.54496">
        <ele>1525.565</ele>
        <time>2012-01-24T10:54:31Z</time>
      </trkpt>
      <trkpt lat="45.68212" lon="6.54497">
        <ele>1525.573</ele>
        <time>2012-01-24T10:54:41Z</time>
      </trkpt>
      <trkpt lat="45.68212" lon="6.54496">
        <ele>1525.32</ele>
        <time>2012-01-24T10:54:51Z</time>
      </trkpt>
      <trkpt lat="45.68212" lon="6.54496">
        <ele>1525.033</ele>
        <time>2012-01-24T10:55:01Z</time>
      </trkpt>
      <trkpt lat="45.68212" lon="6.54496">
        <ele>1525.192</ele>
        <time>2012-01-24T10:55:11Z</time>
      </trkpt>
      <trkpt lat="45.68212" lon="6.54496">
        <ele>1525.534</ele>
        <time>2012-01-24T10:55:21Z</time>
      </trkpt>
      <trkpt lat="45.68212" lon="6.54496">
        <ele>1525.135</ele>
        <time>2012-01-24T10:55:31Z</time>
      </trkpt>
      <trkpt lat="45.68212" lon="6.54496">
        <ele>1526.088</ele>
        <time>2012-01-24T10:55:41Z</time>
      </trkpt>
      <trkpt lat="45.68212" lon="6.54496">
        <ele>1525.026</ele>
        <time>2012-01-24T10:55:51Z</time>
      </trkpt>
      <trkpt lat="45.68212" lon="6.54496">
        <ele>1525.406</ele>
        <time>2012-01-24T10:56:01Z</time>
      </trkpt>
      <trkpt lat="45.68212" lon="6.54496">
        <ele>1525.157</ele>
        <time>2012-01-24T10:56:11Z</time>
      </trkpt>
      <trkpt lat="45.68212" lon="6.54496">
        <ele>1525.124</ele>
        <time>2012-01-24T10:56:21Z</time>
      </trkpt>
      <trkpt lat="45.68212" lon="6.54496">
        <ele>1524.979</ele>
        <time>2012-01-24T10:56:31Z</time>
      </trkpt>
      <trkpt lat="45.68212" lon="6.54496">
        <ele>1525.206</ele>
        <time>2012-01-24T10:56:41Z</time>
      </trkpt>
      <trkpt lat="45.68212" lon="6.54496">
        <ele>1524.654</ele>
        <time>2012-01-24T10:56:51Z</time>
      </trkpt>
      <trkpt lat="45.68213" lon="6.54495">
        <ele>1524.998</ele>
        <time>2012-01-24T10:57:01Z</time>
      </trkpt>
      <trkpt lat="45.68217" lon="6.54488">
        <ele>1526.017</ele>
        <time>2012-01-24T10:57:11Z</time>
      </trkpt>
      <trkpt lat="45.68221" lon="6.54477">
        <ele>1526.4</ele>
        <time>2012-01-24T10:57:21Z</time>
      </trkpt>
      <trkpt lat="45.68222" lon="6.5447">
        <ele>1526.858</ele>
        <time>2012-01-24T10:57:31Z</time>
      </trkpt>
      <trkpt lat="45.68223" lon="6.54462">
        <ele>1527.193</ele>
        <time>2012-01-24T10:57:41Z</time>
      </trkpt>
      <trkpt lat="45.68226" lon="6.54454">
        <ele>1527.296</ele>
        <time>2012-01-24T10:57:51Z</time>
      </trkpt>
      <trkpt lat="45.68232" lon="6.54446">
        <ele>1528.345</ele>
        <time>2012-01-24T10:58:01Z</time>
      </trkpt>
      <trkpt lat="45.68236" lon="6.54439">
        <ele>1529.108</ele>
        <time>2012-01-24T10:58:11Z</time>
      </trkpt>
      <trkpt lat="45.68236" lon="6.54428">
        <ele>1529.271</ele>
        <time>2012-01-24T10:58:21Z</time>
      </trkpt>
      <trkpt lat="45.68234" lon="6.5442">
        <ele>1530.494</ele>
        <time>2012-01-24T10:58:31Z</time>
      </trkpt>
      <trkpt lat="45.68232" lon="6.54411">
        <ele>1530.488</ele>
        <time>2012-01-24T10:58:41Z</time>
      </trkpt>
      <trkpt lat="45.68232" lon="6.54404">
        <ele>1531.162</ele>
        <time>2012-01-24T10:58:51Z</time>
      </trkpt>
      <trkpt lat="45.68231" lon="6.54394">
        <ele>1531.891</ele>
        <time>2012-01-24T10:59:01Z</time>
      </trkpt>
      <trkpt lat="45.68232" lon="6.54389">
        <ele>1532.062</ele>
        <time>2012-01-24T10:59:11Z</time>
      </trkpt>
      <trkpt lat="45.68234" lon="6.5438">
        <ele>1532.452</ele>
        <time>2012-01-24T10:59:21Z</time>
      </trkpt>
      <trkpt lat="45.68233" lon="6.54369">
        <ele>1532.843</ele>
        <time>2012-01-24T10:59:31Z</time>
      </trkpt>
      <trkpt lat="45.68233" lon="6.5436">
        <ele>1533.464</ele>
        <time>2012-01-24T10:59:41Z</time>
      </trkpt>
      <trkpt lat="45.68236" lon="6.54355">
        <ele>1534.135</ele>
        <time>2012-01-24T10:59:51Z</time>
      </trkpt>
      <trkpt lat="45.68238" lon="6.54351">
        <ele>1534.336</ele>
        <time>2012-01-24T11:00:01Z</time>
      </trkpt>
      <trkpt lat="45.68238" lon="6.54349">
        <ele>1534.542</ele>
        <time>2012-01-24T11:00:11Z</time>
      </trkpt>
      <trkpt lat="45.68237" lon="6.54336">
        <ele>1535.321</ele>
        <time>2012-01-24T11:00:21Z</time>
      </trkpt>
      <trkpt lat="45.68238" lon="6.54326">
        <ele>1535.942</ele>
        <time>2012-01-24T11:00:31Z</time>
      </trkpt>
      <trkpt lat="45.68242" lon="6.5432">
        <ele>1535.497</ele>
        <time>2012-01-24T11:00:41Z</time>
      </trkpt>
      <trkpt lat="45.68243" lon="6.54317">
        <ele>1536.229</ele>
        <time>2012-01-24T11:00:51Z</time>
      </trkpt>
      <trkpt lat="45.68243" lon="6.54315">
        <ele>1536.514</ele>
        <time>2012-01-24T11:01:01Z</time>
      </trkpt>
      <trkpt lat="45.68242" lon="6.54315">
        <ele>1536.115</ele>
        <time>2012-01-24T11:01:11Z</time>
      </trkpt>
      <trkpt lat="45.68243" lon="6.54316">
        <ele>1536.116</ele>
        <time>2012-01-24T11:01:21Z</time>
      </trkpt>
      <trkpt lat="45.68242" lon="6.54316">
        <ele>1536.021</ele>
        <time>2012-01-24T11:01:31Z</time>
      </trkpt>
      <trkpt lat="45.68241" lon="6.54316">
        <ele>1536.329</ele>
        <time>2012-01-24T11:01:41Z</time>
      </trkpt>
      <trkpt lat="45.68242" lon="6.54315">
        <ele>1535.968</ele>
        <time>2012-01-24T11:01:51Z</time>
      </trkpt>
      <trkpt lat="45.68242" lon="6.54315">
        <ele>1536.04</ele>
        <time>2012-01-24T11:02:01Z</time>
      </trkpt>
      <trkpt lat="45.68243" lon="6.54315">
        <ele>1536.368</ele>
        <time>2012-01-24T11:02:11Z</time>
      </trkpt>
      <trkpt lat="45.68244" lon="6.54315">
        <ele>1536.119</ele>
        <time>2012-01-24T11:02:21Z</time>
      </trkpt>
      <trkpt lat="45.68243" lon="6.54315">
        <ele>1536.013</ele>
        <time>2012-01-24T11:02:31Z</time>
      </trkpt>
      <trkpt lat="45.68244" lon="6.54316">
        <ele>1535.984</ele>
        <time>2012-01-24T11:02:41Z</time>
      </trkpt>
      <trkpt lat="45.68244" lon="6.54316">
        <ele>1535.849</ele>
        <time>2012-01-24T11:02:51Z</time>
      </trkpt>
      <trkpt lat="45.68242" lon="6.54309">
        <ele>1536.536</ele>
        <time>2012-01-24T11:03:01Z</time>
      </trkpt>
      <trkpt lat="45.68244" lon="6.54301">
        <ele>1536.896</ele>
        <time>2012-01-24T11:03:11Z</time>
      </trkpt>
      <trkpt lat="45.68245" lon="6.5429">
        <ele>1537.573</ele>
        <time>2012-01-24T11:03:21Z</time>
      </trkpt>
      <trkpt lat="45.68247" lon="6.54276">
        <ele>1538.072</ele>
        <time>2012-01-24T11:03:31Z</time>
      </trkpt>
      <trkpt lat="45.68245" lon="6.54272">
        <ele>1538.398</ele>
        <time>2012-01-24T11:03:41Z</time>
      </trkpt>
      <trkpt lat="45.68243" lon="6.54273">
        <ele>1537.968</ele>
        <time>2012-01-24T11:03:51Z</time>
      </trkpt>
      <trkpt lat="45.68241" lon="6.54272">
        <ele>1538.048</ele>
        <time>2012-01-24T11:04:01Z</time>
      </trkpt>
      <trkpt lat="45.68241" lon="6.54271">
        <ele>1538.334</ele>
        <time>2012-01-24T11:04:11Z</time>
      </trkpt>
      <trkpt lat="45.68243" lon="6.5427">
        <ele>1538.156</ele>
        <time>2012-01-24T11:04:21Z</time>
      </trkpt>
      <trkpt lat="45.68243" lon="6.54269">
        <ele>1538.027</ele>
        <time>2012-01-24T11:04:31Z</time>
      </trkpt>
      <trkpt lat="45.68243" lon="6.54268">
        <ele>1538.271</ele>
        <time>2012-01-24T11:04:41Z</time>
      </trkpt>
      <trkpt lat="45.68243" lon="6.54268">
        <ele>1538.422</ele>
        <time>2012-01-24T11:04:51Z</time>
      </trkpt>
      <trkpt lat="45.68243" lon="6.54268">
        <ele>1538.223</ele>
        <time>2012-01-24T11:05:01Z</time>
      </trkpt>
      <trkpt lat="45.68244" lon="6.54269">
        <ele>1537.911</ele>
        <time>2012-01-24T11:05:11Z</time>
      </trkpt>
      <trkpt lat="45.68244" lon="6.5427">
        <ele>1537.963</ele>
        <time>2012-01-24T11:05:21Z</time>
      </trkpt>
      <trkpt lat="45.68244" lon="6.54272">
        <ele>1537.976</ele>
        <time>2012-01-24T11:05:31Z</time>
      </trkpt>
      <trkpt lat="45.68246" lon="6.54274">
        <ele>1537.592</ele>
        <time>2012-01-24T11:05:41Z</time>
      </trkpt>
      <trkpt lat="45.68247" lon="6.54273">
        <ele>1538.08</ele>
        <time>2012-01-24T11:05:51Z</time>
      </trkpt>
      <trkpt lat="45.68247" lon="6.54272">
        <ele>1537.932</ele>
        <time>2012-01-24T11:06:01Z</time>
      </trkpt>
      <trkpt lat="45.68247" lon="6.54271">
        <ele>1537.24</ele>
        <time>2012-01-24T11:06:11Z</time>
      </trkpt>
      <trkpt lat="45.68246" lon="6.54272">
        <ele>1537.584</ele>
        <time>2012-01-24T11:06:21Z</time>
      </trkpt>
      <trkpt lat="45.68246" lon="6.54272">
        <ele>1537.217</ele>
        <time>2012-01-24T11:06:31Z</time>
      </trkpt>
      <trkpt lat="45.68246" lon="6.54271">
        <ele>1537.802</ele>
        <time>2012-01-24T11:06:41Z</time>
      </trkpt>
      <trkpt lat="45.68246" lon="6.54257">
        <ele>1538.274</ele>
        <time>2012-01-24T11:06:51Z</time>
      </trkpt>
      <trkpt lat="45.68246" lon="6.54251">
        <ele>1538.35</ele>
        <time>2012-01-24T11:07:01Z</time>
      </trkpt>
      <trkpt lat="45.68249" lon="6.54251">
        <ele>1538.53</ele>
        <time>2012-01-24T11:07:11Z</time>
      </trkpt>
      <trkpt lat="45.68251" lon="6.54249">
        <ele>1538.595</ele>
        <time>2012-01-24T11:07:21Z</time>
      </trkpt>
      <trkpt lat="45.68251" lon="6.54249">
        <ele>1538.245</ele>
        <time>2012-01-24T11:07:31Z</time>
      </trkpt>
      <trkpt lat="45.68251" lon="6.54249">
        <ele>1538.572</ele>
        <time>2012-01-24T11:07:41Z</time>
      </trkpt>
      <trkpt lat="45.68251" lon="6.54249">
        <ele>1538.284</ele>
        <time>2012-01-24T11:07:51Z</time>
      </trkpt>
      <trkpt lat="45.68251" lon="6.54249">
        <ele>1537.992</ele>
        <time>2012-01-24T11:08:01Z</time>
      </trkpt>
      <trkpt lat="45.68251" lon="6.54249">
        <ele>1538.544</ele>
        <time>2012-01-24T11:08:11Z</time>
      </trkpt>
      <trkpt lat="45.68251" lon="6.54249">
        <ele>1538.698</ele>
        <time>2012-01-24T11:08:21Z</time>
      </trkpt>
      <trkpt lat="45.68251" lon="6.54249">
        <ele>1538.038</ele>
        <time>2012-01-24T11:08:31Z</time>
      </trkpt>
      <trkpt lat="45.68251" lon="6.54249">
        <ele>1537.85</ele>
        <time>2012-01-24T11:08:41Z</time>
      </trkpt>
      <trkpt lat="45.68251" lon="6.54249">
        <ele>1538.228</ele>
        <time>2012-01-24T11:08:51Z</time>
      </trkpt>
      <trkpt lat="45.68251" lon="6.54249">
        <ele>1538.218</ele>
        <time>2012-01-24T11:09:01Z</time>
      </trkpt>
      <trkpt lat="45.68251" lon="6.54249">
        <ele>1538.466</ele>
        <time>2012-01-24T11:09:11Z</time>
      </trkpt>
      <trkpt lat="45.68251" lon="6.54249">
        <ele>1538.406</ele>
        <time>2012-01-24T11:09:21Z</time>
      </trkpt>
      <trkpt lat="45.68251" lon="6.54249">
        <ele>1538.931</ele>
        <time>2012-01-24T11:09:31Z</time>
      </trkpt>
      <trkpt lat="45.68253" lon="6.54243">
        <ele>1539.248</ele>
        <time>2012-01-24T11:09:41Z</time>
      </trkpt>
      <trkpt lat="45.68251" lon="6.54223">
        <ele>1539.65</ele>
        <time>2012-01-24T11:09:51Z</time>
      </trkpt>
      <trkpt lat="45.6825" lon="6.54206">
        <ele>1539.933</ele>
        <time>2012-01-24T11:10:01Z</time>
      </trkpt>
      <trkpt lat="45.68252" lon="6.54189">
        <ele>1539.731</ele>
        <time>2012-01-24T11:10:11Z</time>
      </trkpt>
      <trkpt lat="45.68254" lon="6.54177">
        <ele>1540.626</ele>
        <time>2012-01-24T11:10:21Z</time>
      </trkpt>
      <trkpt lat="45.68253" lon="6.54169">
        <ele>1540.863</ele>
        <time>2012-01-24T11:10:31Z</time>
      </trkpt>
      <trkpt lat="45.68254" lon="6.54168">
        <ele>1540.887</ele>
        <time>2012-01-24T11:10:41Z</time>
      </trkpt>
      <trkpt lat="45.68258" lon="6.54163">
        <ele>1541.651</ele>
        <time>2012-01-24T11:10:51Z</time>
      </trkpt>
      <trkpt lat="45.68256" lon="6.54156">
        <ele>1541.445</ele>
        <time>2012-01-24T11:11:01Z</time>
      </trkpt>
      <trkpt lat="45.68253" lon="6.54154">
        <ele>1541.786</ele>
        <time>2012-01-24T11:11:11Z</time>
      </trkpt>
      <trkpt lat="45.68252" lon="6.54153">
        <ele>1542.335</ele>
        <time>2012-01-24T11:11:21Z</time>
      </trkpt>
      <trkpt lat="45.68252" lon="6.54153">
        <ele>1542.242</ele>
        <time>2012-01-24T11:11:31Z</time>
      </trkpt>
      <trkpt lat="45.68252" lon="6.54153">
        <ele>1541.863</ele>
        <time>2012-01-24T11:11:41Z</time>
      </trkpt>
      <trkpt lat="45.68252" lon="6.54153">
        <ele>1541.958</ele>
        <time>2012-01-24T11:11:51Z</time>
      </trkpt>
      <trkpt lat="45.68252" lon="6.54153">
        <ele>1541.786</ele>
        <time>2012-01-24T11:12:01Z</time>
      </trkpt>
      <trkpt lat="45.68252" lon="6.54153">
        <ele>1542.005</ele>
        <time>2012-01-24T11:12:11Z</time>
      </trkpt>
      <trkpt lat="45.68253" lon="6.54153">
        <ele>1541.664</ele>
        <time>2012-01-24T11:12:21Z</time>
      </trkpt>
      <trkpt lat="45.68253" lon="6.54151">
        <ele>1541.237</ele>
        <time>2012-01-24T11:12:31Z</time>
      </trkpt>
      <trkpt lat="45.68253" lon="6.5415">
        <ele>1541.848</ele>
        <time>2012-01-24T11:12:41Z</time>
      </trkpt>
      <trkpt lat="45.68253" lon="6.54149">
        <ele>1541.439</ele>
        <time>2012-01-24T11:12:51Z</time>
      </trkpt>
      <trkpt lat="45.68253" lon="6.54149">
        <ele>1540.746</ele>
        <time>2012-01-24T11:13:01Z</time>
      </trkpt>
      <trkpt lat="45.68257" lon="6.54145">
        <ele>1541.544</ele>
        <time>2012-01-24T11:13:11Z</time>
      </trkpt>
      <trkpt lat="45.6826" lon="6.54135">
        <ele>1542.048</ele>
        <time>2012-01-24T11:13:21Z</time>
      </trkpt>
      <trkpt lat="45.68262" lon="6.54124">
        <ele>1542.437</ele>
        <time>2012-01-24T11:13:31Z</time>
      </trkpt>
      <trkpt lat="45.68265" lon="6.54118">
        <ele>1543.268</ele>
        <time>2012-01-24T11:13:41Z</time>
      </trkpt>
      <trkpt lat="45.68264" lon="6.54109">
        <ele>1543.705</ele>
        <time>2012-01-24T11:13:51Z</time>
      </trkpt>
      <trkpt lat="45.68266" lon="6.541">
        <ele>1544.505</ele>
        <time>2012-01-24T11:14:01Z</time>
      </trkpt>
      <trkpt lat="45.68267" lon="6.54091">
        <ele>1545.263</ele>
        <time>2012-01-24T11:14:11Z</time>
      </trkpt>
      <trkpt lat="45.68267" lon="6.54083">
        <ele>1545.437</ele>
        <time>2012-01-24T11:14:21Z</time>
      </trkpt>
      <trkpt lat="45.68267" lon="6.54081">
        <ele>1545.733</ele>
        <time>2012-01-24T11:14:31Z</time>
      </trkpt>
      <trkpt lat="45.68267" lon="6.54081">
        <ele>1545.702</ele>
        <time>2012-01-24T11:14:41Z</time>
      </trkpt>
      <trkpt lat="45.68267" lon="6.54083">
        <ele>1545.69</ele>
        <time>2012-01-24T11:14:51Z</time>
      </trkpt>
      <trkpt lat="45.68268" lon="6.54078">
        <ele>1544.872</ele>
        <time>2012-01-24T11:15:01Z</time>
      </trkpt>
      <trkpt lat="45.68271" lon="6.5407">
        <ele>1546.132</ele>
        <time>2012-01-24T11:15:11Z</time>
      </trkpt>
      <trkpt lat="45.68271" lon="6.54062">
        <ele>1546.13</ele>
        <time>2012-01-24T11:15:21Z</time>
      </trkpt>
      <trkpt lat="45.68271" lon="6.54054">
        <ele>1547.193</ele>
        <time>2012-01-24T11:15:31Z</time>
      </trkpt>
      <trkpt lat="45.68271" lon="6.54052">
        <ele>1546.809</ele>
        <time>2012-01-24T11:15:41Z</time>
      </trkpt>
      <trkpt lat="45.68272" lon="6.54052">
        <ele>1549.807</ele>
        <time>2012-01-24T11:15:51Z</time>
      </trkpt>
      <trkpt lat="45.68273" lon="6.54054">
        <ele>1546.773</ele>
        <time>2012-01-24T11:16:01Z</time>
      </trkpt>
      <trkpt lat="45.68272" lon="6.54055">
        <ele>1545.908</ele>
        <time>2012-01-24T11:16:11Z</time>
      </trkpt>
      <trkpt lat="45.6827" lon="6.54052">
        <ele>1545.99</ele>
        <time>2012-01-24T11:16:21Z</time>
      </trkpt>
      <trkpt lat="45.68267" lon="6.54052">
        <ele>1545.635</ele>
        <time>2012-01-24T11:16:31Z</time>
      </trkpt>
      <trkpt lat="45.68264" lon="6.5405">
        <ele>1545.664</ele>
        <time>2012-01-24T11:16:41Z</time>
      </trkpt>
      <trkpt lat="45.68264" lon="6.5405">
        <ele>1545.129</ele>
        <time>2012-01-24T11:16:51Z</time>
      </trkpt>
      <trkpt lat="45.68264" lon="6.54051">
        <ele>1544.665</ele>
        <time>2012-01-24T11:17:01Z</time>
      </trkpt>
      <trkpt lat="45.68265" lon="6.54054">
        <ele>1544.861</ele>
        <time>2012-01-24T11:17:11Z</time>
      </trkpt>
      <trkpt lat="45.68265" lon="6.54056">
        <ele>1545.114</ele>
        <time>2012-01-24T11:17:21Z</time>
      </trkpt>
      <trkpt lat="45.68265" lon="6.54058">
        <ele>1544.62</ele>
        <time>2012-01-24T11:17:31Z</time>
      </trkpt>
      <trkpt lat="45.68265" lon="6.5406">
        <ele>1545.393</ele>
        <time>2012-01-24T11:17:41Z</time>
      </trkpt>
      <trkpt lat="45.68265" lon="6.5406">
        <ele>1545.084</ele>
        <time>2012-01-24T11:17:51Z</time>
      </trkpt>
      <trkpt lat="45.68266" lon="6.54061">
        <ele>1543</ele>
        <time>2012-01-24T11:18:01Z</time>
      </trkpt>
      <trkpt lat="45.68267" lon="6.54059">
        <ele>1544.9</ele>
        <time>2012-01-24T11:18:11Z</time>
      </trkpt>
      <trkpt lat="45.68263" lon="6.54058">
        <ele>1544.818</ele>
        <time>2012-01-24T11:18:21Z</time>
      </trkpt>
      <trkpt lat="45.68263" lon="6.54053">
        <ele>1545.971</ele>
        <time>2012-01-24T11:18:31Z</time>
      </trkpt>
      <trkpt lat="45.68262" lon="6.54051">
        <ele>1545.774</ele>
        <time>2012-01-24T11:18:41Z</time>
      </trkpt>
      <trkpt lat="45.68262" lon="6.54051">
        <ele>1545.821</ele>
        <time>2012-01-24T11:18:51Z</time>
      </trkpt>
      <trkpt lat="45.68263" lon="6.5405">
        <ele>1545.875</ele>
        <time>2012-01-24T11:19:01Z</time>
      </trkpt>
      <trkpt lat="45.68264" lon="6.5405">
        <ele>1545.886</ele>
        <time>2012-01-24T11:19:11Z</time>
      </trkpt>
      <trkpt lat="45.68264" lon="6.54054">
        <ele>1545.976</ele>
        <time>2012-01-24T11:19:21Z</time>
      </trkpt>
      <trkpt lat="45.68266" lon="6.54053">
        <ele>1545.28</ele>
        <time>2012-01-24T11:19:31Z</time>
      </trkpt>
      <trkpt lat="45.68267" lon="6.54054">
        <ele>1545.786</ele>
        <time>2012-01-24T11:19:41Z</time>
      </trkpt>
      <trkpt lat="45.68266" lon="6.54054">
        <ele>1545.4</ele>
        <time>2012-01-24T11:19:51Z</time>
      </trkpt>
      <trkpt lat="45.68265" lon="6.54055">
        <ele>1545.823</ele>
        <time>2012-01-24T11:20:01Z</time>
      </trkpt>
      <trkpt lat="45.68264" lon="6.54054">
        <ele>1545.379</ele>
        <time>2012-01-24T11:20:11Z</time>
      </trkpt>
      <trkpt lat="45.68263" lon="6.54052">
        <ele>1545.913</ele>
        <time>2012-01-24T11:20:21Z</time>
      </trkpt>
      <trkpt lat="45.68263" lon="6.54051">
        <ele>1545.981</ele>
        <time>2012-01-24T11:20:31Z</time>
      </trkpt>
      <trkpt lat="45.68263" lon="6.54051">
        <ele>1545.638</ele>
        <time>2012-01-24T11:20:41Z</time>
      </trkpt>
      <trkpt lat="45.68263" lon="6.54053">
        <ele>1545.524</ele>
        <time>2012-01-24T11:20:51Z</time>
      </trkpt>
      <trkpt lat="45.68265" lon="6.54052">
        <ele>1545.985</ele>
        <time>2012-01-24T11:21:01Z</time>
      </trkpt>
      <trkpt lat="45.68266" lon="6.54051">
        <ele>1545.836</ele>
        <time>2012-01-24T11:21:11Z</time>
      </trkpt>
      <trkpt lat="45.68267" lon="6.5405">
        <ele>1546.063</ele>
        <time>2012-01-24T11:21:21Z</time>
      </trkpt>
      <trkpt lat="45.68268" lon="6.54051">
        <ele>1546.335</ele>
        <time>2012-01-24T11:21:31Z</time>
      </trkpt>
      <trkpt lat="45.68268" lon="6.54051">
        <ele>1545.929</ele>
        <time>2012-01-24T11:21:41Z</time>
      </trkpt>
      <trkpt lat="45.68268" lon="6.54051">
        <ele>1545.69</ele>
        <time>2012-01-24T11:21:51Z</time>
      </trkpt>
      <trkpt lat="45.68268" lon="6.54051">
        <ele>1546.037</ele>
        <time>2012-01-24T11:22:01Z</time>
      </trkpt>
      <trkpt lat="45.68268" lon="6.54051">
        <ele>1545.667</ele>
        <time>2012-01-24T11:22:11Z</time>
      </trkpt>
      <trkpt lat="45.68268" lon="6.54049">
        <ele>1546.761</ele>
        <time>2012-01-24T11:22:21Z</time>
      </trkpt>
      <trkpt lat="45.68269" lon="6.54047">
        <ele>1545.749</ele>
        <time>2012-01-24T11:22:31Z</time>
      </trkpt>
      <trkpt lat="45.68269" lon="6.54045">
        <ele>1545.212</ele>
        <time>2012-01-24T11:22:41Z</time>
      </trkpt>
      <trkpt lat="45.68269" lon="6.54043">
        <ele>1545.429</ele>
        <time>2012-01-24T11:22:51Z</time>
      </trkpt>
      <trkpt lat="45.6827" lon="6.54041">
        <ele>1545.873</ele>
        <time>2012-01-24T11:23:01Z</time>
      </trkpt>
      <trkpt lat="45.68271" lon="6.54041">
        <ele>1545.741</ele>
        <time>2012-01-24T11:23:11Z</time>
      </trkpt>
      <trkpt lat="45.68271" lon="6.5404">
        <ele>1545.836</ele>
        <time>2012-01-24T11:23:21Z</time>
      </trkpt>
      <trkpt lat="45.68271" lon="6.5404">
        <ele>1545.704</ele>
        <time>2012-01-24T11:23:31Z</time>
      </trkpt>
      <trkpt lat="45.68271" lon="6.5404">
        <ele>1546.106</ele>
        <time>2012-01-24T11:23:41Z</time>
      </trkpt>
      <trkpt lat="45.68271" lon="6.54041">
        <ele>1546.177</ele>
        <time>2012-01-24T11:23:51Z</time>
      </trkpt>
      <trkpt lat="45.68271" lon="6.54043">
        <ele>1546.047</ele>
        <time>2012-01-24T11:24:01Z</time>
      </trkpt>
      <trkpt lat="45.6827" lon="6.54046">
        <ele>1546.124</ele>
        <time>2012-01-24T11:24:11Z</time>
      </trkpt>
      <trkpt lat="45.68269" lon="6.54052">
        <ele>1546.555</ele>
        <time>2012-01-24T11:24:21Z</time>
      </trkpt>
      <trkpt lat="45.68267" lon="6.54057">
        <ele>1545.873</ele>
        <time>2012-01-24T11:24:31Z</time>
      </trkpt>
      <trkpt lat="45.68268" lon="6.54057">
        <ele>1546.423</ele>
        <time>2012-01-24T11:24:41Z</time>
      </trkpt>
      <trkpt lat="45.68267" lon="6.54058">
        <ele>1546.254</ele>
        <time>2012-01-24T11:24:51Z</time>
      </trkpt>
      <trkpt lat="45.68268" lon="6.54055">
        <ele>1546.56</ele>
        <time>2012-01-24T11:25:01Z</time>
      </trkpt>
      <trkpt lat="45.68268" lon="6.54055">
        <ele>1546.486</ele>
        <time>2012-01-24T11:25:11Z</time>
      </trkpt>
      <trkpt lat="45.68268" lon="6.54056">
        <ele>1546.314</ele>
        <time>2012-01-24T11:25:21Z</time>
      </trkpt>
      <trkpt lat="45.68267" lon="6.54056">
        <ele>1546.214</ele>
        <time>2012-01-24T11:25:31Z</time>
      </trkpt>
      <trkpt lat="45.68269" lon="6.54058">
        <ele>1546.729</ele>
        <time>2012-01-24T11:25:41Z</time>
      </trkpt>
      <trkpt lat="45.68268" lon="6.5406">
        <ele>1546.822</ele>
        <time>2012-01-24T11:25:51Z</time>
      </trkpt>
      <trkpt lat="45.6827" lon="6.54059">
        <ele>1546.61</ele>
        <time>2012-01-24T11:26:01Z</time>
      </trkpt>
      <trkpt lat="45.6827" lon="6.5405">
        <ele>1546.991</ele>
        <time>2012-01-24T11:26:11Z</time>
      </trkpt>
      <trkpt lat="45.68272" lon="6.54038">
        <ele>1546.777</ele>
        <time>2012-01-24T11:26:21Z</time>
      </trkpt>
      <trkpt lat="45.68272" lon="6.54038">
        <ele>1546.972</ele>
        <time>2012-01-24T11:26:31Z</time>
      </trkpt>
      <trkpt lat="45.68272" lon="6.54037">
        <ele>1547.17</ele>
        <time>2012-01-24T11:26:41Z</time>
      </trkpt>
      <trkpt lat="45.68271" lon="6.54035">
        <ele>1547.059</ele>
        <time>2012-01-24T11:26:51Z</time>
      </trkpt>
      <trkpt lat="45.68273" lon="6.54032">
        <ele>1547.004</ele>
        <time>2012-01-24T11:27:01Z</time>
      </trkpt>
      <trkpt lat="45.68274" lon="6.54029">
        <ele>1547.308</ele>
        <time>2012-01-24T11:27:11Z</time>
      </trkpt>
      <trkpt lat="45.68272" lon="6.54031">
        <ele>1547.316</ele>
        <time>2012-01-24T11:27:21Z</time>
      </trkpt>
      <trkpt lat="45.68272" lon="6.5403">
        <ele>1547.12</ele>
        <time>2012-01-24T11:27:31Z</time>
      </trkpt>
      <trkpt lat="45.68271" lon="6.54034">
        <ele>1547.059</ele>
        <time>2012-01-24T11:27:41Z</time>
      </trkpt>
      <trkpt lat="45.68269" lon="6.54053">
        <ele>1546.909</ele>
        <time>2012-01-24T11:27:51Z</time>
      </trkpt>
      <trkpt lat="45.68269" lon="6.54062">
        <ele>1546.901</ele>
        <time>2012-01-24T11:28:01Z</time>
      </trkpt>
      <trkpt lat="45.68264" lon="6.54078">
        <ele>1547.054</ele>
        <time>2012-01-24T11:28:11Z</time>
      </trkpt>
      <trkpt lat="45.68265" lon="6.5407">
        <ele>1547.334</ele>
        <time>2012-01-24T11:28:21Z</time>
      </trkpt>
      <trkpt lat="45.68266" lon="6.54067">
        <ele>1547.403</ele>
        <time>2012-01-24T11:28:31Z</time>
      </trkpt>
      <trkpt lat="45.68265" lon="6.54069">
        <ele>1547.382</ele>
        <time>2012-01-24T11:28:41Z</time>
      </trkpt>
      <trkpt lat="45.68265" lon="6.54072">
        <ele>1547.015</ele>
        <time>2012-01-24T11:28:51Z</time>
      </trkpt>
      <trkpt lat="45.68264" lon="6.54074">
        <ele>1547.411</ele>
        <time>2012-01-24T11:29:01Z</time>
      </trkpt>
      <trkpt lat="45.68265" lon="6.54073">
        <ele>1547.17</ele>
        <time>2012-01-24T11:29:11Z</time>
      </trkpt>
      <trkpt lat="45.68266" lon="6.54067">
        <ele>1547.39</ele>
        <time>2012-01-24T11:29:21Z</time>
      </trkpt>
      <trkpt lat="45.68266" lon="6.5407">
        <ele>1547.258</ele>
        <time>2012-01-24T11:29:31Z</time>
      </trkpt>
      <trkpt lat="45.68266" lon="6.54069">
        <ele>1546.848</ele>
        <time>2012-01-24T11:29:41Z</time>
      </trkpt>
      <trkpt lat="45.68267" lon="6.54065">
        <ele>1547.551</ele>
        <time>2012-01-24T11:29:51Z</time>
      </trkpt>
      <trkpt lat="45.68269" lon="6.54054">
        <ele>1547.202</ele>
        <time>2012-01-24T11:30:01Z</time>
      </trkpt>
      <trkpt lat="45.68269" lon="6.54054">
        <ele>1547.31</ele>
        <time>2012-01-24T11:30:11Z</time>
      </trkpt>
      <trkpt lat="45.6827" lon="6.54054">
        <ele>1547.812</ele>
        <time>2012-01-24T11:30:21Z</time>
      </trkpt>
      <trkpt lat="45.6827" lon="6.54053">
        <ele>1547.702</ele>
        <time>2012-01-24T11:30:31Z</time>
      </trkpt>
      <trkpt lat="45.68266" lon="6.54064">
        <ele>1547.334</ele>
        <time>2012-01-24T11:30:41Z</time>
      </trkpt>
      <trkpt lat="45.68267" lon="6.5407">
        <ele>1547.176</ele>
        <time>2012-01-24T11:30:51Z</time>
      </trkpt>
      <trkpt lat="45.68264" lon="6.54077">
        <ele>1547.519</ele>
        <time>2012-01-24T11:31:01Z</time>
      </trkpt>
      <trkpt lat="45.68263" lon="6.54086">
        <ele>1547.292</ele>
        <time>2012-01-24T11:31:11Z</time>
      </trkpt>
      <trkpt lat="45.68259" lon="6.54099">
        <ele>1547.147</ele>
        <time>2012-01-24T11:31:21Z</time>
      </trkpt>
      <trkpt lat="45.68263" lon="6.54085">
        <ele>1547.334</ele>
        <time>2012-01-24T11:31:31Z</time>
      </trkpt>
      <trkpt lat="45.68262" lon="6.54087">
        <ele>1547.744</ele>
        <time>2012-01-24T11:31:41Z</time>
      </trkpt>
      <trkpt lat="45.68262" lon="6.54087">
        <ele>1547.297</ele>
        <time>2012-01-24T11:31:51Z</time>
      </trkpt>
      <trkpt lat="45.68262" lon="6.54086">
        <ele>1547.588</ele>
        <time>2012-01-24T11:32:01Z</time>
      </trkpt>
      <trkpt lat="45.68261" lon="6.54085">
        <ele>1547.472</ele>
        <time>2012-01-24T11:32:11Z</time>
      </trkpt>
      <trkpt lat="45.68261" lon="6.54084">
        <ele>1547.326</ele>
        <time>2012-01-24T11:32:21Z</time>
      </trkpt>
      <trkpt lat="45.68263" lon="6.54074">
        <ele>1547.614</ele>
        <time>2012-01-24T11:32:31Z</time>
      </trkpt>
      <trkpt lat="45.68266" lon="6.54065">
        <ele>1547.384</ele>
        <time>2012-01-24T11:32:41Z</time>
      </trkpt>
      <trkpt lat="45.68268" lon="6.5406">
        <ele>1548.259</ele>
        <time>2012-01-24T11:32:51Z</time>
      </trkpt>
      <trkpt lat="45.68267" lon="6.54058">
        <ele>1547.982</ele>
        <time>2012-01-24T11:33:01Z</time>
      </trkpt>
      <trkpt lat="45.68268" lon="6.54055">
        <ele>1547.371</ele>
        <time>2012-01-24T11:33:11Z</time>
      </trkpt>
      <trkpt lat="45.68269" lon="6.54052">
        <ele>1547.469</ele>
        <time>2012-01-24T11:33:21Z</time>
      </trkpt>
      <trkpt lat="45.6827" lon="6.5405">
        <ele>1548.251</ele>
        <time>2012-01-24T11:33:31Z</time>
      </trkpt>
      <trkpt lat="45.68269" lon="6.5405">
        <ele>1547.601</ele>
        <time>2012-01-24T11:33:41Z</time>
      </trkpt>
      <trkpt lat="45.68268" lon="6.5405">
        <ele>1547.908</ele>
        <time>2012-01-24T11:33:51Z</time>
      </trkpt>
      <trkpt lat="45.68268" lon="6.54052">
        <ele>1547.696</ele>
        <time>2012-01-24T11:34:01Z</time>
      </trkpt>
      <trkpt lat="45.68268" lon="6.54056">
        <ele>1547.408</ele>
        <time>2012-01-24T11:34:11Z</time>
      </trkpt>
      <trkpt lat="45.68268" lon="6.54056">
        <ele>1547.95</ele>
        <time>2012-01-24T11:34:21Z</time>
      </trkpt>
      <trkpt lat="45.68267" lon="6.5406">
        <ele>1547.725</ele>
        <time>2012-01-24T11:34:31Z</time>
      </trkpt>
      <trkpt lat="45.68267" lon="6.54061">
        <ele>1547.733</ele>
        <time>2012-01-24T11:34:41Z</time>
      </trkpt>
      <trkpt lat="45.68267" lon="6.54061">
        <ele>1547.702</ele>
        <time>2012-01-24T11:34:51Z</time>
      </trkpt>
      <trkpt lat="45.68268" lon="6.54059">
        <ele>1547.783</ele>
        <time>2012-01-24T11:35:01Z</time>
      </trkpt>
      <trkpt lat="45.68268" lon="6.54057">
        <ele>1548.016</ele>
        <time>2012-01-24T11:35:11Z</time>
      </trkpt>
      <trkpt lat="45.68268" lon="6.54054">
        <ele>1547.99</ele>
        <time>2012-01-24T11:35:21Z</time>
      </trkpt>
      <trkpt lat="45.6827" lon="6.54052">
        <ele>1547.696</ele>
        <time>2012-01-24T11:35:31Z</time>
      </trkpt>
      <trkpt lat="45.6827" lon="6.5405">
        <ele>1547.839</ele>
        <time>2012-01-24T11:35:41Z</time>
      </trkpt>
      <trkpt lat="45.68269" lon="6.5405">
        <ele>1547.739</ele>
        <time>2012-01-24T11:35:51Z</time>
      </trkpt>
      <trkpt lat="45.6827" lon="6.5405">
        <ele>1548.05</ele>
        <time>2012-01-24T11:36:01Z</time>
      </trkpt>
      <trkpt lat="45.68269" lon="6.54051">
        <ele>1547.863</ele>
        <time>2012-01-24T11:36:11Z</time>
      </trkpt>
      <trkpt lat="45.68268" lon="6.54052">
        <ele>1547.675</ele>
        <time>2012-01-24T11:36:21Z</time>
      </trkpt>
      <trkpt lat="45.68267" lon="6.54055">
        <ele>1547.897</ele>
        <time>2012-01-24T11:36:31Z</time>
      </trkpt>
      <trkpt lat="45.68265" lon="6.54057">
        <ele>1547.876</ele>
        <time>2012-01-24T11:36:41Z</time>
      </trkpt>
      <trkpt lat="45.68267" lon="6.54056">
        <ele>1547.921</ele>
        <time>2012-01-24T11:36:51Z</time>
      </trkpt>
      <trkpt lat="45.68267" lon="6.54055">
        <ele>1548.296</ele>
        <time>2012-01-24T11:37:01Z</time>
      </trkpt>
      <trkpt lat="45.68269" lon="6.5405">
        <ele>1548.159</ele>
        <time>2012-01-24T11:37:11Z</time>
      </trkpt>
      <trkpt lat="45.6827" lon="6.54048">
        <ele>1547.945</ele>
        <time>2012-01-24T11:37:21Z</time>
      </trkpt>
      <trkpt lat="45.6827" lon="6.54046">
        <ele>1548.196</ele>
        <time>2012-01-24T11:37:31Z</time>
      </trkpt>
      <trkpt lat="45.6827" lon="6.54043">
        <ele>1547.601</ele>
        <time>2012-01-24T11:37:41Z</time>
      </trkpt>
      <trkpt lat="45.68271" lon="6.54041">
        <ele>1548.209</ele>
        <time>2012-01-24T11:37:51Z</time>
      </trkpt>
      <trkpt lat="45.68274" lon="6.54032">
        <ele>1548.021</ele>
        <time>2012-01-24T11:38:01Z</time>
      </trkpt>
      <trkpt lat="45.68272" lon="6.54036">
        <ele>1548.077</ele>
        <time>2012-01-24T11:38:11Z</time>
      </trkpt>
      <trkpt lat="45.68273" lon="6.54037">
        <ele>1547.984</ele>
        <time>2012-01-24T11:38:21Z</time>
      </trkpt>
      <trkpt lat="45.68272" lon="6.54042">
        <ele>1547.99</ele>
        <time>2012-01-24T11:38:31Z</time>
      </trkpt>
      <trkpt lat="45.68272" lon="6.54043">
        <ele>1547.651</ele>
        <time>2012-01-24T11:38:41Z</time>
      </trkpt>
      <trkpt lat="45.68271" lon="6.54049">
        <ele>1547.448</ele>
        <time>2012-01-24T11:38:51Z</time>
      </trkpt>
      <trkpt lat="45.68267" lon="6.54056">
        <ele>1547.95</ele>
        <time>2012-01-24T11:39:01Z</time>
      </trkpt>
      <trkpt lat="45.68268" lon="6.54054">
        <ele>1547.953</ele>
        <time>2012-01-24T11:39:11Z</time>
      </trkpt>
      <trkpt lat="45.68267" lon="6.54055">
        <ele>1547.976</ele>
        <time>2012-01-24T11:39:21Z</time>
      </trkpt>
      <trkpt lat="45.68267" lon="6.54055">
        <ele>1547.881</ele>
        <time>2012-01-24T11:39:31Z</time>
      </trkpt>
      <trkpt lat="45.68268" lon="6.54054">
        <ele>1547.885</ele>
        <time>2012-01-24T11:39:41Z</time>
      </trkpt>
      <trkpt lat="45.68269" lon="6.54047">
        <ele>1547.951</ele>
        <time>2012-01-24T11:39:51Z</time>
      </trkpt>
      <trkpt lat="45.68267" lon="6.54043">
        <ele>1548.281</ele>
        <time>2012-01-24T11:40:01Z</time>
      </trkpt>
      <trkpt lat="45.68266" lon="6.54042">
        <ele>1547.858</ele>
        <time>2012-01-24T11:40:11Z</time>
      </trkpt>
      <trkpt lat="45.68266" lon="6.54042">
        <ele>1547.795</ele>
        <time>2012-01-24T11:40:21Z</time>
      </trkpt>
      <trkpt lat="45.68265" lon="6.54052">
        <ele>1547.864</ele>
        <time>2012-01-24T11:40:31Z</time>
      </trkpt>
      <trkpt lat="45.68263" lon="6.54055">
        <ele>1547.983</ele>
        <time>2012-01-24T11:40:41Z</time>
      </trkpt>
      <trkpt lat="45.68264" lon="6.54056">
        <ele>1548.115</ele>
        <time>2012-01-24T11:40:51Z</time>
      </trkpt>
      <trkpt lat="45.68265" lon="6.54056">
        <ele>1546.397</ele>
        <time>2012-01-24T11:41:01Z</time>
      </trkpt>
      <trkpt lat="45.68266" lon="6.54056">
        <ele>1547.689</ele>
        <time>2012-01-24T11:41:11Z</time>
      </trkpt>
      <trkpt lat="45.68266" lon="6.54058">
        <ele>1547.983</ele>
        <time>2012-01-24T11:41:21Z</time>
      </trkpt>
      <trkpt lat="45.68267" lon="6.54059">
        <ele>1547.592</ele>
        <time>2012-01-24T11:41:31Z</time>
      </trkpt>
      <trkpt lat="45.68265" lon="6.54064">
        <ele>1547.972</ele>
        <time>2012-01-24T11:41:41Z</time>
      </trkpt>
      <trkpt lat="45.68266" lon="6.54065">
        <ele>1548.146</ele>
        <time>2012-01-24T11:41:51Z</time>
      </trkpt>
      <trkpt lat="45.68265" lon="6.54067">
        <ele>1547.629</ele>
        <time>2012-01-24T11:42:01Z</time>
      </trkpt>
      <trkpt lat="45.68264" lon="6.54065">
        <ele>1548.247</ele>
        <time>2012-01-24T11:42:11Z</time>
      </trkpt>
      <trkpt lat="45.68264" lon="6.54064">
        <ele>1547.354</ele>
        <time>2012-01-24T11:42:21Z</time>
      </trkpt>
      <trkpt lat="45.68265" lon="6.54063">
        <ele>1547.891</ele>
        <time>2012-01-24T11:42:31Z</time>
      </trkpt>
      <trkpt lat="45.6827" lon="6.54048">
        <ele>1547.757</ele>
        <time>2012-01-24T11:42:41Z</time>
      </trkpt>
      <trkpt lat="45.68275" lon="6.54044">
        <ele>1547.569</ele>
        <time>2012-01-24T11:42:51Z</time>
      </trkpt>
      <trkpt lat="45.68273" lon="6.54046">
        <ele>1548</ele>
        <time>2012-01-24T11:43:01Z</time>
      </trkpt>
      <trkpt lat="45.68271" lon="6.54045">
        <ele>1547.72</ele>
        <time>2012-01-24T11:43:11Z</time>
      </trkpt>
      <trkpt lat="45.68269" lon="6.54046">
        <ele>1548.155</ele>
        <time>2012-01-24T11:43:21Z</time>
      </trkpt>
      <trkpt lat="45.6827" lon="6.54048">
        <ele>1547.904</ele>
        <time>2012-01-24T11:43:31Z</time>
      </trkpt>
      <trkpt lat="45.68272" lon="6.54048">
        <ele>1547.923</ele>
        <time>2012-01-24T11:43:41Z</time>
      </trkpt>
      <trkpt lat="45.68272" lon="6.54055">
        <ele>1547.896</ele>
        <time>2012-01-24T11:43:51Z</time>
      </trkpt>
      <trkpt lat="45.68269" lon="6.54056">
        <ele>1547.878</ele>
        <time>2012-01-24T11:44:01Z</time>
      </trkpt>
      <trkpt lat="45.68267" lon="6.54055">
        <ele>1547.73</ele>
        <time>2012-01-24T11:44:11Z</time>
      </trkpt>
      <trkpt lat="45.68266" lon="6.54057">
        <ele>1548.042</ele>
        <time>2012-01-24T11:44:21Z</time>
      </trkpt>
      <trkpt lat="45.68266" lon="6.54058">
        <ele>1547.822</ele>
        <time>2012-01-24T11:44:31Z</time>
      </trkpt>
      <trkpt lat="45.68266" lon="6.54057">
        <ele>1547.817</ele>
        <time>2012-01-24T11:44:41Z</time>
      </trkpt>
      <trkpt lat="45.68267" lon="6.54056">
        <ele>1548.092</ele>
        <time>2012-01-24T11:44:51Z</time>
      </trkpt>
      <trkpt lat="45.68267" lon="6.54055">
        <ele>1548.184</ele>
        <time>2012-01-24T11:45:01Z</time>
      </trkpt>
      <trkpt lat="45.68264" lon="6.54058">
        <ele>1547.817</ele>
        <time>2012-01-24T11:45:11Z</time>
      </trkpt>
      <trkpt lat="45.68264" lon="6.54058">
        <ele>1548.253</ele>
        <time>2012-01-24T11:45:21Z</time>
      </trkpt>
      <trkpt lat="45.68265" lon="6.54059">
        <ele>1548.285</ele>
        <time>2012-01-24T11:45:31Z</time>
      </trkpt>
      <trkpt lat="45.68267" lon="6.54058">
        <ele>1548.258</ele>
        <time>2012-01-24T11:45:41Z</time>
      </trkpt>
      <trkpt lat="45.68266" lon="6.54056">
        <ele>1547.901</ele>
        <time>2012-01-24T11:45:51Z</time>
      </trkpt>
      <trkpt lat="45.68266" lon="6.54057">
        <ele>1548.295</ele>
        <time>2012-01-24T11:46:01Z</time>
      </trkpt>
      <trkpt lat="45.68262" lon="6.54066">
        <ele>1548.123</ele>
        <time>2012-01-24T11:46:11Z</time>
      </trkpt>
      <trkpt lat="45.68266" lon="6.5406">
        <ele>1548.895</ele>
        <time>2012-01-24T11:46:21Z</time>
      </trkpt>
      <trkpt lat="45.68267" lon="6.5406">
        <ele>1548.422</ele>
        <time>2012-01-24T11:46:31Z</time>
      </trkpt>
      <trkpt lat="45.68267" lon="6.54058">
        <ele>1548.271</ele>
        <time>2012-01-24T11:46:41Z</time>
      </trkpt>
      <trkpt lat="45.68267" lon="6.54055">
        <ele>1549.069</ele>
        <time>2012-01-24T11:46:51Z</time>
      </trkpt>
      <trkpt lat="45.68267" lon="6.54055">
        <ele>1548.792</ele>
        <time>2012-01-24T11:47:01Z</time>
      </trkpt>
      <trkpt lat="45.68267" lon="6.54055">
        <ele>1548.945</ele>
        <time>2012-01-24T11:47:11Z</time>
      </trkpt>
      <trkpt lat="45.68267" lon="6.54056">
        <ele>1549.038</ele>
        <time>2012-01-24T11:47:21Z</time>
      </trkpt>
      <trkpt lat="45.68266" lon="6.5406">
        <ele>1548.893</ele>
        <time>2012-01-24T11:47:31Z</time>
      </trkpt>
      <trkpt lat="45.68264" lon="6.54056">
        <ele>1549.142</ele>
        <time>2012-01-24T11:47:41Z</time>
      </trkpt>
      <trkpt lat="45.68264" lon="6.54054">
        <ele>1549.003</ele>
        <time>2012-01-24T11:47:51Z</time>
      </trkpt>
      <trkpt lat="45.68265" lon="6.54051">
        <ele>1549.089</ele>
        <time>2012-01-24T11:48:01Z</time>
      </trkpt>
      <trkpt lat="45.68266" lon="6.5405">
        <ele>1548.465</ele>
        <time>2012-01-24T11:48:11Z</time>
      </trkpt>
      <trkpt lat="45.68268" lon="6.54049">
        <ele>1548.674</ele>
        <time>2012-01-24T11:48:21Z</time>
      </trkpt>
      <trkpt lat="45.68268" lon="6.54049">
        <ele>1548.892</ele>
        <time>2012-01-24T11:48:31Z</time>
      </trkpt>
      <trkpt lat="45.68268" lon="6.54049">
        <ele>1548.306</ele>
        <time>2012-01-24T11:48:41Z</time>
      </trkpt>
      <trkpt lat="45.68267" lon="6.54048">
        <ele>1548.938</ele>
        <time>2012-01-24T11:48:51Z</time>
      </trkpt>
      <trkpt lat="45.68266" lon="6.54047">
        <ele>1549.032</ele>
        <time>2012-01-24T11:49:01Z</time>
      </trkpt>
      <trkpt lat="45.68266" lon="6.54048">
        <ele>1548.92</ele>
        <time>2012-01-24T11:49:11Z</time>
      </trkpt>
      <trkpt lat="45.68265" lon="6.5405">
        <ele>1548.926</ele>
        <time>2012-01-24T11:49:21Z</time>
      </trkpt>
      <trkpt lat="45.68265" lon="6.54049">
        <ele>1548.933</ele>
        <time>2012-01-24T11:49:31Z</time>
      </trkpt>
      <trkpt lat="45.68265" lon="6.54049">
        <ele>1548.588</ele>
        <time>2012-01-24T11:49:41Z</time>
      </trkpt>
      <trkpt lat="45.68265" lon="6.54049">
        <ele>1548.499</ele>
        <time>2012-01-24T11:49:51Z</time>
      </trkpt>
      <trkpt lat="45.68265" lon="6.54049">
        <ele>1548.247</ele>
        <time>2012-01-24T11:50:01Z</time>
      </trkpt>
      <trkpt lat="45.68265" lon="6.54049">
        <ele>1548.377</ele>
        <time>2012-01-24T11:50:11Z</time>
      </trkpt>
      <trkpt lat="45.68265" lon="6.54049">
        <ele>1548.368</ele>
        <time>2012-01-24T11:50:21Z</time>
      </trkpt>
      <trkpt lat="45.68264" lon="6.54051">
        <ele>1548.586</ele>
        <time>2012-01-24T11:50:31Z</time>
      </trkpt>
      <trkpt lat="45.68264" lon="6.54052">
        <ele>1548.503</ele>
        <time>2012-01-24T11:50:41Z</time>
      </trkpt>
      <trkpt lat="45.68263" lon="6.54051">
        <ele>1548.459</ele>
        <time>2012-01-24T11:50:51Z</time>
      </trkpt>
      <trkpt lat="45.68263" lon="6.54052">
        <ele>1548.403</ele>
        <time>2012-01-24T11:51:01Z</time>
      </trkpt>
      <trkpt lat="45.68263" lon="6.54052">
        <ele>1548.302</ele>
        <time>2012-01-24T11:51:11Z</time>
      </trkpt>
      <trkpt lat="45.68263" lon="6.54052">
        <ele>1548.624</ele>
        <time>2012-01-24T11:51:21Z</time>
      </trkpt>
      <trkpt lat="45.68263" lon="6.54052">
        <ele>1548.786</ele>
        <time>2012-01-24T11:51:31Z</time>
      </trkpt>
      <trkpt lat="45.68263" lon="6.54052">
        <ele>1547.974</ele>
        <time>2012-01-24T11:51:41Z</time>
      </trkpt>
      <trkpt lat="45.68263" lon="6.54052">
        <ele>1548.362</ele>
        <time>2012-01-24T11:51:51Z</time>
      </trkpt>
      <trkpt lat="45.68263" lon="6.54052">
        <ele>1548.147</ele>
        <time>2012-01-24T11:52:01Z</time>
      </trkpt>
      <trkpt lat="45.68263" lon="6.54052">
        <ele>1547.965</ele>
        <time>2012-01-24T11:52:11Z</time>
      </trkpt>
      <trkpt lat="45.68263" lon="6.54052">
        <ele>1548.166</ele>
        <time>2012-01-24T11:52:21Z</time>
      </trkpt>
      <trkpt lat="45.68264" lon="6.54052">
        <ele>1548.331</ele>
        <time>2012-01-24T11:52:31Z</time>
      </trkpt>
      <trkpt lat="45.68264" lon="6.54053">
        <ele>1548.038</ele>
        <time>2012-01-24T11:52:41Z</time>
      </trkpt>
      <trkpt lat="45.68264" lon="6.54053">
        <ele>1548.2</ele>
        <time>2012-01-24T11:52:51Z</time>
      </trkpt>
      <trkpt lat="45.68266" lon="6.54053">
        <ele>1546.679</ele>
        <time>2012-01-24T11:53:01Z</time>
      </trkpt>
      <trkpt lat="45.68268" lon="6.54053">
        <ele>1548.318</ele>
        <time>2012-01-24T11:53:11Z</time>
      </trkpt>
      <trkpt lat="45.68271" lon="6.54053">
        <ele>1549.514</ele>
        <time>2012-01-24T11:53:21Z</time>
      </trkpt>
      <trkpt lat="45.68273" lon="6.54053">
        <ele>1547.929</ele>
        <time>2012-01-24T11:53:31Z</time>
      </trkpt>
      <trkpt lat="45.68275" lon="6.54051">
        <ele>1547.718</ele>
        <time>2012-01-24T11:53:41Z</time>
      </trkpt>
      <trkpt lat="45.68275" lon="6.54049">
        <ele>1548.589</ele>
        <time>2012-01-24T11:53:51Z</time>
      </trkpt>
      <trkpt lat="45.68276" lon="6.54047">
        <ele>1547.525</ele>
        <time>2012-01-24T11:54:01Z</time>
      </trkpt>
      <trkpt lat="45.68276" lon="6.54044">
        <ele>1550.089</ele>
        <time>2012-01-24T11:54:11Z</time>
      </trkpt>
      <trkpt lat="45.68276" lon="6.54042">
        <ele>1547.876</ele>
        <time>2012-01-24T11:54:21Z</time>
      </trkpt>
      <trkpt lat="45.68272" lon="6.5404">
        <ele>1544.259</ele>
        <time>2012-01-24T11:54:31Z</time>
      </trkpt>
      <trkpt lat="45.68266" lon="6.54038">
        <ele>1547.698</ele>
        <time>2012-01-24T11:54:41Z</time>
      </trkpt>
      <trkpt lat="45.6826" lon="6.54043">
        <ele>1547.815</ele>
        <time>2012-01-24T11:54:51Z</time>
      </trkpt>
      <trkpt lat="45.68258" lon="6.54052">
        <ele>1550.94</ele>
        <time>2012-01-24T11:55:01Z</time>
      </trkpt>
      <trkpt lat="45.68261" lon="6.54054">
        <ele>1548.022</ele>
        <time>2012-01-24T11:55:11Z</time>
      </trkpt>
      <trkpt lat="45.68263" lon="6.54056">
        <ele>1547.763</ele>
        <time>2012-01-24T11:55:21Z</time>
      </trkpt>
      <trkpt lat="45.68264" lon="6.5406">
        <ele>1549.188</ele>
        <time>2012-01-24T11:55:31Z</time>
      </trkpt>
      <trkpt lat="45.68265" lon="6.54063">
        <ele>1548.128</ele>
        <time>2012-01-24T11:55:41Z</time>
      </trkpt>
      <trkpt lat="45.68262" lon="6.54073">
        <ele>1547.843</ele>
        <time>2012-01-24T11:55:51Z</time>
      </trkpt>
      <trkpt lat="45.68265" lon="6.54075">
        <ele>1548.004</ele>
        <time>2012-01-24T11:56:01Z</time>
      </trkpt>
      <trkpt lat="45.68266" lon="6.5407">
        <ele>1547.297</ele>
        <time>2012-01-24T11:56:11Z</time>
      </trkpt>
      <trkpt lat="45.68265" lon="6.54068">
        <ele>1547.948</ele>
        <time>2012-01-24T11:56:21Z</time>
      </trkpt>
      <trkpt lat="45.6826" lon="6.54057">
        <ele>1548.157</ele>
        <time>2012-01-24T11:56:31Z</time>
      </trkpt>
      <trkpt lat="45.68256" lon="6.54063">
        <ele>1547.512</ele>
        <time>2012-01-24T11:56:41Z</time>
      </trkpt>
      <trkpt lat="45.68264" lon="6.54067">
        <ele>1547.557</ele>
        <time>2012-01-24T11:56:51Z</time>
      </trkpt>
      <trkpt lat="45.68265" lon="6.54063">
        <ele>1547.713</ele>
        <time>2012-01-24T11:57:01Z</time>
      </trkpt>
      <trkpt lat="45.68265" lon="6.54063">
        <ele>1547.687</ele>
        <time>2012-01-24T11:57:11Z</time>
      </trkpt>
      <trkpt lat="45.68266" lon="6.54066">
        <ele>1546.746</ele>
        <time>2012-01-24T11:57:21Z</time>
      </trkpt>
      <trkpt lat="45.68266" lon="6.54066">
        <ele>1548.075</ele>
        <time>2012-01-24T11:57:31Z</time>
      </trkpt>
      <trkpt lat="45.68263" lon="6.54066">
        <ele>1547.869</ele>
        <time>2012-01-24T11:57:41Z</time>
      </trkpt>
      <trkpt lat="45.68262" lon="6.5406">
        <ele>1548.955</ele>
        <time>2012-01-24T11:57:51Z</time>
      </trkpt>
      <trkpt lat="45.68263" lon="6.5406">
        <ele>1548.281</ele>
        <time>2012-01-24T11:58:01Z</time>
      </trkpt>
      <trkpt lat="45.68263" lon="6.54059">
        <ele>1548.447</ele>
        <time>2012-01-24T11:58:11Z</time>
      </trkpt>
      <trkpt lat="45.68263" lon="6.54059">
        <ele>1548.375</ele>
        <time>2012-01-24T11:58:21Z</time>
      </trkpt>
      <trkpt lat="45.68263" lon="6.54059">
        <ele>1549.227</ele>
        <time>2012-01-24T11:58:31Z</time>
      </trkpt>
      <trkpt lat="45.68263" lon="6.54059">
        <ele>1550.637</ele>
        <time>2012-01-24T11:58:41Z</time>
      </trkpt>
      <trkpt lat="45.68268" lon="6.54055">
        <ele>1551.218</ele>
        <time>2012-01-24T11:58:51Z</time>
      </trkpt>
      <trkpt lat="45.68275" lon="6.5404">
        <ele>1551.837</ele>
        <time>2012-01-24T11:59:01Z</time>
      </trkpt>
      <trkpt lat="45.68278" lon="6.54027">
        <ele>1552.659</ele>
        <time>2012-01-24T11:59:11Z</time>
      </trkpt>
      <trkpt lat="45.68279" lon="6.54025">
        <ele>1552.319</ele>
        <time>2012-01-24T11:59:21Z</time>
      </trkpt>
      <trkpt lat="45.68278" lon="6.54024">
        <ele>1552.492</ele>
        <time>2012-01-24T11:59:31Z</time>
      </trkpt>
      <trkpt lat="45.68278" lon="6.54025">
        <ele>1552.351</ele>
        <time>2012-01-24T11:59:41Z</time>
      </trkpt>
      <trkpt lat="45.68278" lon="6.54023">
        <ele>1552.05</ele>
        <time>2012-01-24T11:59:51Z</time>
      </trkpt>
      <trkpt lat="45.68277" lon="6.54021">
        <ele>1552.156</ele>
        <time>2012-01-24T12:00:01Z</time>
      </trkpt>
      <trkpt lat="45.68277" lon="6.54022">
        <ele>1551.987</ele>
        <time>2012-01-24T12:00:11Z</time>
      </trkpt>
      <trkpt lat="45.6828" lon="6.54026">
        <ele>1552.234</ele>
        <time>2012-01-24T12:00:21Z</time>
      </trkpt>
      <trkpt lat="45.6828" lon="6.54025">
        <ele>1552.027</ele>
        <time>2012-01-24T12:00:31Z</time>
      </trkpt>
      <trkpt lat="45.6828" lon="6.54025">
        <ele>1552.303</ele>
        <time>2012-01-24T12:00:41Z</time>
      </trkpt>
      <trkpt lat="45.68282" lon="6.54018">
        <ele>1552.265</ele>
        <time>2012-01-24T12:00:51Z</time>
      </trkpt>
      <trkpt lat="45.68289" lon="6.54009">
        <ele>1553.03</ele>
        <time>2012-01-24T12:01:01Z</time>
      </trkpt>
      <trkpt lat="45.68289" lon="6.54008">
        <ele>1553.776</ele>
        <time>2012-01-24T12:01:11Z</time>
      </trkpt>
      <trkpt lat="45.6829" lon="6.54005">
        <ele>1555.369</ele>
        <time>2012-01-24T12:01:21Z</time>
      </trkpt>
      <trkpt lat="45.68286" lon="6.53998">
        <ele>1556.561</ele>
        <time>2012-01-24T12:01:31Z</time>
      </trkpt>
      <trkpt lat="45.68286" lon="6.53993">
        <ele>1557.93</ele>
        <time>2012-01-24T12:01:41Z</time>
      </trkpt>
      <trkpt lat="45.68289" lon="6.53988">
        <ele>1559.099</ele>
        <time>2012-01-24T12:01:51Z</time>
      </trkpt>
      <trkpt lat="45.68289" lon="6.53979">
        <ele>1560.524</ele>
        <time>2012-01-24T12:02:01Z</time>
      </trkpt>
      <trkpt lat="45.68284" lon="6.53973">
        <ele>1562.593</ele>
        <time>2012-01-24T12:02:11Z</time>
      </trkpt>
      <trkpt lat="45.68279" lon="6.53975">
        <ele>1562.752</ele>
        <time>2012-01-24T12:02:21Z</time>
      </trkpt>
      <trkpt lat="45.68276" lon="6.53969">
        <ele>1565.295</ele>
        <time>2012-01-24T12:02:31Z</time>
      </trkpt>
      <trkpt lat="45.6827" lon="6.53967">
        <ele>1566.492</ele>
        <time>2012-01-24T12:02:41Z</time>
      </trkpt>
      <trkpt lat="45.68266" lon="6.53962">
        <ele>1567.946</ele>
        <time>2012-01-24T12:02:51Z</time>
      </trkpt>
      <trkpt lat="45.68263" lon="6.53956">
        <ele>1569.608</ele>
        <time>2012-01-24T12:03:01Z</time>
      </trkpt>
      <trkpt lat="45.68261" lon="6.53951">
        <ele>1571.518</ele>
        <time>2012-01-24T12:03:11Z</time>
      </trkpt>
      <trkpt lat="45.68258" lon="6.53941">
        <ele>1572.599</ele>
        <time>2012-01-24T12:03:21Z</time>
      </trkpt>
      <trkpt lat="45.68257" lon="6.53938">
        <ele>1574.53</ele>
        <time>2012-01-24T12:03:31Z</time>
      </trkpt>
      <trkpt lat="45.68261" lon="6.53938">
        <ele>1575.457</ele>
        <time>2012-01-24T12:03:41Z</time>
      </trkpt>
      <trkpt lat="45.68267" lon="6.53937">
        <ele>1574.566</ele>
        <time>2012-01-24T12:03:51Z</time>
      </trkpt>
      <trkpt lat="45.68274" lon="6.5394">
        <ele>1576.536</ele>
        <time>2012-01-24T12:04:01Z</time>
      </trkpt>
      <trkpt lat="45.68275" lon="6.5394">
        <ele>1576.75</ele>
        <time>2012-01-24T12:04:11Z</time>
      </trkpt>
      <trkpt lat="45.68275" lon="6.53941">
        <ele>1576.467</ele>
        <time>2012-01-24T12:04:21Z</time>
      </trkpt>
      <trkpt lat="45.68274" lon="6.5394">
        <ele>1576.382</ele>
        <time>2012-01-24T12:04:31Z</time>
      </trkpt>
      <trkpt lat="45.68272" lon="6.5394">
        <ele>1576.314</ele>
        <time>2012-01-24T12:04:41Z</time>
      </trkpt>
      <trkpt lat="45.68273" lon="6.5394">
        <ele>1577.081</ele>
        <time>2012-01-24T12:04:51Z</time>
      </trkpt>
      <trkpt lat="45.68277" lon="6.53935">
        <ele>1578.751</ele>
        <time>2012-01-24T12:05:01Z</time>
      </trkpt>
      <trkpt lat="45.68278" lon="6.53931">
        <ele>1579.503</ele>
        <time>2012-01-24T12:05:11Z</time>
      </trkpt>
      <trkpt lat="45.68281" lon="6.53932">
        <ele>1581.022</ele>
        <time>2012-01-24T12:05:21Z</time>
      </trkpt>
      <trkpt lat="45.68284" lon="6.53934">
        <ele>1581.667</ele>
        <time>2012-01-24T12:05:31Z</time>
      </trkpt>
      <trkpt lat="45.68286" lon="6.53934">
        <ele>1583.393</ele>
        <time>2012-01-24T12:05:41Z</time>
      </trkpt>
      <trkpt lat="45.68292" lon="6.53929">
        <ele>1584.243</ele>
        <time>2012-01-24T12:05:51Z</time>
      </trkpt>
      <trkpt lat="45.68294" lon="6.53929">
        <ele>1585.151</ele>
        <time>2012-01-24T12:06:01Z</time>
      </trkpt>
      <trkpt lat="45.68297" lon="6.53928">
        <ele>1586.483</ele>
        <time>2012-01-24T12:06:11Z</time>
      </trkpt>
      <trkpt lat="45.68298" lon="6.53926">
        <ele>1587.45</ele>
        <time>2012-01-24T12:06:21Z</time>
      </trkpt>
      <trkpt lat="45.68295" lon="6.53922">
        <ele>1588.529</ele>
        <time>2012-01-24T12:06:31Z</time>
      </trkpt>
      <trkpt lat="45.68289" lon="6.5392">
        <ele>1590.054</ele>
        <time>2012-01-24T12:06:41Z</time>
      </trkpt>
      <trkpt lat="45.68286" lon="6.53912">
        <ele>1592.137</ele>
        <time>2012-01-24T12:06:51Z</time>
      </trkpt>
      <trkpt lat="45.68291" lon="6.53908">
        <ele>1591.576</ele>
        <time>2012-01-24T12:07:01Z</time>
      </trkpt>
      <trkpt lat="45.68298" lon="6.53905">
        <ele>1592.199</ele>
        <time>2012-01-24T12:07:11Z</time>
      </trkpt>
      <trkpt lat="45.68298" lon="6.53897">
        <ele>1591.987</ele>
        <time>2012-01-24T12:07:21Z</time>
      </trkpt>
      <trkpt lat="45.68299" lon="6.53899">
        <ele>1592.046</ele>
        <time>2012-01-24T12:07:31Z</time>
      </trkpt>
      <trkpt lat="45.68299" lon="6.53901">
        <ele>1592.052</ele>
        <time>2012-01-24T12:07:41Z</time>
      </trkpt>
      <trkpt lat="45.68303" lon="6.53906">
        <ele>1592.276</ele>
        <time>2012-01-24T12:07:51Z</time>
      </trkpt>
      <trkpt lat="45.68307" lon="6.5391">
        <ele>1591.997</ele>
        <time>2012-01-24T12:08:01Z</time>
      </trkpt>
      <trkpt lat="45.68306" lon="6.5391">
        <ele>1592.258</ele>
        <time>2012-01-24T12:08:11Z</time>
      </trkpt>
      <trkpt lat="45.68305" lon="6.53911">
        <ele>1591.351</ele>
        <time>2012-01-24T12:08:21Z</time>
      </trkpt>
      <trkpt lat="45.68306" lon="6.53912">
        <ele>1592.189</ele>
        <time>2012-01-24T12:08:31Z</time>
      </trkpt>
      <trkpt lat="45.68306" lon="6.53915">
        <ele>1592.249</ele>
        <time>2012-01-24T12:08:41Z</time>
      </trkpt>
      <trkpt lat="45.68307" lon="6.53916">
        <ele>1592.845</ele>
        <time>2012-01-24T12:08:51Z</time>
      </trkpt>
      <trkpt lat="45.68307" lon="6.53916">
        <ele>1593.762</ele>
        <time>2012-01-24T12:09:01Z</time>
      </trkpt>
      <trkpt lat="45.68309" lon="6.53917">
        <ele>1595.599</ele>
        <time>2012-01-24T12:09:11Z</time>
      </trkpt>
      <trkpt lat="45.68315" lon="6.53919">
        <ele>1597.25</ele>
        <time>2012-01-24T12:09:21Z</time>
      </trkpt>
      <trkpt lat="45.68322" lon="6.5392">
        <ele>1598.73</ele>
        <time>2012-01-24T12:09:31Z</time>
      </trkpt>
      <trkpt lat="45.68325" lon="6.53921">
        <ele>1600.366</ele>
        <time>2012-01-24T12:09:41Z</time>
      </trkpt>
      <trkpt lat="45.68329" lon="6.53919">
        <ele>1602.397</ele>
        <time>2012-01-24T12:09:51Z</time>
      </trkpt>
      <trkpt lat="45.68336" lon="6.53915">
        <ele>1602.955</ele>
        <time>2012-01-24T12:10:01Z</time>
      </trkpt>
      <trkpt lat="45.6834" lon="6.53911">
        <ele>1604.341</ele>
        <time>2012-01-24T12:10:11Z</time>
      </trkpt>
      <trkpt lat="45.68345" lon="6.53908">
        <ele>1606.134</ele>
        <time>2012-01-24T12:10:21Z</time>
      </trkpt>
      <trkpt lat="45.68352" lon="6.53901">
        <ele>1606.823</ele>
        <time>2012-01-24T12:10:31Z</time>
      </trkpt>
      <trkpt lat="45.68357" lon="6.53898">
        <ele>1608.494</ele>
        <time>2012-01-24T12:10:41Z</time>
      </trkpt>
      <trkpt lat="45.68359" lon="6.53896">
        <ele>1608.83</ele>
        <time>2012-01-24T12:10:51Z</time>
      </trkpt>
      <trkpt lat="45.68365" lon="6.53892">
        <ele>1610.164</ele>
        <time>2012-01-24T12:11:01Z</time>
      </trkpt>
      <trkpt lat="45.68371" lon="6.53887">
        <ele>1610.926</ele>
        <time>2012-01-24T12:11:11Z</time>
      </trkpt>
      <trkpt lat="45.68376" lon="6.53885">
        <ele>1612.672</ele>
        <time>2012-01-24T12:11:21Z</time>
      </trkpt>
      <trkpt lat="45.68381" lon="6.53884">
        <ele>1613.45</ele>
        <time>2012-01-24T12:11:31Z</time>
      </trkpt>
      <trkpt lat="45.68383" lon="6.53887">
        <ele>1615.476</ele>
        <time>2012-01-24T12:11:41Z</time>
      </trkpt>
      <trkpt lat="45.68386" lon="6.53885">
        <ele>1616.355</ele>
        <time>2012-01-24T12:11:51Z</time>
      </trkpt>
      <trkpt lat="45.68393" lon="6.53875">
        <ele>1618.454</ele>
        <time>2012-01-24T12:12:01Z</time>
      </trkpt>
      <trkpt lat="45.68398" lon="6.53871">
        <ele>1619.692</ele>
        <time>2012-01-24T12:12:11Z</time>
      </trkpt>
      <trkpt lat="45.68402" lon="6.5387">
        <ele>1620.49</ele>
        <time>2012-01-24T12:12:21Z</time>
      </trkpt>
      <trkpt lat="45.68406" lon="6.53869">
        <ele>1622.38</ele>
        <time>2012-01-24T12:12:31Z</time>
      </trkpt>
      <trkpt lat="45.6841" lon="6.53866">
        <ele>1624.16</ele>
        <time>2012-01-24T12:12:41Z</time>
      </trkpt>
      <trkpt lat="45.68415" lon="6.53866">
        <ele>1624.589</ele>
        <time>2012-01-24T12:12:51Z</time>
      </trkpt>
      <trkpt lat="45.68415" lon="6.53867">
        <ele>1624.717</ele>
        <time>2012-01-24T12:13:01Z</time>
      </trkpt>
      <trkpt lat="45.68416" lon="6.53867">
        <ele>1625.07</ele>
        <time>2012-01-24T12:13:11Z</time>
      </trkpt>
      <trkpt lat="45.68417" lon="6.53869">
        <ele>1625.013</ele>
        <time>2012-01-24T12:13:21Z</time>
      </trkpt>
      <trkpt lat="45.68419" lon="6.53871">
        <ele>1624.33</ele>
        <time>2012-01-24T12:13:31Z</time>
      </trkpt>
      <trkpt lat="45.6842" lon="6.5387">
        <ele>1624.579</ele>
        <time>2012-01-24T12:13:41Z</time>
      </trkpt>
      <trkpt lat="45.68423" lon="6.53869">
        <ele>1624.858</ele>
        <time>2012-01-24T12:13:51Z</time>
      </trkpt>
      <trkpt lat="45.68431" lon="6.53872">
        <ele>1624.946</ele>
        <time>2012-01-24T12:14:01Z</time>
      </trkpt>
      <trkpt lat="45.68432" lon="6.53875">
        <ele>1619.755</ele>
        <time>2012-01-24T12:14:11Z</time>
      </trkpt>
      <trkpt lat="45.68425" lon="6.53882">
        <ele>1625.068</ele>
        <time>2012-01-24T12:14:21Z</time>
      </trkpt>
      <trkpt lat="45.68415" lon="6.53884">
        <ele>1625.231</ele>
        <time>2012-01-24T12:14:31Z</time>
      </trkpt>
      <trkpt lat="45.68414" lon="6.53889">
        <ele>1625.347</ele>
        <time>2012-01-24T12:14:41Z</time>
      </trkpt>
      <trkpt lat="45.68419" lon="6.53891">
        <ele>1625.334</ele>
        <time>2012-01-24T12:14:51Z</time>
      </trkpt>
      <trkpt lat="45.68419" lon="6.53891">
        <ele>1625.123</ele>
        <time>2012-01-24T12:15:01Z</time>
      </trkpt>
      <trkpt lat="45.68419" lon="6.53889">
        <ele>1625.049</ele>
        <time>2012-01-24T12:15:11Z</time>
      </trkpt>
      <trkpt lat="45.68419" lon="6.53886">
        <ele>1625.526</ele>
        <time>2012-01-24T12:15:21Z</time>
      </trkpt>
      <trkpt lat="45.68418" lon="6.53885">
        <ele>1625.882</ele>
        <time>2012-01-24T12:15:31Z</time>
      </trkpt>
      <trkpt lat="45.68417" lon="6.53884">
        <ele>1625.26</ele>
        <time>2012-01-24T12:15:41Z</time>
      </trkpt>
      <trkpt lat="45.68417" lon="6.53884">
        <ele>1625.699</ele>
        <time>2012-01-24T12:15:51Z</time>
      </trkpt>
      <trkpt lat="45.6842" lon="6.53876">
        <ele>1625.663</ele>
        <time>2012-01-24T12:16:01Z</time>
      </trkpt>
      <trkpt lat="45.68419" lon="6.53871">
        <ele>1625.599</ele>
        <time>2012-01-24T12:16:11Z</time>
      </trkpt>
      <trkpt lat="45.68419" lon="6.53873">
        <ele>1625.439</ele>
        <time>2012-01-24T12:16:21Z</time>
      </trkpt>
      <trkpt lat="45.68418" lon="6.53874">
        <ele>1626.865</ele>
        <time>2012-01-24T12:16:31Z</time>
      </trkpt>
      <trkpt lat="45.68421" lon="6.5387">
        <ele>1627.691</ele>
        <time>2012-01-24T12:16:41Z</time>
      </trkpt>
      <trkpt lat="45.68425" lon="6.53861">
        <ele>1629.05</ele>
        <time>2012-01-24T12:16:51Z</time>
      </trkpt>
      <trkpt lat="45.68431" lon="6.53857">
        <ele>1630.409</ele>
        <time>2012-01-24T12:17:01Z</time>
      </trkpt>
      <trkpt lat="45.68433" lon="6.53849">
        <ele>1632.224</ele>
        <time>2012-01-24T12:17:11Z</time>
      </trkpt>
      <trkpt lat="45.68441" lon="6.53846">
        <ele>1633.461</ele>
        <time>2012-01-24T12:17:21Z</time>
      </trkpt>
      <trkpt lat="45.68447" lon="6.53843">
        <ele>1634.902</ele>
        <time>2012-01-24T12:17:31Z</time>
      </trkpt>
      <trkpt lat="45.68451" lon="6.5384">
        <ele>1636.17</ele>
        <time>2012-01-24T12:17:41Z</time>
      </trkpt>
      <trkpt lat="45.68455" lon="6.53835">
        <ele>1638.63</ele>
        <time>2012-01-24T12:17:51Z</time>
      </trkpt>
      <trkpt lat="45.68457" lon="6.53833">
        <ele>1640.11</ele>
        <time>2012-01-24T12:18:01Z</time>
      </trkpt>
      <trkpt lat="45.6846" lon="6.53828">
        <ele>1641.106</ele>
        <time>2012-01-24T12:18:11Z</time>
      </trkpt>
      <trkpt lat="45.68462" lon="6.53826">
        <ele>1642.567</ele>
        <time>2012-01-24T12:18:21Z</time>
      </trkpt>
      <trkpt lat="45.68462" lon="6.53826">
        <ele>1643.978</ele>
        <time>2012-01-24T12:18:31Z</time>
      </trkpt>
      <trkpt lat="45.68464" lon="6.53822">
        <ele>1645.707</ele>
        <time>2012-01-24T12:18:41Z</time>
      </trkpt>
      <trkpt lat="45.68466" lon="6.53815">
        <ele>1647.523</ele>
        <time>2012-01-24T12:18:51Z</time>
      </trkpt>
      <trkpt lat="45.68468" lon="6.5381">
        <ele>1648.468</ele>
        <time>2012-01-24T12:19:01Z</time>
      </trkpt>
      <trkpt lat="45.68471" lon="6.53804">
        <ele>1650.062</ele>
        <time>2012-01-24T12:19:11Z</time>
      </trkpt>
      <trkpt lat="45.68471" lon="6.53799">
        <ele>1651.663</ele>
        <time>2012-01-24T12:19:21Z</time>
      </trkpt>
      <trkpt lat="45.68471" lon="6.53792">
        <ele>1652.96</ele>
        <time>2012-01-24T12:19:31Z</time>
      </trkpt>
      <trkpt lat="45.68468" lon="6.53789">
        <ele>1654.523</ele>
        <time>2012-01-24T12:19:41Z</time>
      </trkpt>
      <trkpt lat="45.68464" lon="6.53788">
        <ele>1655.602</ele>
        <time>2012-01-24T12:19:51Z</time>
      </trkpt>
      <trkpt lat="45.68458" lon="6.53786">
        <ele>1656.42</ele>
        <time>2012-01-24T12:20:01Z</time>
      </trkpt>
      <trkpt lat="45.68453" lon="6.53784">
        <ele>1657.777</ele>
        <time>2012-01-24T12:20:11Z</time>
      </trkpt>
      <trkpt lat="45.68448" lon="6.53782">
        <ele>1658.621</ele>
        <time>2012-01-24T12:20:21Z</time>
      </trkpt>
      <trkpt lat="45.68442" lon="6.53778">
        <ele>1660.035</ele>
        <time>2012-01-24T12:20:31Z</time>
      </trkpt>
      <trkpt lat="45.68441" lon="6.53774">
        <ele>1661.047</ele>
        <time>2012-01-24T12:20:41Z</time>
      </trkpt>
      <trkpt lat="45.68434" lon="6.53773">
        <ele>1662.343</ele>
        <time>2012-01-24T12:20:51Z</time>
      </trkpt>
      <trkpt lat="45.6844" lon="6.53767">
        <ele>1662.852</ele>
        <time>2012-01-24T12:21:01Z</time>
      </trkpt>
      <trkpt lat="45.68438" lon="6.53766">
        <ele>1663.003</ele>
        <time>2012-01-24T12:21:11Z</time>
      </trkpt>
      <trkpt lat="45.68439" lon="6.53766">
        <ele>1662.763</ele>
        <time>2012-01-24T12:21:21Z</time>
      </trkpt>
      <trkpt lat="45.68441" lon="6.53767">
        <ele>1662.877</ele>
        <time>2012-01-24T12:21:31Z</time>
      </trkpt>
      <trkpt lat="45.68445" lon="6.53772">
        <ele>1662.635</ele>
        <time>2012-01-24T12:21:41Z</time>
      </trkpt>
      <trkpt lat="45.68456" lon="6.53765">
        <ele>1662.417</ele>
        <time>2012-01-24T12:21:51Z</time>
      </trkpt>
      <trkpt lat="45.68458" lon="6.53755">
        <ele>1662.255</ele>
        <time>2012-01-24T12:22:01Z</time>
      </trkpt>
      <trkpt lat="45.68456" lon="6.53757">
        <ele>1662.069</ele>
        <time>2012-01-24T12:22:11Z</time>
      </trkpt>
      <trkpt lat="45.68455" lon="6.53757">
        <ele>1662.729</ele>
        <time>2012-01-24T12:22:21Z</time>
      </trkpt>
      <trkpt lat="45.68454" lon="6.53758">
        <ele>1662.018</ele>
        <time>2012-01-24T12:22:31Z</time>
      </trkpt>
      <trkpt lat="45.68453" lon="6.53758">
        <ele>1661.872</ele>
        <time>2012-01-24T12:22:41Z</time>
      </trkpt>
      <trkpt lat="45.68453" lon="6.53759">
        <ele>1661.921</ele>
        <time>2012-01-24T12:22:51Z</time>
      </trkpt>
      <trkpt lat="45.68452" lon="6.5376">
        <ele>1662.063</ele>
        <time>2012-01-24T12:23:01Z</time>
      </trkpt>
      <trkpt lat="45.68449" lon="6.53763">
        <ele>1661.835</ele>
        <time>2012-01-24T12:23:11Z</time>
      </trkpt>
      <trkpt lat="45.68449" lon="6.53764">
        <ele>1661.743</ele>
        <time>2012-01-24T12:23:21Z</time>
      </trkpt>
      <trkpt lat="45.68453" lon="6.5376">
        <ele>1661.521</ele>
        <time>2012-01-24T12:23:31Z</time>
      </trkpt>
      <trkpt lat="45.68457" lon="6.53763">
        <ele>1661.598</ele>
        <time>2012-01-24T12:23:41Z</time>
      </trkpt>
      <trkpt lat="45.68457" lon="6.53765">
        <ele>1661.626</ele>
        <time>2012-01-24T12:23:51Z</time>
      </trkpt>
      <trkpt lat="45.6845" lon="6.53775">
        <ele>1661.351</ele>
        <time>2012-01-24T12:24:01Z</time>
      </trkpt>
      <trkpt lat="45.68446" lon="6.53777">
        <ele>1661.114</ele>
        <time>2012-01-24T12:24:11Z</time>
      </trkpt>
      <trkpt lat="45.68445" lon="6.53778">
        <ele>1660.74</ele>
        <time>2012-01-24T12:24:21Z</time>
      </trkpt>
      <trkpt lat="45.68451" lon="6.53766">
        <ele>1661.123</ele>
        <time>2012-01-24T12:24:31Z</time>
      </trkpt>
      <trkpt lat="45.68452" lon="6.53764">
        <ele>1660.795</ele>
        <time>2012-01-24T12:24:41Z</time>
      </trkpt>
      <trkpt lat="45.6846" lon="6.53761">
        <ele>1661.112</ele>
        <time>2012-01-24T12:24:51Z</time>
      </trkpt>
      <trkpt lat="45.68463" lon="6.53757">
        <ele>1660.912</ele>
        <time>2012-01-24T12:25:01Z</time>
      </trkpt>
      <trkpt lat="45.68446" lon="6.53761">
        <ele>1660.73</ele>
        <time>2012-01-24T12:25:11Z</time>
      </trkpt>
      <trkpt lat="45.68445" lon="6.53766">
        <ele>1660.961</ele>
        <time>2012-01-24T12:25:21Z</time>
      </trkpt>
      <trkpt lat="45.68445" lon="6.53767">
        <ele>1660.397</ele>
        <time>2012-01-24T12:25:31Z</time>
      </trkpt>
      <trkpt lat="45.68447" lon="6.53766">
        <ele>1660.746</ele>
        <time>2012-01-24T12:25:41Z</time>
      </trkpt>
      <trkpt lat="45.68453" lon="6.53765">
        <ele>1660.129</ele>
        <time>2012-01-24T12:25:51Z</time>
      </trkpt>
      <trkpt lat="45.6846" lon="6.53763">
        <ele>1661.013</ele>
        <time>2012-01-24T12:26:01Z</time>
      </trkpt>
      <trkpt lat="45.68459" lon="6.53764">
        <ele>1660.847</ele>
        <time>2012-01-24T12:26:11Z</time>
      </trkpt>
      <trkpt lat="45.68458" lon="6.53764">
        <ele>1660.86</ele>
        <time>2012-01-24T12:26:21Z</time>
      </trkpt>
      <trkpt lat="45.68454" lon="6.53767">
        <ele>1661.615</ele>
        <time>2012-01-24T12:26:31Z</time>
      </trkpt>
      <trkpt lat="45.68455" lon="6.53763">
        <ele>1663.34</ele>
        <time>2012-01-24T12:26:41Z</time>
      </trkpt>
      <trkpt lat="45.6846" lon="6.53759">
        <ele>1664.436</ele>
        <time>2012-01-24T12:26:51Z</time>
      </trkpt>
      <trkpt lat="45.68465" lon="6.53755">
        <ele>1666.013</ele>
        <time>2012-01-24T12:27:01Z</time>
      </trkpt>
      <trkpt lat="45.6847" lon="6.53753">
        <ele>1667</ele>
        <time>2012-01-24T12:27:11Z</time>
      </trkpt>
      <trkpt lat="45.68474" lon="6.53752">
        <ele>1668.542</ele>
        <time>2012-01-24T12:27:21Z</time>
      </trkpt>
      <trkpt lat="45.68477" lon="6.53747">
        <ele>1670.144</ele>
        <time>2012-01-24T12:27:31Z</time>
      </trkpt>
      <trkpt lat="45.68486" lon="6.53743">
        <ele>1671.276</ele>
        <time>2012-01-24T12:27:41Z</time>
      </trkpt>
      <trkpt lat="45.6849" lon="6.5374">
        <ele>1671.499</ele>
        <time>2012-01-24T12:27:51Z</time>
      </trkpt>
      <trkpt lat="45.68491" lon="6.53739">
        <ele>1671.274</ele>
        <time>2012-01-24T12:28:01Z</time>
      </trkpt>
      <trkpt lat="45.6849" lon="6.5374">
        <ele>1671.281</ele>
        <time>2012-01-24T12:28:11Z</time>
      </trkpt>
      <trkpt lat="45.68489" lon="6.5374">
        <ele>1670.981</ele>
        <time>2012-01-24T12:28:21Z</time>
      </trkpt>
      <trkpt lat="45.6849" lon="6.53736">
        <ele>1672.401</ele>
        <time>2012-01-24T12:28:31Z</time>
      </trkpt>
      <trkpt lat="45.68496" lon="6.53732">
        <ele>1673.984</ele>
        <time>2012-01-24T12:28:41Z</time>
      </trkpt>
      <trkpt lat="45.68495" lon="6.53723">
        <ele>1675.338</ele>
        <time>2012-01-24T12:28:51Z</time>
      </trkpt>
      <trkpt lat="45.68496" lon="6.53714">
        <ele>1675.882</ele>
        <time>2012-01-24T12:29:01Z</time>
      </trkpt>
      <trkpt lat="45.685" lon="6.53709">
        <ele>1678.131</ele>
        <time>2012-01-24T12:29:11Z</time>
      </trkpt>
      <trkpt lat="45.68505" lon="6.53706">
        <ele>1680.036</ele>
        <time>2012-01-24T12:29:21Z</time>
      </trkpt>
      <trkpt lat="45.6851" lon="6.53701">
        <ele>1681.117</ele>
        <time>2012-01-24T12:29:31Z</time>
      </trkpt>
      <trkpt lat="45.68514" lon="6.53694">
        <ele>1682.708</ele>
        <time>2012-01-24T12:29:41Z</time>
      </trkpt>
      <trkpt lat="45.68517" lon="6.53686">
        <ele>1684.305</ele>
        <time>2012-01-24T12:29:51Z</time>
      </trkpt>
      <trkpt lat="45.68521" lon="6.5368">
        <ele>1685.931</ele>
        <time>2012-01-24T12:30:01Z</time>
      </trkpt>
      <trkpt lat="45.68523" lon="6.53675">
        <ele>1687.383</ele>
        <time>2012-01-24T12:30:11Z</time>
      </trkpt>
      <trkpt lat="45.68526" lon="6.5367">
        <ele>1688.567</ele>
        <time>2012-01-24T12:30:21Z</time>
      </trkpt>
      <trkpt lat="45.68531" lon="6.53667">
        <ele>1690.255</ele>
        <time>2012-01-24T12:30:31Z</time>
      </trkpt>
      <trkpt lat="45.68536" lon="6.53659">
        <ele>1691.814</ele>
        <time>2012-01-24T12:30:41Z</time>
      </trkpt>
      <trkpt lat="45.68538" lon="6.53652">
        <ele>1693.548</ele>
        <time>2012-01-24T12:30:51Z</time>
      </trkpt>
      <trkpt lat="45.6854" lon="6.53646">
        <ele>1694.844</ele>
        <time>2012-01-24T12:31:01Z</time>
      </trkpt>
      <trkpt lat="45.68541" lon="6.5364">
        <ele>1696.985</ele>
        <time>2012-01-24T12:31:11Z</time>
      </trkpt>
      <trkpt lat="45.68543" lon="6.53631">
        <ele>1698.683</ele>
        <time>2012-01-24T12:31:21Z</time>
      </trkpt>
      <trkpt lat="45.68543" lon="6.5362">
        <ele>1699.412</ele>
        <time>2012-01-24T12:31:31Z</time>
      </trkpt>
      <trkpt lat="45.6854" lon="6.53611">
        <ele>1700.622</ele>
        <time>2012-01-24T12:31:41Z</time>
      </trkpt>
      <trkpt lat="45.68537" lon="6.53602">
        <ele>1702.499</ele>
        <time>2012-01-24T12:31:51Z</time>
      </trkpt>
      <trkpt lat="45.68536" lon="6.53596">
        <ele>1703.255</ele>
        <time>2012-01-24T12:32:01Z</time>
      </trkpt>
      <trkpt lat="45.68536" lon="6.5359">
        <ele>1703.05</ele>
        <time>2012-01-24T12:32:11Z</time>
      </trkpt>
      <trkpt lat="45.68539" lon="6.53587">
        <ele>1702.384</ele>
        <time>2012-01-24T12:32:21Z</time>
      </trkpt>
      <trkpt lat="45.68542" lon="6.53592">
        <ele>1701.529</ele>
        <time>2012-01-24T12:32:31Z</time>
      </trkpt>
      <trkpt lat="45.68542" lon="6.53591">
        <ele>1702.187</ele>
        <time>2012-01-24T12:32:41Z</time>
      </trkpt>
      <trkpt lat="45.68542" lon="6.53591">
        <ele>1702.794</ele>
        <time>2012-01-24T12:32:51Z</time>
      </trkpt>
      <trkpt lat="45.68542" lon="6.53591">
        <ele>1702.704</ele>
        <time>2012-01-24T12:33:01Z</time>
      </trkpt>
      <trkpt lat="45.68542" lon="6.53591">
        <ele>1701.912</ele>
        <time>2012-01-24T12:33:11Z</time>
      </trkpt>
      <trkpt lat="45.68542" lon="6.53591">
        <ele>1701.958</ele>
        <time>2012-01-24T12:33:21Z</time>
      </trkpt>
      <trkpt lat="45.68542" lon="6.5359">
        <ele>1701.544</ele>
        <time>2012-01-24T12:33:31Z</time>
      </trkpt>
      <trkpt lat="45.68542" lon="6.5359">
        <ele>1701.896</ele>
        <time>2012-01-24T12:33:41Z</time>
      </trkpt>
      <trkpt lat="45.68542" lon="6.5359">
        <ele>1702.125</ele>
        <time>2012-01-24T12:33:51Z</time>
      </trkpt>
      <trkpt lat="45.68542" lon="6.5359">
        <ele>1701.048</ele>
        <time>2012-01-24T12:34:01Z</time>
      </trkpt>
      <trkpt lat="45.68542" lon="6.53591">
        <ele>1700.774</ele>
        <time>2012-01-24T12:34:11Z</time>
      </trkpt>
      <trkpt lat="45.68543" lon="6.53592">
        <ele>1700.956</ele>
        <time>2012-01-24T12:34:21Z</time>
      </trkpt>
      <trkpt lat="45.68543" lon="6.53591">
        <ele>1700.669</ele>
        <time>2012-01-24T12:34:31Z</time>
      </trkpt>
      <trkpt lat="45.68548" lon="6.53589">
        <ele>1701.164</ele>
        <time>2012-01-24T12:34:41Z</time>
      </trkpt>
      <trkpt lat="45.6855" lon="6.53584">
        <ele>1699.845</ele>
        <time>2012-01-24T12:34:51Z</time>
      </trkpt>
      <trkpt lat="45.68552" lon="6.53585">
        <ele>1699.9</ele>
        <time>2012-01-24T12:35:01Z</time>
      </trkpt>
      <trkpt lat="45.68554" lon="6.53584">
        <ele>1700.4</ele>
        <time>2012-01-24T12:35:11Z</time>
      </trkpt>
      <trkpt lat="45.68554" lon="6.53584">
        <ele>1700.397</ele>
        <time>2012-01-24T12:35:21Z</time>
      </trkpt>
      <trkpt lat="45.68554" lon="6.53585">
        <ele>1700.3</ele>
        <time>2012-01-24T12:35:31Z</time>
      </trkpt>
      <trkpt lat="45.68554" lon="6.53585">
        <ele>1700.18</ele>
        <time>2012-01-24T12:35:41Z</time>
      </trkpt>
      <trkpt lat="45.68554" lon="6.53585">
        <ele>1701.648</ele>
        <time>2012-01-24T12:35:51Z</time>
      </trkpt>
      <trkpt lat="45.68555" lon="6.53584">
        <ele>1700.257</ele>
        <time>2012-01-24T12:36:01Z</time>
      </trkpt>
      <trkpt lat="45.68555" lon="6.53584">
        <ele>1699.991</ele>
        <time>2012-01-24T12:36:11Z</time>
      </trkpt>
      <trkpt lat="45.68555" lon="6.53584">
        <ele>1699.718</ele>
        <time>2012-01-24T12:36:21Z</time>
      </trkpt>
      <trkpt lat="45.68554" lon="6.53584">
        <ele>1699.633</ele>
        <time>2012-01-24T12:36:31Z</time>
      </trkpt>
      <trkpt lat="45.68554" lon="6.53585">
        <ele>1699.802</ele>
        <time>2012-01-24T12:36:41Z</time>
      </trkpt>
      <trkpt lat="45.68553" lon="6.53586">
        <ele>1699.372</ele>
        <time>2012-01-24T12:36:51Z</time>
      </trkpt>
      <trkpt lat="45.68551" lon="6.53587">
        <ele>1699.372</ele>
        <time>2012-01-24T12:37:01Z</time>
      </trkpt>
      <trkpt lat="45.68551" lon="6.53588">
        <ele>1699.545</ele>
        <time>2012-01-24T12:37:11Z</time>
      </trkpt>
      <trkpt lat="45.68551" lon="6.53588">
        <ele>1699.038</ele>
        <time>2012-01-24T12:37:21Z</time>
      </trkpt>
      <trkpt lat="45.68551" lon="6.53588">
        <ele>1699.022</ele>
        <time>2012-01-24T12:37:31Z</time>
      </trkpt>
      <trkpt lat="45.6855" lon="6.53589">
        <ele>1698.736</ele>
        <time>2012-01-24T12:37:41Z</time>
      </trkpt>
      <trkpt lat="45.6855" lon="6.53589">
        <ele>1698.804</ele>
        <time>2012-01-24T12:37:51Z</time>
      </trkpt>
      <trkpt lat="45.6855" lon="6.5359">
        <ele>1698.942</ele>
        <time>2012-01-24T12:38:01Z</time>
      </trkpt>
      <trkpt lat="45.68549" lon="6.53588">
        <ele>1698.392</ele>
        <time>2012-01-24T12:38:11Z</time>
      </trkpt>
      <trkpt lat="45.68549" lon="6.53588">
        <ele>1698.659</ele>
        <time>2012-01-24T12:38:21Z</time>
      </trkpt>
      <trkpt lat="45.68549" lon="6.53588">
        <ele>1698.548</ele>
        <time>2012-01-24T12:38:31Z</time>
      </trkpt>
      <trkpt lat="45.68549" lon="6.53588">
        <ele>1699.181</ele>
        <time>2012-01-24T12:38:41Z</time>
      </trkpt>
      <trkpt lat="45.68549" lon="6.53588">
        <ele>1697.967</ele>
        <time>2012-01-24T12:38:51Z</time>
      </trkpt>
      <trkpt lat="45.68549" lon="6.53588">
        <ele>1698.019</ele>
        <time>2012-01-24T12:39:01Z</time>
      </trkpt>
      <trkpt lat="45.68549" lon="6.53588">
        <ele>1698.042</ele>
        <time>2012-01-24T12:39:11Z</time>
      </trkpt>
      <trkpt lat="45.68549" lon="6.53588">
        <ele>1698.657</ele>
        <time>2012-01-24T12:39:21Z</time>
      </trkpt>
      <trkpt lat="45.68549" lon="6.53588">
        <ele>1697.441</ele>
        <time>2012-01-24T12:39:31Z</time>
      </trkpt>
      <trkpt lat="45.68549" lon="6.53588">
        <ele>1695.881</ele>
        <time>2012-01-24T12:39:41Z</time>
      </trkpt>
      <trkpt lat="45.68555" lon="6.53585">
        <ele>1693.608</ele>
        <time>2012-01-24T12:39:51Z</time>
      </trkpt>
      <trkpt lat="45.68566" lon="6.53585">
        <ele>1692.827</ele>
        <time>2012-01-24T12:40:01Z</time>
      </trkpt>
      <trkpt lat="45.68574" lon="6.53585">
        <ele>1691.336</ele>
        <time>2012-01-24T12:40:11Z</time>
      </trkpt>
      <trkpt lat="45.68583" lon="6.53584">
        <ele>1688.5</ele>
        <time>2012-01-24T12:40:21Z</time>
      </trkpt>
      <trkpt lat="45.6859" lon="6.53585">
        <ele>1686.532</ele>
        <time>2012-01-24T12:40:31Z</time>
      </trkpt>
      <trkpt lat="45.68594" lon="6.53592">
        <ele>1682.157</ele>
        <time>2012-01-24T12:40:41Z</time>
      </trkpt>
      <trkpt lat="45.68601" lon="6.53601">
        <ele>1677.445</ele>
        <time>2012-01-24T12:40:51Z</time>
      </trkpt>
      <trkpt lat="45.6861" lon="6.53603">
        <ele>1670.793</ele>
        <time>2012-01-24T12:41:01Z</time>
      </trkpt>
      <trkpt lat="45.68619" lon="6.536">
        <ele>1667.642</ele>
        <time>2012-01-24T12:41:11Z</time>
      </trkpt>
      <trkpt lat="45.6862" lon="6.53601">
        <ele>1665.759</ele>
        <time>2012-01-24T12:41:21Z</time>
      </trkpt>
      <trkpt lat="45.68623" lon="6.53604">
        <ele>1665.343</ele>
        <time>2012-01-24T12:41:31Z</time>
      </trkpt>
      <trkpt lat="45.68633" lon="6.53592">
        <ele>1660.286</ele>
        <time>2012-01-24T12:41:41Z</time>
      </trkpt>
      <trkpt lat="45.68645" lon="6.53587">
        <ele>1655.494</ele>
        <time>2012-01-24T12:41:51Z</time>
      </trkpt>
      <trkpt lat="45.68648" lon="6.53589">
        <ele>1653.151</ele>
        <time>2012-01-24T12:42:01Z</time>
      </trkpt>
      <trkpt lat="45.68658" lon="6.5359">
        <ele>1650.894</ele>
        <time>2012-01-24T12:42:11Z</time>
      </trkpt>
      <trkpt lat="45.68654" lon="6.53593">
        <ele>1650.17</ele>
        <time>2012-01-24T12:42:21Z</time>
      </trkpt>
      <trkpt lat="45.68655" lon="6.53593">
        <ele>1650.023</ele>
        <time>2012-01-24T12:42:31Z</time>
      </trkpt>
      <trkpt lat="45.68656" lon="6.53592">
        <ele>1650.121</ele>
        <time>2012-01-24T12:42:41Z</time>
      </trkpt>
      <trkpt lat="45.68657" lon="6.53591">
        <ele>1650.339</ele>
        <time>2012-01-24T12:42:51Z</time>
      </trkpt>
      <trkpt lat="45.68658" lon="6.5359">
        <ele>1650.363</ele>
        <time>2012-01-24T12:43:01Z</time>
      </trkpt>
      <trkpt lat="45.6866" lon="6.53588">
        <ele>1650.127</ele>
        <time>2012-01-24T12:43:11Z</time>
      </trkpt>
      <trkpt lat="45.68661" lon="6.53586">
        <ele>1650.328</ele>
        <time>2012-01-24T12:43:21Z</time>
      </trkpt>
      <trkpt lat="45.6866" lon="6.53584">
        <ele>1650.508</ele>
        <time>2012-01-24T12:43:31Z</time>
      </trkpt>
      <trkpt lat="45.6866" lon="6.53583">
        <ele>1650.531</ele>
        <time>2012-01-24T12:43:41Z</time>
      </trkpt>
      <trkpt lat="45.68658" lon="6.53584">
        <ele>1650.751</ele>
        <time>2012-01-24T12:43:51Z</time>
      </trkpt>
      <trkpt lat="45.68656" lon="6.53585">
        <ele>1650.612</ele>
        <time>2012-01-24T12:44:01Z</time>
      </trkpt>
      <trkpt lat="45.68657" lon="6.53584">
        <ele>1650.629</ele>
        <time>2012-01-24T12:44:11Z</time>
      </trkpt>
      <trkpt lat="45.68659" lon="6.53583">
        <ele>1650.645</ele>
        <time>2012-01-24T12:44:21Z</time>
      </trkpt>
      <trkpt lat="45.68659" lon="6.53583">
        <ele>1650.756</ele>
        <time>2012-01-24T12:44:31Z</time>
      </trkpt>
      <trkpt lat="45.68658" lon="6.53583">
        <ele>1650.71</ele>
        <time>2012-01-24T12:44:41Z</time>
      </trkpt>
      <trkpt lat="45.68659" lon="6.53582">
        <ele>1650.825</ele>
        <time>2012-01-24T12:44:51Z</time>
      </trkpt>
      <trkpt lat="45.68658" lon="6.53582">
        <ele>1651.172</ele>
        <time>2012-01-24T12:45:01Z</time>
      </trkpt>
      <trkpt lat="45.68658" lon="6.53582">
        <ele>1651.351</ele>
        <time>2012-01-24T12:45:11Z</time>
      </trkpt>
      <trkpt lat="45.68657" lon="6.53582">
        <ele>1651.284</ele>
        <time>2012-01-24T12:45:21Z</time>
      </trkpt>
      <trkpt lat="45.68655" lon="6.53581">
        <ele>1651.438</ele>
        <time>2012-01-24T12:45:31Z</time>
      </trkpt>
      <trkpt lat="45.68654" lon="6.53581">
        <ele>1651.303</ele>
        <time>2012-01-24T12:45:41Z</time>
      </trkpt>
      <trkpt lat="45.68654" lon="6.53581">
        <ele>1651.374</ele>
        <time>2012-01-24T12:45:51Z</time>
      </trkpt>
      <trkpt lat="45.68654" lon="6.53582">
        <ele>1651.214</ele>
        <time>2012-01-24T12:46:01Z</time>
      </trkpt>
      <trkpt lat="45.68653" lon="6.53582">
        <ele>1651.682</ele>
        <time>2012-01-24T12:46:11Z</time>
      </trkpt>
      <trkpt lat="45.68654" lon="6.53582">
        <ele>1651.892</ele>
        <time>2012-01-24T12:46:21Z</time>
      </trkpt>
      <trkpt lat="45.68655" lon="6.53582">
        <ele>1651.796</ele>
        <time>2012-01-24T12:46:31Z</time>
      </trkpt>
      <trkpt lat="45.68655" lon="6.53583">
        <ele>1652.092</ele>
        <time>2012-01-24T12:46:41Z</time>
      </trkpt>
      <trkpt lat="45.68655" lon="6.53584">
        <ele>1652.242</ele>
        <time>2012-01-24T12:46:51Z</time>
      </trkpt>
      <trkpt lat="45.68655" lon="6.53584">
        <ele>1652.238</ele>
        <time>2012-01-24T12:47:01Z</time>
      </trkpt>
      <trkpt lat="45.68654" lon="6.53585">
        <ele>1652.664</ele>
        <time>2012-01-24T12:47:11Z</time>
      </trkpt>
      <trkpt lat="45.68655" lon="6.53585">
        <ele>1652.865</ele>
        <time>2012-01-24T12:47:21Z</time>
      </trkpt>
      <trkpt lat="45.68656" lon="6.53586">
        <ele>1652.492</ele>
        <time>2012-01-24T12:47:31Z</time>
      </trkpt>
      <trkpt lat="45.68656" lon="6.53586">
        <ele>1652.834</ele>
        <time>2012-01-24T12:47:41Z</time>
      </trkpt>
      <trkpt lat="45.68656" lon="6.53587">
        <ele>1652.689</ele>
        <time>2012-01-24T12:47:51Z</time>
      </trkpt>
      <trkpt lat="45.68662" lon="6.53598">
        <ele>1649.57</ele>
        <time>2012-01-24T12:48:01Z</time>
      </trkpt>
      <trkpt lat="45.68675" lon="6.53605">
        <ele>1644.645</ele>
        <time>2012-01-24T12:48:11Z</time>
      </trkpt>
      <trkpt lat="45.68677" lon="6.53612">
        <ele>1643.312</ele>
        <time>2012-01-24T12:48:21Z</time>
      </trkpt>
      <trkpt lat="45.68677" lon="6.53612">
        <ele>1643.555</ele>
        <time>2012-01-24T12:48:31Z</time>
      </trkpt>
      <trkpt lat="45.68681" lon="6.53609">
        <ele>1642.792</ele>
        <time>2012-01-24T12:48:41Z</time>
      </trkpt>
      <trkpt lat="45.6868" lon="6.5361">
        <ele>1642.662</ele>
        <time>2012-01-24T12:48:51Z</time>
      </trkpt>
      <trkpt lat="45.68681" lon="6.53607">
        <ele>1643.153</ele>
        <time>2012-01-24T12:49:01Z</time>
      </trkpt>
      <trkpt lat="45.68687" lon="6.53618">
        <ele>1639.677</ele>
        <time>2012-01-24T12:49:11Z</time>
      </trkpt>
      <trkpt lat="45.68693" lon="6.53619">
        <ele>1637.978</ele>
        <time>2012-01-24T12:49:21Z</time>
      </trkpt>
      <trkpt lat="45.687" lon="6.53621">
        <ele>1634.681</ele>
        <time>2012-01-24T12:49:31Z</time>
      </trkpt>
      <trkpt lat="45.68702" lon="6.5363">
        <ele>1631.633</ele>
        <time>2012-01-24T12:49:41Z</time>
      </trkpt>
      <trkpt lat="45.68704" lon="6.53639">
        <ele>1627.569</ele>
        <time>2012-01-24T12:49:51Z</time>
      </trkpt>
      <trkpt lat="45.68705" lon="6.53644">
        <ele>1625.151</ele>
        <time>2012-01-24T12:50:01Z</time>
      </trkpt>
      <trkpt lat="45.68709" lon="6.53651">
        <ele>1622.17</ele>
        <time>2012-01-24T12:50:11Z</time>
      </trkpt>
      <trkpt lat="45.68717" lon="6.53655">
        <ele>1618.733</ele>
        <time>2012-01-24T12:50:21Z</time>
      </trkpt>
      <trkpt lat="45.6872" lon="6.53662">
        <ele>1614.917</ele>
        <time>2012-01-24T12:50:31Z</time>
      </trkpt>
      <trkpt lat="45.68731" lon="6.53662">
        <ele>1610.88</ele>
        <time>2012-01-24T12:50:41Z</time>
      </trkpt>
      <trkpt lat="45.68734" lon="6.53663">
        <ele>1609.714</ele>
        <time>2012-01-24T12:50:51Z</time>
      </trkpt>
      <trkpt lat="45.68738" lon="6.53669">
        <ele>1607.003</ele>
        <time>2012-01-24T12:51:01Z</time>
      </trkpt>
      <trkpt lat="45.68745" lon="6.53676">
        <ele>1603.838</ele>
        <time>2012-01-24T12:51:11Z</time>
      </trkpt>
      <trkpt lat="45.68747" lon="6.53686">
        <ele>1600.96</ele>
        <time>2012-01-24T12:51:21Z</time>
      </trkpt>
      <trkpt lat="45.68745" lon="6.53698">
        <ele>1599.438</ele>
        <time>2012-01-24T12:51:31Z</time>
      </trkpt>
      <trkpt lat="45.68752" lon="6.53704">
        <ele>1595.583</ele>
        <time>2012-01-24T12:51:41Z</time>
      </trkpt>
      <trkpt lat="45.68762" lon="6.53701">
        <ele>1591.179</ele>
        <time>2012-01-24T12:51:51Z</time>
      </trkpt>
      <trkpt lat="45.68765" lon="6.53691">
        <ele>1589.479</ele>
        <time>2012-01-24T12:52:01Z</time>
      </trkpt>
      <trkpt lat="45.68763" lon="6.53693">
        <ele>1589.144</ele>
        <time>2012-01-24T12:52:11Z</time>
      </trkpt>
      <trkpt lat="45.68762" lon="6.53692">
        <ele>1589.587</ele>
        <time>2012-01-24T12:52:21Z</time>
      </trkpt>
      <trkpt lat="45.68761" lon="6.53692">
        <ele>1589.351</ele>
        <time>2012-01-24T12:52:31Z</time>
      </trkpt>
      <trkpt lat="45.6876" lon="6.53691">
        <ele>1589.559</ele>
        <time>2012-01-24T12:52:41Z</time>
      </trkpt>
      <trkpt lat="45.68761" lon="6.53684">
        <ele>1589.444</ele>
        <time>2012-01-24T12:52:51Z</time>
      </trkpt>
      <trkpt lat="45.68762" lon="6.53674">
        <ele>1589.586</ele>
        <time>2012-01-24T12:53:01Z</time>
      </trkpt>
      <trkpt lat="45.68761" lon="6.53672">
        <ele>1589.697</ele>
        <time>2012-01-24T12:53:11Z</time>
      </trkpt>
      <trkpt lat="45.68761" lon="6.53671">
        <ele>1589.93</ele>
        <time>2012-01-24T12:53:21Z</time>
      </trkpt>
      <trkpt lat="45.68759" lon="6.53671">
        <ele>1589.609</ele>
        <time>2012-01-24T12:53:31Z</time>
      </trkpt>
      <trkpt lat="45.68757" lon="6.53673">
        <ele>1590.244</ele>
        <time>2012-01-24T12:53:41Z</time>
      </trkpt>
      <trkpt lat="45.68756" lon="6.53676">
        <ele>1590.283</ele>
        <time>2012-01-24T12:53:51Z</time>
      </trkpt>
      <trkpt lat="45.68754" lon="6.53679">
        <ele>1589.806</ele>
        <time>2012-01-24T12:54:01Z</time>
      </trkpt>
      <trkpt lat="45.68747" lon="6.53687">
        <ele>1590.136</ele>
        <time>2012-01-24T12:54:11Z</time>
      </trkpt>
      <trkpt lat="45.68746" lon="6.53687">
        <ele>1589.816</ele>
        <time>2012-01-24T12:54:21Z</time>
      </trkpt>
      <trkpt lat="45.68745" lon="6.53687">
        <ele>1590.543</ele>
        <time>2012-01-24T12:54:31Z</time>
      </trkpt>
      <trkpt lat="45.68745" lon="6.53687">
        <ele>1590.089</ele>
        <time>2012-01-24T12:54:41Z</time>
      </trkpt>
      <trkpt lat="45.68746" lon="6.53685">
        <ele>1590.445</ele>
        <time>2012-01-24T12:54:51Z</time>
      </trkpt>
      <trkpt lat="45.68747" lon="6.53684">
        <ele>1590.241</ele>
        <time>2012-01-24T12:55:01Z</time>
      </trkpt>
      <trkpt lat="45.6875" lon="6.53692">
        <ele>1589.931</ele>
        <time>2012-01-24T12:55:11Z</time>
      </trkpt>
      <trkpt lat="45.68749" lon="6.53694">
        <ele>1590.387</ele>
        <time>2012-01-24T12:55:21Z</time>
      </trkpt>
      <trkpt lat="45.68748" lon="6.53694">
        <ele>1590.364</ele>
        <time>2012-01-24T12:55:31Z</time>
      </trkpt>
      <trkpt lat="45.68748" lon="6.53694">
        <ele>1590.486</ele>
        <time>2012-01-24T12:55:41Z</time>
      </trkpt>
      <trkpt lat="45.68745" lon="6.53694">
        <ele>1590.568</ele>
        <time>2012-01-24T12:55:51Z</time>
      </trkpt>
      <trkpt lat="45.68738" lon="6.53691">
        <ele>1590.31</ele>
        <time>2012-01-24T12:56:01Z</time>
      </trkpt>
      <trkpt lat="45.68739" lon="6.53691">
        <ele>1590.358</ele>
        <time>2012-01-24T12:56:11Z</time>
      </trkpt>
      <trkpt lat="45.6874" lon="6.53691">
        <ele>1590.24</ele>
        <time>2012-01-24T12:56:21Z</time>
      </trkpt>
      <trkpt lat="45.68745" lon="6.53691">
        <ele>1589.948</ele>
        <time>2012-01-24T12:56:31Z</time>
      </trkpt>
      <trkpt lat="45.68745" lon="6.5369">
        <ele>1590.139</ele>
        <time>2012-01-24T12:56:41Z</time>
      </trkpt>
      <trkpt lat="45.68745" lon="6.5369">
        <ele>1590.221</ele>
        <time>2012-01-24T12:56:51Z</time>
      </trkpt>
      <trkpt lat="45.68744" lon="6.53692">
        <ele>1590.398</ele>
        <time>2012-01-24T12:57:01Z</time>
      </trkpt>
      <trkpt lat="45.68743" lon="6.53693">
        <ele>1590.301</ele>
        <time>2012-01-24T12:57:11Z</time>
      </trkpt>
      <trkpt lat="45.68743" lon="6.53695">
        <ele>1590.167</ele>
        <time>2012-01-24T12:57:21Z</time>
      </trkpt>
      <trkpt lat="45.68742" lon="6.53696">
        <ele>1590.479</ele>
        <time>2012-01-24T12:57:31Z</time>
      </trkpt>
      <trkpt lat="45.68742" lon="6.53698">
        <ele>1589.588</ele>
        <time>2012-01-24T12:57:41Z</time>
      </trkpt>
      <trkpt lat="45.68742" lon="6.53699">
        <ele>1589.89</ele>
        <time>2012-01-24T12:57:51Z</time>
      </trkpt>
      <trkpt lat="45.68743" lon="6.537">
        <ele>1589.357</ele>
        <time>2012-01-24T12:58:01Z</time>
      </trkpt>
      <trkpt lat="45.68748" lon="6.53708">
        <ele>1589.433</ele>
        <time>2012-01-24T12:58:11Z</time>
      </trkpt>
      <trkpt lat="45.68749" lon="6.53716">
        <ele>1589.038</ele>
        <time>2012-01-24T12:58:21Z</time>
      </trkpt>
      <trkpt lat="45.68752" lon="6.53722">
        <ele>1588.435</ele>
        <time>2012-01-24T12:58:31Z</time>
      </trkpt>
      <trkpt lat="45.68753" lon="6.53731">
        <ele>1587.385</ele>
        <time>2012-01-24T12:58:41Z</time>
      </trkpt>
      <trkpt lat="45.68752" lon="6.53744">
        <ele>1587.697</ele>
        <time>2012-01-24T12:58:51Z</time>
      </trkpt>
      <trkpt lat="45.68751" lon="6.53756">
        <ele>1587.384</ele>
        <time>2012-01-24T12:59:01Z</time>
      </trkpt>
      <trkpt lat="45.68748" lon="6.53768">
        <ele>1586.64</ele>
        <time>2012-01-24T12:59:11Z</time>
      </trkpt>
      <trkpt lat="45.68744" lon="6.5378">
        <ele>1586.45</ele>
        <time>2012-01-24T12:59:21Z</time>
      </trkpt>
      <trkpt lat="45.68741" lon="6.53788">
        <ele>1586.299</ele>
        <time>2012-01-24T12:59:31Z</time>
      </trkpt>
      <trkpt lat="45.68739" lon="6.53796">
        <ele>1585.563</ele>
        <time>2012-01-24T12:59:41Z</time>
      </trkpt>
      <trkpt lat="45.68735" lon="6.53807">
        <ele>1585.085</ele>
        <time>2012-01-24T12:59:51Z</time>
      </trkpt>
      <trkpt lat="45.68734" lon="6.53819">
        <ele>1584.938</ele>
        <time>2012-01-24T13:00:01Z</time>
      </trkpt>
      <trkpt lat="45.68734" lon="6.53826">
        <ele>1584.938</ele>
        <time>2012-01-24T13:00:11Z</time>
      </trkpt>
      <trkpt lat="45.68731" lon="6.53833">
        <ele>1584.273</ele>
        <time>2012-01-24T13:00:21Z</time>
      </trkpt>
      <trkpt lat="45.68728" lon="6.5384">
        <ele>1583.486</ele>
        <time>2012-01-24T13:00:31Z</time>
      </trkpt>
      <trkpt lat="45.68727" lon="6.53847">
        <ele>1583.371</ele>
        <time>2012-01-24T13:00:41Z</time>
      </trkpt>
      <trkpt lat="45.68726" lon="6.53854">
        <ele>1583.36</ele>
        <time>2012-01-24T13:00:51Z</time>
      </trkpt>
      <trkpt lat="45.68721" lon="6.53868">
        <ele>1582.939</ele>
        <time>2012-01-24T13:01:01Z</time>
      </trkpt>
      <trkpt lat="45.68718" lon="6.53875">
        <ele>1582.218</ele>
        <time>2012-01-24T13:01:11Z</time>
      </trkpt>
      <trkpt lat="45.68717" lon="6.53878">
        <ele>1581.899</ele>
        <time>2012-01-24T13:01:21Z</time>
      </trkpt>
      <trkpt lat="45.68715" lon="6.53885">
        <ele>1581.638</ele>
        <time>2012-01-24T13:01:31Z</time>
      </trkpt>
      <trkpt lat="45.68709" lon="6.53895">
        <ele>1581.166</ele>
        <time>2012-01-24T13:01:41Z</time>
      </trkpt>
      <trkpt lat="45.68705" lon="6.539">
        <ele>1581.183</ele>
        <time>2012-01-24T13:01:51Z</time>
      </trkpt>
      <trkpt lat="45.68702" lon="6.53905">
        <ele>1580.557</ele>
        <time>2012-01-24T13:02:01Z</time>
      </trkpt>
      <trkpt lat="45.68698" lon="6.53907">
        <ele>1580.436</ele>
        <time>2012-01-24T13:02:11Z</time>
      </trkpt>
      <trkpt lat="45.68694" lon="6.53907">
        <ele>1579.863</ele>
        <time>2012-01-24T13:02:21Z</time>
      </trkpt>
      <trkpt lat="45.68692" lon="6.53912">
        <ele>1579.925</ele>
        <time>2012-01-24T13:02:31Z</time>
      </trkpt>
      <trkpt lat="45.68688" lon="6.53917">
        <ele>1579.353</ele>
        <time>2012-01-24T13:02:41Z</time>
      </trkpt>
      <trkpt lat="45.68686" lon="6.53925">
        <ele>1579.144</ele>
        <time>2012-01-24T13:02:51Z</time>
      </trkpt>
      <trkpt lat="45.68683" lon="6.53932">
        <ele>1578.272</ele>
        <time>2012-01-24T13:03:01Z</time>
      </trkpt>
      <trkpt lat="45.68682" lon="6.53933">
        <ele>1578.468</ele>
        <time>2012-01-24T13:03:11Z</time>
      </trkpt>
      <trkpt lat="45.6868" lon="6.53934">
        <ele>1578.296</ele>
        <time>2012-01-24T13:03:21Z</time>
      </trkpt>
      <trkpt lat="45.6868" lon="6.53934">
        <ele>1578.512</ele>
        <time>2012-01-24T13:03:31Z</time>
      </trkpt>
      <trkpt lat="45.6868" lon="6.53934">
        <ele>1578.291</ele>
        <time>2012-01-24T13:03:41Z</time>
      </trkpt>
      <trkpt lat="45.6868" lon="6.53934">
        <ele>1578.512</ele>
        <time>2012-01-24T13:03:51Z</time>
      </trkpt>
      <trkpt lat="45.6868" lon="6.53934">
        <ele>1578.686</ele>
        <time>2012-01-24T13:04:01Z</time>
      </trkpt>
      <trkpt lat="45.6868" lon="6.53934">
        <ele>1578.409</ele>
        <time>2012-01-24T13:04:11Z</time>
      </trkpt>
      <trkpt lat="45.6868" lon="6.53934">
        <ele>1578.183</ele>
        <time>2012-01-24T13:04:21Z</time>
      </trkpt>
      <trkpt lat="45.6868" lon="6.53934">
        <ele>1578.706</ele>
        <time>2012-01-24T13:04:31Z</time>
      </trkpt>
      <trkpt lat="45.6868" lon="6.53934">
        <ele>1578.751</ele>
        <time>2012-01-24T13:04:41Z</time>
      </trkpt>
      <trkpt lat="45.6868" lon="6.53934">
        <ele>1578.736</ele>
        <time>2012-01-24T13:04:51Z</time>
      </trkpt>
      <trkpt lat="45.6868" lon="6.53933">
        <ele>1578.542</ele>
        <time>2012-01-24T13:05:01Z</time>
      </trkpt>
      <trkpt lat="45.68679" lon="6.53931">
        <ele>1578.524</ele>
        <time>2012-01-24T13:05:11Z</time>
      </trkpt>
      <trkpt lat="45.68679" lon="6.5393">
        <ele>1578.332</ele>
        <time>2012-01-24T13:05:21Z</time>
      </trkpt>
      <trkpt lat="45.68676" lon="6.53929">
        <ele>1577.998</ele>
        <time>2012-01-24T13:05:31Z</time>
      </trkpt>
      <trkpt lat="45.68671" lon="6.53934">
        <ele>1577.404</ele>
        <time>2012-01-24T13:05:41Z</time>
      </trkpt>
      <trkpt lat="45.68666" lon="6.5394">
        <ele>1576.637</ele>
        <time>2012-01-24T13:05:51Z</time>
      </trkpt>
      <trkpt lat="45.68658" lon="6.5394">
        <ele>1576.468</ele>
        <time>2012-01-24T13:06:01Z</time>
      </trkpt>
      <trkpt lat="45.68657" lon="6.53944">
        <ele>1576.059</ele>
        <time>2012-01-24T13:06:11Z</time>
      </trkpt>
      <trkpt lat="45.68657" lon="6.53949">
        <ele>1576.852</ele>
        <time>2012-01-24T13:06:21Z</time>
      </trkpt>
      <trkpt lat="45.68651" lon="6.53946">
        <ele>1575.667</ele>
        <time>2012-01-24T13:06:31Z</time>
      </trkpt>
      <trkpt lat="45.68644" lon="6.53944">
        <ele>1575.471</ele>
        <time>2012-01-24T13:06:41Z</time>
      </trkpt>
      <trkpt lat="45.68642" lon="6.53944">
        <ele>1574.237</ele>
        <time>2012-01-24T13:06:51Z</time>
      </trkpt>
      <trkpt lat="45.68634" lon="6.53938">
        <ele>1574.29</ele>
        <time>2012-01-24T13:07:01Z</time>
      </trkpt>
      <trkpt lat="45.68629" lon="6.53945">
        <ele>1573.686</ele>
        <time>2012-01-24T13:07:11Z</time>
      </trkpt>
      <trkpt lat="45.68626" lon="6.53949">
        <ele>1573.448</ele>
        <time>2012-01-24T13:07:21Z</time>
      </trkpt>
      <trkpt lat="45.68628" lon="6.53953">
        <ele>1570.083</ele>
        <time>2012-01-24T13:07:31Z</time>
      </trkpt>
      <trkpt lat="45.6863" lon="6.53957">
        <ele>1565.552</ele>
        <time>2012-01-24T13:07:41Z</time>
      </trkpt>
      <trkpt lat="45.68629" lon="6.53965">
        <ele>1563.134</ele>
        <time>2012-01-24T13:07:51Z</time>
      </trkpt>
      <trkpt lat="45.68628" lon="6.53975">
        <ele>1561.602</ele>
        <time>2012-01-24T13:08:01Z</time>
      </trkpt>
      <trkpt lat="45.68628" lon="6.53975">
        <ele>1561.486</ele>
        <time>2012-01-24T13:08:11Z</time>
      </trkpt>
      <trkpt lat="45.68628" lon="6.53975">
        <ele>1561.33</ele>
        <time>2012-01-24T13:08:21Z</time>
      </trkpt>
      <trkpt lat="45.68628" lon="6.53975">
        <ele>1558.288</ele>
        <time>2012-01-24T13:08:31Z</time>
      </trkpt>
      <trkpt lat="45.68627" lon="6.5399">
        <ele>1554.411</ele>
        <time>2012-01-24T13:08:41Z</time>
      </trkpt>
      <trkpt lat="45.68626" lon="6.54">
        <ele>1550.439</ele>
        <time>2012-01-24T13:08:51Z</time>
      </trkpt>
      <trkpt lat="45.68625" lon="6.54015">
        <ele>1547.443</ele>
        <time>2012-01-24T13:09:01Z</time>
      </trkpt>
      <trkpt lat="45.68623" lon="6.54029">
        <ele>1545.428</ele>
        <time>2012-01-24T13:09:11Z</time>
      </trkpt>
      <trkpt lat="45.6862" lon="6.54038">
        <ele>1543.627</ele>
        <time>2012-01-24T13:09:21Z</time>
      </trkpt>
      <trkpt lat="45.68617" lon="6.54043">
        <ele>1542.304</ele>
        <time>2012-01-24T13:09:31Z</time>
      </trkpt>
      <trkpt lat="45.68613" lon="6.54059">
        <ele>1539.077</ele>
        <time>2012-01-24T13:09:41Z</time>
      </trkpt>
      <trkpt lat="45.6861" lon="6.54065">
        <ele>1535.326</ele>
        <time>2012-01-24T13:09:51Z</time>
      </trkpt>
      <trkpt lat="45.68609" lon="6.54078">
        <ele>1531.318</ele>
        <time>2012-01-24T13:10:01Z</time>
      </trkpt>
      <trkpt lat="45.68606" lon="6.54086">
        <ele>1528.663</ele>
        <time>2012-01-24T13:10:11Z</time>
      </trkpt>
      <trkpt lat="45.68601" lon="6.5409">
        <ele>1524.991</ele>
        <time>2012-01-24T13:10:21Z</time>
      </trkpt>
      <trkpt lat="45.686" lon="6.54095">
        <ele>1521.644</ele>
        <time>2012-01-24T13:10:31Z</time>
      </trkpt>
      <trkpt lat="45.68594" lon="6.541">
        <ele>1518.183</ele>
        <time>2012-01-24T13:10:41Z</time>
      </trkpt>
      <trkpt lat="45.68595" lon="6.541">
        <ele>1517.87</ele>
        <time>2012-01-24T13:10:51Z</time>
      </trkpt>
      <trkpt lat="45.68591" lon="6.54103">
        <ele>1516.966</ele>
        <time>2012-01-24T13:11:01Z</time>
      </trkpt>
      <trkpt lat="45.68589" lon="6.54111">
        <ele>1511.059</ele>
        <time>2012-01-24T13:11:11Z</time>
      </trkpt>
      <trkpt lat="45.68585" lon="6.54116">
        <ele>1509.902</ele>
        <time>2012-01-24T13:11:21Z</time>
      </trkpt>
      <trkpt lat="45.6858" lon="6.54121">
        <ele>1505.507</ele>
        <time>2012-01-24T13:11:31Z</time>
      </trkpt>
      <trkpt lat="45.68578" lon="6.54127">
        <ele>1504.554</ele>
        <time>2012-01-24T13:11:41Z</time>
      </trkpt>
      <trkpt lat="45.68575" lon="6.5413">
        <ele>1501.591</ele>
        <time>2012-01-24T13:11:51Z</time>
      </trkpt>
      <trkpt lat="45.68574" lon="6.54138">
        <ele>1498.447</ele>
        <time>2012-01-24T13:12:01Z</time>
      </trkpt>
      <trkpt lat="45.68574" lon="6.5414">
        <ele>1495.677</ele>
        <time>2012-01-24T13:12:11Z</time>
      </trkpt>
      <trkpt lat="45.68573" lon="6.54151">
        <ele>1492.371</ele>
        <time>2012-01-24T13:12:21Z</time>
      </trkpt>
      <trkpt lat="45.68573" lon="6.54163">
        <ele>1488.719</ele>
        <time>2012-01-24T13:12:31Z</time>
      </trkpt>
      <trkpt lat="45.68571" lon="6.54175">
        <ele>1484.877</ele>
        <time>2012-01-24T13:12:41Z</time>
      </trkpt>
      <trkpt lat="45.68572" lon="6.54191">
        <ele>1481.501</ele>
        <time>2012-01-24T13:12:51Z</time>
      </trkpt>
      <trkpt lat="45.68572" lon="6.54197">
        <ele>1478.149</ele>
        <time>2012-01-24T13:13:01Z</time>
      </trkpt>
      <trkpt lat="45.68568" lon="6.54208">
        <ele>1476.459</ele>
        <time>2012-01-24T13:13:11Z</time>
      </trkpt>
      <trkpt lat="45.68568" lon="6.54219">
        <ele>1472.299</ele>
        <time>2012-01-24T13:13:21Z</time>
      </trkpt>
      <trkpt lat="45.68566" lon="6.5423">
        <ele>1472.03</ele>
        <time>2012-01-24T13:13:31Z</time>
      </trkpt>
      <trkpt lat="45.68565" lon="6.54237">
        <ele>1468.919</ele>
        <time>2012-01-24T13:13:41Z</time>
      </trkpt>
      <trkpt lat="45.68562" lon="6.54248">
        <ele>1466.073</ele>
        <time>2012-01-24T13:13:51Z</time>
      </trkpt>
      <trkpt lat="45.6856" lon="6.54259">
        <ele>1462.854</ele>
        <time>2012-01-24T13:14:01Z</time>
      </trkpt>
      <trkpt lat="45.68558" lon="6.54268">
        <ele>1460.596</ele>
        <time>2012-01-24T13:14:11Z</time>
      </trkpt>
      <trkpt lat="45.68557" lon="6.54269">
        <ele>1460.888</ele>
        <time>2012-01-24T13:14:21Z</time>
      </trkpt>
      <trkpt lat="45.68557" lon="6.54269">
        <ele>1460.832</ele>
        <time>2012-01-24T13:14:31Z</time>
      </trkpt>
      <trkpt lat="45.68557" lon="6.54269">
        <ele>1460.969</ele>
        <time>2012-01-24T13:14:41Z</time>
      </trkpt>
      <trkpt lat="45.68557" lon="6.54269">
        <ele>1460.841</ele>
        <time>2012-01-24T13:14:51Z</time>
      </trkpt>
      <trkpt lat="45.68557" lon="6.54269">
        <ele>1460.429</ele>
        <time>2012-01-24T13:15:01Z</time>
      </trkpt>
      <trkpt lat="45.68557" lon="6.54269">
        <ele>1460.751</ele>
        <time>2012-01-24T13:15:11Z</time>
      </trkpt>
      <trkpt lat="45.68557" lon="6.5427">
        <ele>1460.69</ele>
        <time>2012-01-24T13:15:21Z</time>
      </trkpt>
      <trkpt lat="45.68557" lon="6.5427">
        <ele>1460.355</ele>
        <time>2012-01-24T13:15:31Z</time>
      </trkpt>
      <trkpt lat="45.68557" lon="6.5427">
        <ele>1460.695</ele>
        <time>2012-01-24T13:15:41Z</time>
      </trkpt>
      <trkpt lat="45.68557" lon="6.5427">
        <ele>1460.617</ele>
        <time>2012-01-24T13:15:51Z</time>
      </trkpt>
      <trkpt lat="45.68557" lon="6.5427">
        <ele>1460.275</ele>
        <time>2012-01-24T13:16:01Z</time>
      </trkpt>
      <trkpt lat="45.68557" lon="6.5427">
        <ele>1460.477</ele>
        <time>2012-01-24T13:16:11Z</time>
      </trkpt>
      <trkpt lat="45.68557" lon="6.54271">
        <ele>1460.405</ele>
        <time>2012-01-24T13:16:21Z</time>
      </trkpt>
      <trkpt lat="45.68558" lon="6.54271">
        <ele>1459.86</ele>
        <time>2012-01-24T13:16:31Z</time>
      </trkpt>
      <trkpt lat="45.68559" lon="6.54271">
        <ele>1460.52</ele>
        <time>2012-01-24T13:16:41Z</time>
      </trkpt>
      <trkpt lat="45.68559" lon="6.54271">
        <ele>1460.346</ele>
        <time>2012-01-24T13:16:51Z</time>
      </trkpt>
      <trkpt lat="45.68559" lon="6.54271">
        <ele>1460.295</ele>
        <time>2012-01-24T13:17:01Z</time>
      </trkpt>
      <trkpt lat="45.68559" lon="6.54271">
        <ele>1460.338</ele>
        <time>2012-01-24T13:17:11Z</time>
      </trkpt>
      <trkpt lat="45.68559" lon="6.54271">
        <ele>1460.496</ele>
        <time>2012-01-24T13:17:21Z</time>
      </trkpt>
      <trkpt lat="45.68559" lon="6.54271">
        <ele>1460.491</ele>
        <time>2012-01-24T13:17:31Z</time>
      </trkpt>
      <trkpt lat="45.68558" lon="6.54271">
        <ele>1460.358</ele>
        <time>2012-01-24T13:17:41Z</time>
      </trkpt>
      <trkpt lat="45.68558" lon="6.54271">
        <ele>1460.308</ele>
        <time>2012-01-24T13:17:51Z</time>
      </trkpt>
      <trkpt lat="45.68558" lon="6.54271">
        <ele>1460.061</ele>
        <time>2012-01-24T13:18:01Z</time>
      </trkpt>
      <trkpt lat="45.68558" lon="6.54271">
        <ele>1459.771</ele>
        <time>2012-01-24T13:18:11Z</time>
      </trkpt>
      <trkpt lat="45.68558" lon="6.54271">
        <ele>1460.287</ele>
        <time>2012-01-24T13:18:21Z</time>
      </trkpt>
      <trkpt lat="45.68558" lon="6.54271">
        <ele>1460.042</ele>
        <time>2012-01-24T13:18:31Z</time>
      </trkpt>
      <trkpt lat="45.68558" lon="6.54271">
        <ele>1460.252</ele>
        <time>2012-01-24T13:18:41Z</time>
      </trkpt>
      <trkpt lat="45.68558" lon="6.54271">
        <ele>1460.569</ele>
        <time>2012-01-24T13:18:51Z</time>
      </trkpt>
      <trkpt lat="45.68558" lon="6.54271">
        <ele>1460.373</ele>
        <time>2012-01-24T13:19:01Z</time>
      </trkpt>
      <trkpt lat="45.68557" lon="6.5427">
        <ele>1460.415</ele>
        <time>2012-01-24T13:19:11Z</time>
      </trkpt>
      <trkpt lat="45.68556" lon="6.5427">
        <ele>1460.857</ele>
        <time>2012-01-24T13:19:21Z</time>
      </trkpt>
      <trkpt lat="45.68555" lon="6.5427">
        <ele>1460.541</ele>
        <time>2012-01-24T13:19:31Z</time>
      </trkpt>
      <trkpt lat="45.68554" lon="6.5427">
        <ele>1460.178</ele>
        <time>2012-01-24T13:19:41Z</time>
      </trkpt>
      <trkpt lat="45.68554" lon="6.5427">
        <ele>1460.378</ele>
        <time>2012-01-24T13:19:51Z</time>
      </trkpt>
      <trkpt lat="45.68554" lon="6.5427">
        <ele>1460.072</ele>
        <time>2012-01-24T13:20:01Z</time>
      </trkpt>
      <trkpt lat="45.68554" lon="6.54271">
        <ele>1460.248</ele>
        <time>2012-01-24T13:20:11Z</time>
      </trkpt>
      <trkpt lat="45.68554" lon="6.5427">
        <ele>1459.963</ele>
        <time>2012-01-24T13:20:21Z</time>
      </trkpt>
      <trkpt lat="45.68554" lon="6.54271">
        <ele>1460.147</ele>
        <time>2012-01-24T13:20:31Z</time>
      </trkpt>
      <trkpt lat="45.68554" lon="6.54271">
        <ele>1460.238</ele>
        <time>2012-01-24T13:20:41Z</time>
      </trkpt>
      <trkpt lat="45.68554" lon="6.54271">
        <ele>1460.161</ele>
        <time>2012-01-24T13:20:51Z</time>
      </trkpt>
      <trkpt lat="45.68554" lon="6.5427">
        <ele>1460.102</ele>
        <time>2012-01-24T13:21:01Z</time>
      </trkpt>
      <trkpt lat="45.68554" lon="6.54271">
        <ele>1460.163</ele>
        <time>2012-01-24T13:21:11Z</time>
      </trkpt>
      <trkpt lat="45.68554" lon="6.54272">
        <ele>1460.086</ele>
        <time>2012-01-24T13:21:21Z</time>
      </trkpt>
      <trkpt lat="45.68554" lon="6.54272">
        <ele>1460.268</ele>
        <time>2012-01-24T13:21:31Z</time>
      </trkpt>
      <trkpt lat="45.68554" lon="6.54273">
        <ele>1460.018</ele>
        <time>2012-01-24T13:21:41Z</time>
      </trkpt>
      <trkpt lat="45.68554" lon="6.54273">
        <ele>1459.844</ele>
        <time>2012-01-24T13:21:51Z</time>
      </trkpt>
      <trkpt lat="45.68554" lon="6.54273">
        <ele>1459.919</ele>
        <time>2012-01-24T13:22:01Z</time>
      </trkpt>
      <trkpt lat="45.68554" lon="6.54273">
        <ele>1460.097</ele>
        <time>2012-01-24T13:22:11Z</time>
      </trkpt>
      <trkpt lat="45.68554" lon="6.54273">
        <ele>1459.65</ele>
        <time>2012-01-24T13:22:21Z</time>
      </trkpt>
      <trkpt lat="45.68554" lon="6.54274">
        <ele>1459.688</ele>
        <time>2012-01-24T13:22:31Z</time>
      </trkpt>
      <trkpt lat="45.68554" lon="6.54273">
        <ele>1459.507</ele>
        <time>2012-01-24T13:22:41Z</time>
      </trkpt>
      <trkpt lat="45.68554" lon="6.54273">
        <ele>1459.74</ele>
        <time>2012-01-24T13:22:51Z</time>
      </trkpt>
      <trkpt lat="45.68555" lon="6.54273">
        <ele>1459.942</ele>
        <time>2012-01-24T13:23:01Z</time>
      </trkpt>
      <trkpt lat="45.68555" lon="6.54273">
        <ele>1459.568</ele>
        <time>2012-01-24T13:23:11Z</time>
      </trkpt>
      <trkpt lat="45.68555" lon="6.54273">
        <ele>1459.599</ele>
        <time>2012-01-24T13:23:21Z</time>
      </trkpt>
      <trkpt lat="45.68555" lon="6.54274">
        <ele>1459.655</ele>
        <time>2012-01-24T13:23:31Z</time>
      </trkpt>
      <trkpt lat="45.68556" lon="6.54275">
        <ele>1459.391</ele>
        <time>2012-01-24T13:23:41Z</time>
      </trkpt>
      <trkpt lat="45.68557" lon="6.54278">
        <ele>1459.312</ele>
        <time>2012-01-24T13:23:51Z</time>
      </trkpt>
      <trkpt lat="45.68557" lon="6.54279">
        <ele>1459.206</ele>
        <time>2012-01-24T13:24:01Z</time>
      </trkpt>
      <trkpt lat="45.68558" lon="6.54279">
        <ele>1458.966</ele>
        <time>2012-01-24T13:24:11Z</time>
      </trkpt>
      <trkpt lat="45.68558" lon="6.54279">
        <ele>1459.083</ele>
        <time>2012-01-24T13:24:21Z</time>
      </trkpt>
      <trkpt lat="45.68558" lon="6.54279">
        <ele>1459.502</ele>
        <time>2012-01-24T13:24:31Z</time>
      </trkpt>
      <trkpt lat="45.68558" lon="6.54279">
        <ele>1459.104</ele>
        <time>2012-01-24T13:24:41Z</time>
      </trkpt>
      <trkpt lat="45.68558" lon="6.54279">
        <ele>1458.979</ele>
        <time>2012-01-24T13:24:51Z</time>
      </trkpt>
      <trkpt lat="45.68558" lon="6.5428">
        <ele>1459.438</ele>
        <time>2012-01-24T13:25:01Z</time>
      </trkpt>
      <trkpt lat="45.68558" lon="6.5428">
        <ele>1459.13</ele>
        <time>2012-01-24T13:25:11Z</time>
      </trkpt>
      <trkpt lat="45.68557" lon="6.5428">
        <ele>1459.169</ele>
        <time>2012-01-24T13:25:21Z</time>
      </trkpt>
      <trkpt lat="45.68557" lon="6.5428">
        <ele>1459.307</ele>
        <time>2012-01-24T13:25:31Z</time>
      </trkpt>
      <trkpt lat="45.68557" lon="6.54279">
        <ele>1459.122</ele>
        <time>2012-01-24T13:25:41Z</time>
      </trkpt>
      <trkpt lat="45.68556" lon="6.54279">
        <ele>1458.509</ele>
        <time>2012-01-24T13:25:51Z</time>
      </trkpt>
      <trkpt lat="45.68556" lon="6.54279">
        <ele>1458.974</ele>
        <time>2012-01-24T13:26:01Z</time>
      </trkpt>
      <trkpt lat="45.68556" lon="6.54279">
        <ele>1459.206</ele>
        <time>2012-01-24T13:26:11Z</time>
      </trkpt>
      <trkpt lat="45.68556" lon="6.54278">
        <ele>1459.512</ele>
        <time>2012-01-24T13:26:21Z</time>
      </trkpt>
      <trkpt lat="45.68556" lon="6.54278">
        <ele>1458.705</ele>
        <time>2012-01-24T13:26:31Z</time>
      </trkpt>
      <trkpt lat="45.68556" lon="6.54278">
        <ele>1459.507</ele>
        <time>2012-01-24T13:26:41Z</time>
      </trkpt>
      <trkpt lat="45.68556" lon="6.54277">
        <ele>1459.134</ele>
        <time>2012-01-24T13:26:51Z</time>
      </trkpt>
      <trkpt lat="45.68557" lon="6.54277">
        <ele>1459.184</ele>
        <time>2012-01-24T13:27:01Z</time>
      </trkpt>
      <trkpt lat="45.68557" lon="6.54277">
        <ele>1458.677</ele>
        <time>2012-01-24T13:27:11Z</time>
      </trkpt>
      <trkpt lat="45.68557" lon="6.54277">
        <ele>1458.442</ele>
        <time>2012-01-24T13:27:21Z</time>
      </trkpt>
      <trkpt lat="45.68557" lon="6.54277">
        <ele>1458.501</ele>
        <time>2012-01-24T13:27:31Z</time>
      </trkpt>
      <trkpt lat="45.68557" lon="6.54276">
        <ele>1458.771</ele>
        <time>2012-01-24T13:27:41Z</time>
      </trkpt>
      <trkpt lat="45.68557" lon="6.54275">
        <ele>1459.076</ele>
        <time>2012-01-24T13:27:51Z</time>
      </trkpt>
      <trkpt lat="45.68557" lon="6.54275">
        <ele>1458.599</ele>
        <time>2012-01-24T13:28:01Z</time>
      </trkpt>
      <trkpt lat="45.68557" lon="6.54275">
        <ele>1458.715</ele>
        <time>2012-01-24T13:28:11Z</time>
      </trkpt>
      <trkpt lat="45.68557" lon="6.54275">
        <ele>1458.645</ele>
        <time>2012-01-24T13:28:21Z</time>
      </trkpt>
      <trkpt lat="45.68557" lon="6.54275">
        <ele>1458.725</ele>
        <time>2012-01-24T13:28:31Z</time>
      </trkpt>
      <trkpt lat="45.68557" lon="6.54275">
        <ele>1458.736</ele>
        <time>2012-01-24T13:28:41Z</time>
      </trkpt>
      <trkpt lat="45.68557" lon="6.54275">
        <ele>1458.57</ele>
        <time>2012-01-24T13:28:51Z</time>
      </trkpt>
      <trkpt lat="45.68557" lon="6.54275">
        <ele>1458.746</ele>
        <time>2012-01-24T13:29:01Z</time>
      </trkpt>
      <trkpt lat="45.68557" lon="6.54275">
        <ele>1458.676</ele>
        <time>2012-01-24T13:29:11Z</time>
      </trkpt>
      <trkpt lat="45.68557" lon="6.54275">
        <ele>1458.781</ele>
        <time>2012-01-24T13:29:21Z</time>
      </trkpt>
      <trkpt lat="45.68557" lon="6.54275">
        <ele>1458.838</ele>
        <time>2012-01-24T13:29:31Z</time>
      </trkpt>
      <trkpt lat="45.68557" lon="6.54275">
        <ele>1458.62</ele>
        <time>2012-01-24T13:29:41Z</time>
      </trkpt>
      <trkpt lat="45.68557" lon="6.54275">
        <ele>1458.863</ele>
        <time>2012-01-24T13:29:51Z</time>
      </trkpt>
      <trkpt lat="45.68557" lon="6.54275">
        <ele>1458.444</ele>
        <time>2012-01-24T13:30:01Z</time>
      </trkpt>
      <trkpt lat="45.68557" lon="6.54275">
        <ele>1458.749</ele>
        <time>2012-01-24T13:30:11Z</time>
      </trkpt>
      <trkpt lat="45.68557" lon="6.54275">
        <ele>1458.828</ele>
        <time>2012-01-24T13:30:21Z</time>
      </trkpt>
      <trkpt lat="45.68557" lon="6.54275">
        <ele>1458.536</ele>
        <time>2012-01-24T13:30:31Z</time>
      </trkpt>
      <trkpt lat="45.68557" lon="6.54276">
        <ele>1458.738</ele>
        <time>2012-01-24T13:30:41Z</time>
      </trkpt>
      <trkpt lat="45.68557" lon="6.54276">
        <ele>1459.074</ele>
        <time>2012-01-24T13:30:51Z</time>
      </trkpt>
      <trkpt lat="45.68557" lon="6.54276">
        <ele>1458.707</ele>
        <time>2012-01-24T13:31:01Z</time>
      </trkpt>
      <trkpt lat="45.68557" lon="6.54276">
        <ele>1458.791</ele>
        <time>2012-01-24T13:31:11Z</time>
      </trkpt>
      <trkpt lat="45.68556" lon="6.54276">
        <ele>1458.989</ele>
        <time>2012-01-24T13:31:21Z</time>
      </trkpt>
      <trkpt lat="45.68555" lon="6.54286">
        <ele>1457.352</ele>
        <time>2012-01-24T13:31:31Z</time>
      </trkpt>
      <trkpt lat="45.68556" lon="6.54298">
        <ele>1455.138</ele>
        <time>2012-01-24T13:31:41Z</time>
      </trkpt>
      <trkpt lat="45.68557" lon="6.54306">
        <ele>1453.596</ele>
        <time>2012-01-24T13:31:51Z</time>
      </trkpt>
      <trkpt lat="45.68558" lon="6.54314">
        <ele>1451.717</ele>
        <time>2012-01-24T13:32:01Z</time>
      </trkpt>
      <trkpt lat="45.6856" lon="6.54321">
        <ele>1450.29</ele>
        <time>2012-01-24T13:32:11Z</time>
      </trkpt>
      <trkpt lat="45.68561" lon="6.54329">
        <ele>1448.492</ele>
        <time>2012-01-24T13:32:21Z</time>
      </trkpt>
      <trkpt lat="45.68563" lon="6.54338">
        <ele>1446.927</ele>
        <time>2012-01-24T13:32:31Z</time>
      </trkpt>
      <trkpt lat="45.68564" lon="6.54348">
        <ele>1445.965</ele>
        <time>2012-01-24T13:32:41Z</time>
      </trkpt>
      <trkpt lat="45.68567" lon="6.54357">
        <ele>1444.976</ele>
        <time>2012-01-24T13:32:51Z</time>
      </trkpt>
      <trkpt lat="45.68567" lon="6.54365">
        <ele>1443.766</ele>
        <time>2012-01-24T13:33:01Z</time>
      </trkpt>
      <trkpt lat="45.68569" lon="6.54375">
        <ele>1442.048</ele>
        <time>2012-01-24T13:33:11Z</time>
      </trkpt>
      <trkpt lat="45.68572" lon="6.54385">
        <ele>1440.381</ele>
        <time>2012-01-24T13:33:21Z</time>
      </trkpt>
      <trkpt lat="45.68574" lon="6.54394">
        <ele>1439.153</ele>
        <time>2012-01-24T13:33:31Z</time>
      </trkpt>
      <trkpt lat="45.68575" lon="6.54402">
        <ele>1436.823</ele>
        <time>2012-01-24T13:33:41Z</time>
      </trkpt>
      <trkpt lat="45.68576" lon="6.54411">
        <ele>1435.592</ele>
        <time>2012-01-24T13:33:51Z</time>
      </trkpt>
      <trkpt lat="45.68578" lon="6.5442">
        <ele>1435.212</ele>
        <time>2012-01-24T13:34:01Z</time>
      </trkpt>
      <trkpt lat="45.6858" lon="6.54429">
        <ele>1433.076</ele>
        <time>2012-01-24T13:34:11Z</time>
      </trkpt>
      <trkpt lat="45.68583" lon="6.54439">
        <ele>1429.945</ele>
        <time>2012-01-24T13:34:21Z</time>
      </trkpt>
      <trkpt lat="45.68587" lon="6.54447">
        <ele>1427.849</ele>
        <time>2012-01-24T13:34:31Z</time>
      </trkpt>
      <trkpt lat="45.68589" lon="6.54453">
        <ele>1426.026</ele>
        <time>2012-01-24T13:34:41Z</time>
      </trkpt>
      <trkpt lat="45.68592" lon="6.54462">
        <ele>1424.819</ele>
        <time>2012-01-24T13:34:51Z</time>
      </trkpt>
      <trkpt lat="45.68596" lon="6.54468">
        <ele>1423.181</ele>
        <time>2012-01-24T13:35:01Z</time>
      </trkpt>
      <trkpt lat="45.68599" lon="6.54476">
        <ele>1420.602</ele>
        <time>2012-01-24T13:35:11Z</time>
      </trkpt>
      <trkpt lat="45.68603" lon="6.54483">
        <ele>1418.021</ele>
        <time>2012-01-24T13:35:21Z</time>
      </trkpt>
      <trkpt lat="45.68604" lon="6.54488">
        <ele>1416.285</ele>
        <time>2012-01-24T13:35:31Z</time>
      </trkpt>
      <trkpt lat="45.68607" lon="6.54495">
        <ele>1415.14</ele>
        <time>2012-01-24T13:35:41Z</time>
      </trkpt>
      <trkpt lat="45.68609" lon="6.54503">
        <ele>1412.776</ele>
        <time>2012-01-24T13:35:51Z</time>
      </trkpt>
      <trkpt lat="45.68614" lon="6.54512">
        <ele>1410.38</ele>
        <time>2012-01-24T13:36:01Z</time>
      </trkpt>
      <trkpt lat="45.68619" lon="6.54517">
        <ele>1408.261</ele>
        <time>2012-01-24T13:36:11Z</time>
      </trkpt>
      <trkpt lat="45.68625" lon="6.54521">
        <ele>1406.768</ele>
        <time>2012-01-24T13:36:21Z</time>
      </trkpt>
      <trkpt lat="45.68632" lon="6.54526">
        <ele>1404.513</ele>
        <time>2012-01-24T13:36:31Z</time>
      </trkpt>
      <trkpt lat="45.68637" lon="6.54524">
        <ele>1402.952</ele>
        <time>2012-01-24T13:36:41Z</time>
      </trkpt>
      <trkpt lat="45.68637" lon="6.54523">
        <ele>1403.427</ele>
        <time>2012-01-24T13:36:51Z</time>
      </trkpt>
      <trkpt lat="45.68638" lon="6.54522">
        <ele>1402.976</ele>
        <time>2012-01-24T13:37:01Z</time>
      </trkpt>
      <trkpt lat="45.68638" lon="6.54522">
        <ele>1402.755</ele>
        <time>2012-01-24T13:37:11Z</time>
      </trkpt>
      <trkpt lat="45.68638" lon="6.54521">
        <ele>1403.05</ele>
        <time>2012-01-24T13:37:21Z</time>
      </trkpt>
      <trkpt lat="45.68638" lon="6.5452">
        <ele>1403.174</ele>
        <time>2012-01-24T13:37:31Z</time>
      </trkpt>
      <trkpt lat="45.68638" lon="6.5452">
        <ele>1402.734</ele>
        <time>2012-01-24T13:37:41Z</time>
      </trkpt>
      <trkpt lat="45.68639" lon="6.54521">
        <ele>1403.329</ele>
        <time>2012-01-24T13:37:51Z</time>
      </trkpt>
      <trkpt lat="45.68642" lon="6.54529">
        <ele>1401.045</ele>
        <time>2012-01-24T13:38:01Z</time>
      </trkpt>
      <trkpt lat="45.68651" lon="6.54532">
        <ele>1398.724</ele>
        <time>2012-01-24T13:38:11Z</time>
      </trkpt>
      <trkpt lat="45.68653" lon="6.54535">
        <ele>1399.367</ele>
        <time>2012-01-24T13:38:21Z</time>
      </trkpt>
      <trkpt lat="45.68659" lon="6.54547">
        <ele>1396.768</ele>
        <time>2012-01-24T13:38:31Z</time>
      </trkpt>
      <trkpt lat="45.68662" lon="6.54554">
        <ele>1393.858</ele>
        <time>2012-01-24T13:38:41Z</time>
      </trkpt>
      <trkpt lat="45.68666" lon="6.54562">
        <ele>1392.223</ele>
        <time>2012-01-24T13:38:51Z</time>
      </trkpt>
      <trkpt lat="45.68671" lon="6.54567">
        <ele>1390.942</ele>
        <time>2012-01-24T13:39:01Z</time>
      </trkpt>
      <trkpt lat="45.68675" lon="6.54574">
        <ele>1388.846</ele>
        <time>2012-01-24T13:39:11Z</time>
      </trkpt>
      <trkpt lat="45.68681" lon="6.54575">
        <ele>1388.09</ele>
        <time>2012-01-24T13:39:21Z</time>
      </trkpt>
      <trkpt lat="45.68687" lon="6.5457">
        <ele>1387.593</ele>
        <time>2012-01-24T13:39:31Z</time>
      </trkpt>
      <trkpt lat="45.68688" lon="6.54564">
        <ele>1386.125</ele>
        <time>2012-01-24T13:39:41Z</time>
      </trkpt>
      <trkpt lat="45.68687" lon="6.54557">
        <ele>1384.764</ele>
        <time>2012-01-24T13:39:51Z</time>
      </trkpt>
      <trkpt lat="45.68688" lon="6.54549">
        <ele>1383.414</ele>
        <time>2012-01-24T13:40:01Z</time>
      </trkpt>
      <trkpt lat="45.68695" lon="6.54551">
        <ele>1381.866</ele>
        <time>2012-01-24T13:40:11Z</time>
      </trkpt>
      <trkpt lat="45.68701" lon="6.54558">
        <ele>1380.675</ele>
        <time>2012-01-24T13:40:21Z</time>
      </trkpt>
      <trkpt lat="45.687" lon="6.54562">
        <ele>1380.325</ele>
        <time>2012-01-24T13:40:31Z</time>
      </trkpt>
      <trkpt lat="45.687" lon="6.54563">
        <ele>1379.839</ele>
        <time>2012-01-24T13:40:41Z</time>
      </trkpt>
      <trkpt lat="45.68701" lon="6.54563">
        <ele>1379.943</ele>
        <time>2012-01-24T13:40:51Z</time>
      </trkpt>
      <trkpt lat="45.68701" lon="6.54564">
        <ele>1380.085</ele>
        <time>2012-01-24T13:41:01Z</time>
      </trkpt>
      <trkpt lat="45.687" lon="6.54565">
        <ele>1380.067</ele>
        <time>2012-01-24T13:41:11Z</time>
      </trkpt>
      <trkpt lat="45.68701" lon="6.54566">
        <ele>1380.471</ele>
        <time>2012-01-24T13:41:21Z</time>
      </trkpt>
      <trkpt lat="45.68701" lon="6.54566">
        <ele>1380.613</ele>
        <time>2012-01-24T13:41:31Z</time>
      </trkpt>
      <trkpt lat="45.68701" lon="6.54567">
        <ele>1380.667</ele>
        <time>2012-01-24T13:41:41Z</time>
      </trkpt>
      <trkpt lat="45.68703" lon="6.5457">
        <ele>1380.486</ele>
        <time>2012-01-24T13:41:51Z</time>
      </trkpt>
      <trkpt lat="45.68705" lon="6.54579">
        <ele>1378.314</ele>
        <time>2012-01-24T13:42:01Z</time>
      </trkpt>
      <trkpt lat="45.68704" lon="6.54591">
        <ele>1376.311</ele>
        <time>2012-01-24T13:42:11Z</time>
      </trkpt>
      <trkpt lat="45.68707" lon="6.546">
        <ele>1374.91</ele>
        <time>2012-01-24T13:42:21Z</time>
      </trkpt>
      <trkpt lat="45.68711" lon="6.54614">
        <ele>1374.408</ele>
        <time>2012-01-24T13:42:31Z</time>
      </trkpt>
      <trkpt lat="45.68713" lon="6.54621">
        <ele>1373.736</ele>
        <time>2012-01-24T13:42:41Z</time>
      </trkpt>
      <trkpt lat="45.68719" lon="6.54626">
        <ele>1371.286</ele>
        <time>2012-01-24T13:42:51Z</time>
      </trkpt>
      <trkpt lat="45.68725" lon="6.54631">
        <ele>1369.617</ele>
        <time>2012-01-24T13:43:01Z</time>
      </trkpt>
      <trkpt lat="45.68734" lon="6.54634">
        <ele>1366.717</ele>
        <time>2012-01-24T13:43:11Z</time>
      </trkpt>
      <trkpt lat="45.68741" lon="6.54638">
        <ele>1364.759</ele>
        <time>2012-01-24T13:43:21Z</time>
      </trkpt>
      <trkpt lat="45.68747" lon="6.54642">
        <ele>1362.473</ele>
        <time>2012-01-24T13:43:31Z</time>
      </trkpt>
      <trkpt lat="45.68753" lon="6.54648">
        <ele>1361.132</ele>
        <time>2012-01-24T13:43:41Z</time>
      </trkpt>
      <trkpt lat="45.68755" lon="6.54659">
        <ele>1359.01</ele>
        <time>2012-01-24T13:43:51Z</time>
      </trkpt>
      <trkpt lat="45.68756" lon="6.54671">
        <ele>1357.63</ele>
        <time>2012-01-24T13:44:01Z</time>
      </trkpt>
      <trkpt lat="45.68756" lon="6.54674">
        <ele>1356.549</ele>
        <time>2012-01-24T13:44:11Z</time>
      </trkpt>
      <trkpt lat="45.68749" lon="6.54679">
        <ele>1356.957</ele>
        <time>2012-01-24T13:44:21Z</time>
      </trkpt>
      <trkpt lat="45.68747" lon="6.54681">
        <ele>1356.593</ele>
        <time>2012-01-24T13:44:31Z</time>
      </trkpt>
      <trkpt lat="45.68755" lon="6.54691">
        <ele>1355.674</ele>
        <time>2012-01-24T13:44:41Z</time>
      </trkpt>
      <trkpt lat="45.68758" lon="6.547">
        <ele>1353.942</ele>
        <time>2012-01-24T13:44:51Z</time>
      </trkpt>
      <trkpt lat="45.68763" lon="6.54707">
        <ele>1352.484</ele>
        <time>2012-01-24T13:45:01Z</time>
      </trkpt>
      <trkpt lat="45.68761" lon="6.54719">
        <ele>1350.247</ele>
        <time>2012-01-24T13:45:11Z</time>
      </trkpt>
      <trkpt lat="45.68756" lon="6.54731">
        <ele>1348.84</ele>
        <time>2012-01-24T13:45:21Z</time>
      </trkpt>
      <trkpt lat="45.68757" lon="6.54745">
        <ele>1346.882</ele>
        <time>2012-01-24T13:45:31Z</time>
      </trkpt>
      <trkpt lat="45.68764" lon="6.54749">
        <ele>1344.925</ele>
        <time>2012-01-24T13:45:41Z</time>
      </trkpt>
      <trkpt lat="45.68776" lon="6.54746">
        <ele>1343.476</ele>
        <time>2012-01-24T13:45:51Z</time>
      </trkpt>
      <trkpt lat="45.68785" lon="6.54751">
        <ele>1341.98</ele>
        <time>2012-01-24T13:46:01Z</time>
      </trkpt>
      <trkpt lat="45.68792" lon="6.54761">
        <ele>1340.274</ele>
        <time>2012-01-24T13:46:11Z</time>
      </trkpt>
      <trkpt lat="45.68788" lon="6.54767">
        <ele>1339.429</ele>
        <time>2012-01-24T13:46:21Z</time>
      </trkpt>
      <trkpt lat="45.68788" lon="6.54767">
        <ele>1339.535</ele>
        <time>2012-01-24T13:46:31Z</time>
      </trkpt>
      <trkpt lat="45.68788" lon="6.54769">
        <ele>1339.407</ele>
        <time>2012-01-24T13:46:41Z</time>
      </trkpt>
      <trkpt lat="45.68786" lon="6.5477">
        <ele>1339.598</ele>
        <time>2012-01-24T13:46:51Z</time>
      </trkpt>
      <trkpt lat="45.68785" lon="6.5477">
        <ele>1339.626</ele>
        <time>2012-01-24T13:47:01Z</time>
      </trkpt>
      <trkpt lat="45.68785" lon="6.54771">
        <ele>1339.608</ele>
        <time>2012-01-24T13:47:11Z</time>
      </trkpt>
      <trkpt lat="45.68784" lon="6.54771">
        <ele>1340.021</ele>
        <time>2012-01-24T13:47:21Z</time>
      </trkpt>
      <trkpt lat="45.68784" lon="6.54771">
        <ele>1339.914</ele>
        <time>2012-01-24T13:47:31Z</time>
      </trkpt>
      <trkpt lat="45.68784" lon="6.54771">
        <ele>1340.091</ele>
        <time>2012-01-24T13:47:41Z</time>
      </trkpt>
      <trkpt lat="45.68784" lon="6.54771">
        <ele>1340.309</ele>
        <time>2012-01-24T13:47:51Z</time>
      </trkpt>
      <trkpt lat="45.68784" lon="6.54771">
        <ele>1340.421</ele>
        <time>2012-01-24T13:48:01Z</time>
      </trkpt>
      <trkpt lat="45.68784" lon="6.54771">
        <ele>1340.307</ele>
        <time>2012-01-24T13:48:11Z</time>
      </trkpt>
      <trkpt lat="45.68784" lon="6.54771">
        <ele>1340.428</ele>
        <time>2012-01-24T13:48:21Z</time>
      </trkpt>
      <trkpt lat="45.68783" lon="6.54771">
        <ele>1340.467</ele>
        <time>2012-01-24T13:48:31Z</time>
      </trkpt>
      <trkpt lat="45.68783" lon="6.54772">
        <ele>1340.689</ele>
        <time>2012-01-24T13:48:41Z</time>
      </trkpt>
      <trkpt lat="45.68783" lon="6.54772">
        <ele>1340.836</ele>
        <time>2012-01-24T13:48:51Z</time>
      </trkpt>
      <trkpt lat="45.68782" lon="6.54772">
        <ele>1340.988</ele>
        <time>2012-01-24T13:49:01Z</time>
      </trkpt>
      <trkpt lat="45.68782" lon="6.54772">
        <ele>1341.212</ele>
        <time>2012-01-24T13:49:11Z</time>
      </trkpt>
      <trkpt lat="45.68782" lon="6.54772">
        <ele>1340.994</ele>
        <time>2012-01-24T13:49:21Z</time>
      </trkpt>
      <trkpt lat="45.68784" lon="6.54775">
        <ele>1339.836</ele>
        <time>2012-01-24T13:49:31Z</time>
      </trkpt>
      <trkpt lat="45.68789" lon="6.54781">
        <ele>1337.486</ele>
        <time>2012-01-24T13:49:41Z</time>
      </trkpt>
      <trkpt lat="45.68793" lon="6.54791">
        <ele>1335.694</ele>
        <time>2012-01-24T13:49:51Z</time>
      </trkpt>
      <trkpt lat="45.68796" lon="6.54802">
        <ele>1333.493</ele>
        <time>2012-01-24T13:50:01Z</time>
      </trkpt>
      <trkpt lat="45.68797" lon="6.54815">
        <ele>1331.614</ele>
        <time>2012-01-24T13:50:11Z</time>
      </trkpt>
      <trkpt lat="45.68802" lon="6.54825">
        <ele>1330.193</ele>
        <time>2012-01-24T13:50:21Z</time>
      </trkpt>
      <trkpt lat="45.68802" lon="6.54825">
        <ele>1329.986</ele>
        <time>2012-01-24T13:50:31Z</time>
      </trkpt>
      <trkpt lat="45.68802" lon="6.54827">
        <ele>1330.117</ele>
        <time>2012-01-24T13:50:41Z</time>
      </trkpt>
      <trkpt lat="45.68802" lon="6.54828">
        <ele>1330.248</ele>
        <time>2012-01-24T13:50:51Z</time>
      </trkpt>
      <trkpt lat="45.68802" lon="6.54829">
        <ele>1330.675</ele>
        <time>2012-01-24T13:51:01Z</time>
      </trkpt>
      <trkpt lat="45.68803" lon="6.54829">
        <ele>1330.405</ele>
        <time>2012-01-24T13:51:11Z</time>
      </trkpt>
      <trkpt lat="45.68803" lon="6.5483">
        <ele>1330.33</ele>
        <time>2012-01-24T13:51:21Z</time>
      </trkpt>
      <trkpt lat="45.68803" lon="6.5483">
        <ele>1330.94</ele>
        <time>2012-01-24T13:51:31Z</time>
      </trkpt>
      <trkpt lat="45.68803" lon="6.5483">
        <ele>1330.744</ele>
        <time>2012-01-24T13:51:41Z</time>
      </trkpt>
      <trkpt lat="45.68803" lon="6.5483">
        <ele>1330.687</ele>
        <time>2012-01-24T13:51:51Z</time>
      </trkpt>
      <trkpt lat="45.68803" lon="6.5483">
        <ele>1331.036</ele>
        <time>2012-01-24T13:52:01Z</time>
      </trkpt>
      <trkpt lat="45.68803" lon="6.5483">
        <ele>1330.994</ele>
        <time>2012-01-24T13:52:11Z</time>
      </trkpt>
      <trkpt lat="45.68803" lon="6.5483">
        <ele>1331.168</ele>
        <time>2012-01-24T13:52:21Z</time>
      </trkpt>
      <trkpt lat="45.68803" lon="6.5483">
        <ele>1331.786</ele>
        <time>2012-01-24T13:52:31Z</time>
      </trkpt>
      <trkpt lat="45.68803" lon="6.5483">
        <ele>1331.585</ele>
        <time>2012-01-24T13:52:41Z</time>
      </trkpt>
      <trkpt lat="45.68803" lon="6.5483">
        <ele>1331.398</ele>
        <time>2012-01-24T13:52:51Z</time>
      </trkpt>
      <trkpt lat="45.68803" lon="6.54831">
        <ele>1331.459</ele>
        <time>2012-01-24T13:53:01Z</time>
      </trkpt>
      <trkpt lat="45.68804" lon="6.54844">
        <ele>1329.442</ele>
        <time>2012-01-24T13:53:11Z</time>
      </trkpt>
      <trkpt lat="45.68805" lon="6.5486">
        <ele>1328.09</ele>
        <time>2012-01-24T13:53:21Z</time>
      </trkpt>
      <trkpt lat="45.68811" lon="6.54872">
        <ele>1328.24</ele>
        <time>2012-01-24T13:53:31Z</time>
      </trkpt>
      <trkpt lat="45.68812" lon="6.54885">
        <ele>1326.362</ele>
        <time>2012-01-24T13:53:41Z</time>
      </trkpt>
      <trkpt lat="45.68807" lon="6.54894">
        <ele>1324.694</ele>
        <time>2012-01-24T13:53:51Z</time>
      </trkpt>
      <trkpt lat="45.68804" lon="6.54905">
        <ele>1321.473</ele>
        <time>2012-01-24T13:54:01Z</time>
      </trkpt>
      <trkpt lat="45.68801" lon="6.54914">
        <ele>1320.027</ele>
        <time>2012-01-24T13:54:11Z</time>
      </trkpt>
      <trkpt lat="45.68791" lon="6.54925">
        <ele>1318.374</ele>
        <time>2012-01-24T13:54:21Z</time>
      </trkpt>
      <trkpt lat="45.6878" lon="6.54927">
        <ele>1316.556</ele>
        <time>2012-01-24T13:54:31Z</time>
      </trkpt>
      <trkpt lat="45.68773" lon="6.5493">
        <ele>1314.258</ele>
        <time>2012-01-24T13:54:41Z</time>
      </trkpt>
      <trkpt lat="45.6877" lon="6.54941">
        <ele>1314.953</ele>
        <time>2012-01-24T13:54:51Z</time>
      </trkpt>
      <trkpt lat="45.68767" lon="6.54955">
        <ele>1314.541</ele>
        <time>2012-01-24T13:55:01Z</time>
      </trkpt>
      <trkpt lat="45.68759" lon="6.54965">
        <ele>1314.085</ele>
        <time>2012-01-24T13:55:11Z</time>
      </trkpt>
      <trkpt lat="45.68754" lon="6.54973">
        <ele>1312.714</ele>
        <time>2012-01-24T13:55:21Z</time>
      </trkpt>
      <trkpt lat="45.68752" lon="6.54985">
        <ele>1312.28</ele>
        <time>2012-01-24T13:55:31Z</time>
      </trkpt>
      <trkpt lat="45.68757" lon="6.54996">
        <ele>1311.802</ele>
        <time>2012-01-24T13:55:41Z</time>
      </trkpt>
      <trkpt lat="45.68762" lon="6.55007">
        <ele>1311.834</ele>
        <time>2012-01-24T13:55:51Z</time>
      </trkpt>
      <trkpt lat="45.68767" lon="6.55018">
        <ele>1311.414</ele>
        <time>2012-01-24T13:56:01Z</time>
      </trkpt>
      <trkpt lat="45.68773" lon="6.55028">
        <ele>1309.991</ele>
        <time>2012-01-24T13:56:11Z</time>
      </trkpt>
      <trkpt lat="45.68781" lon="6.55034">
        <ele>1307.475</ele>
        <time>2012-01-24T13:56:21Z</time>
      </trkpt>
      <trkpt lat="45.6879" lon="6.55044">
        <ele>1305.611</ele>
        <time>2012-01-24T13:56:31Z</time>
      </trkpt>
      <trkpt lat="45.6879" lon="6.55045">
        <ele>1305.614</ele>
        <time>2012-01-24T13:56:41Z</time>
      </trkpt>
      <trkpt lat="45.68789" lon="6.55047">
        <ele>1305.394</ele>
        <time>2012-01-24T13:56:51Z</time>
      </trkpt>
      <trkpt lat="45.68789" lon="6.55047">
        <ele>1305.268</ele>
        <time>2012-01-24T13:57:01Z</time>
      </trkpt>
      <trkpt lat="45.68789" lon="6.55047">
        <ele>1305.345</ele>
        <time>2012-01-24T13:57:11Z</time>
      </trkpt>
      <trkpt lat="45.68789" lon="6.55047">
        <ele>1305.702</ele>
        <time>2012-01-24T13:57:21Z</time>
      </trkpt>
      <trkpt lat="45.68789" lon="6.55047">
        <ele>1305.387</ele>
        <time>2012-01-24T13:57:31Z</time>
      </trkpt>
      <trkpt lat="45.68789" lon="6.55047">
        <ele>1305.68</ele>
        <time>2012-01-24T13:57:41Z</time>
      </trkpt>
      <trkpt lat="45.68789" lon="6.55047">
        <ele>1305.826</ele>
        <time>2012-01-24T13:57:51Z</time>
      </trkpt>
      <trkpt lat="45.68789" lon="6.55047">
        <ele>1306.227</ele>
        <time>2012-01-24T13:58:01Z</time>
      </trkpt>
      <trkpt lat="45.68789" lon="6.55047">
        <ele>1305.866</ele>
        <time>2012-01-24T13:58:11Z</time>
      </trkpt>
      <trkpt lat="45.68789" lon="6.55047">
        <ele>1306.018</ele>
        <time>2012-01-24T13:58:21Z</time>
      </trkpt>
      <trkpt lat="45.68789" lon="6.55047">
        <ele>1305.358</ele>
        <time>2012-01-24T13:58:31Z</time>
      </trkpt>
      <trkpt lat="45.68789" lon="6.55047">
        <ele>1305.471</ele>
        <time>2012-01-24T13:58:41Z</time>
      </trkpt>
      <trkpt lat="45.68789" lon="6.55047">
        <ele>1306.14</ele>
        <time>2012-01-24T13:58:51Z</time>
      </trkpt>
      <trkpt lat="45.68789" lon="6.55047">
        <ele>1305.881</ele>
        <time>2012-01-24T13:59:01Z</time>
      </trkpt>
      <trkpt lat="45.68789" lon="6.55047">
        <ele>1306.099</ele>
        <time>2012-01-24T13:59:11Z</time>
      </trkpt>
      <trkpt lat="45.68789" lon="6.55047">
        <ele>1306.221</ele>
        <time>2012-01-24T13:59:21Z</time>
      </trkpt>
      <trkpt lat="45.68789" lon="6.55047">
        <ele>1306.083</ele>
        <time>2012-01-24T13:59:31Z</time>
      </trkpt>
      <trkpt lat="45.68789" lon="6.55047">
        <ele>1306.119</ele>
        <time>2012-01-24T13:59:41Z</time>
      </trkpt>
      <trkpt lat="45.68789" lon="6.55047">
        <ele>1306.053</ele>
        <time>2012-01-24T13:59:51Z</time>
      </trkpt>
      <trkpt lat="45.68789" lon="6.55047">
        <ele>1306.509</ele>
        <time>2012-01-24T14:00:01Z</time>
      </trkpt>
      <trkpt lat="45.68789" lon="6.55047">
        <ele>1306.233</ele>
        <time>2012-01-24T14:00:11Z</time>
      </trkpt>
      <trkpt lat="45.68789" lon="6.55047">
        <ele>1306.04</ele>
        <time>2012-01-24T14:00:21Z</time>
      </trkpt>
      <trkpt lat="45.68789" lon="6.55048">
        <ele>1306.368</ele>
        <time>2012-01-24T14:00:31Z</time>
      </trkpt>
      <trkpt lat="45.68789" lon="6.55048">
        <ele>1306.249</ele>
        <time>2012-01-24T14:00:41Z</time>
      </trkpt>
      <trkpt lat="45.68789" lon="6.55048">
        <ele>1306.352</ele>
        <time>2012-01-24T14:00:51Z</time>
      </trkpt>
      <trkpt lat="45.68789" lon="6.55048">
        <ele>1306.526</ele>
        <time>2012-01-24T14:01:01Z</time>
      </trkpt>
      <trkpt lat="45.68789" lon="6.55048">
        <ele>1306.536</ele>
        <time>2012-01-24T14:01:11Z</time>
      </trkpt>
      <trkpt lat="45.68789" lon="6.55048">
        <ele>1306.631</ele>
        <time>2012-01-24T14:01:21Z</time>
      </trkpt>
      <trkpt lat="45.68789" lon="6.55048">
        <ele>1306.557</ele>
        <time>2012-01-24T14:01:31Z</time>
      </trkpt>
      <trkpt lat="45.68789" lon="6.55048">
        <ele>1306.66</ele>
        <time>2012-01-24T14:01:41Z</time>
      </trkpt>
      <trkpt lat="45.68789" lon="6.55047">
        <ele>1306.733</ele>
        <time>2012-01-24T14:01:51Z</time>
      </trkpt>
      <trkpt lat="45.68789" lon="6.55047">
        <ele>1306.365</ele>
        <time>2012-01-24T14:02:01Z</time>
      </trkpt>
      <trkpt lat="45.68789" lon="6.55048">
        <ele>1306.084</ele>
        <time>2012-01-24T14:02:11Z</time>
      </trkpt>
      <trkpt lat="45.68794" lon="6.55056">
        <ele>1304.8</ele>
        <time>2012-01-24T14:02:21Z</time>
      </trkpt>
      <trkpt lat="45.68799" lon="6.55066">
        <ele>1302.359</ele>
        <time>2012-01-24T14:02:31Z</time>
      </trkpt>
      <trkpt lat="45.68806" lon="6.55077">
        <ele>1300.409</ele>
        <time>2012-01-24T14:02:41Z</time>
      </trkpt>
      <trkpt lat="45.68808" lon="6.5509">
        <ele>1298.461</ele>
        <time>2012-01-24T14:02:51Z</time>
      </trkpt>
      <trkpt lat="45.68815" lon="6.55101">
        <ele>1296.38</ele>
        <time>2012-01-24T14:03:01Z</time>
      </trkpt>
      <trkpt lat="45.68821" lon="6.55115">
        <ele>1295.286</ele>
        <time>2012-01-24T14:03:11Z</time>
      </trkpt>
      <trkpt lat="45.68823" lon="6.55129">
        <ele>1293.689</ele>
        <time>2012-01-24T14:03:21Z</time>
      </trkpt>
      <trkpt lat="45.68828" lon="6.55141">
        <ele>1291.62</ele>
        <time>2012-01-24T14:03:31Z</time>
      </trkpt>
      <trkpt lat="45.68832" lon="6.55152">
        <ele>1289.916</ele>
        <time>2012-01-24T14:03:41Z</time>
      </trkpt>
      <trkpt lat="45.68836" lon="6.55164">
        <ele>1288.973</ele>
        <time>2012-01-24T14:03:51Z</time>
      </trkpt>
      <trkpt lat="45.68841" lon="6.55173">
        <ele>1287.342</ele>
        <time>2012-01-24T14:04:01Z</time>
      </trkpt>
      <trkpt lat="45.68845" lon="6.55183">
        <ele>1285.566</ele>
        <time>2012-01-24T14:04:11Z</time>
      </trkpt>
      <trkpt lat="45.68849" lon="6.55193">
        <ele>1283.866</ele>
        <time>2012-01-24T14:04:21Z</time>
      </trkpt>
      <trkpt lat="45.68855" lon="6.55204">
        <ele>1282.889</ele>
        <time>2012-01-24T14:04:31Z</time>
      </trkpt>
      <trkpt lat="45.68862" lon="6.55216">
        <ele>1281.495</ele>
        <time>2012-01-24T14:04:41Z</time>
      </trkpt>
      <trkpt lat="45.68869" lon="6.55226">
        <ele>1279.638</ele>
        <time>2012-01-24T14:04:51Z</time>
      </trkpt>
      <trkpt lat="45.68873" lon="6.55239">
        <ele>1277.506</ele>
        <time>2012-01-24T14:05:01Z</time>
      </trkpt>
      <trkpt lat="45.68878" lon="6.55251">
        <ele>1275.468</ele>
        <time>2012-01-24T14:05:11Z</time>
      </trkpt>
      <trkpt lat="45.68883" lon="6.55262">
        <ele>1273.838</ele>
        <time>2012-01-24T14:05:21Z</time>
      </trkpt>
      <trkpt lat="45.68887" lon="6.55272">
        <ele>1271.584</ele>
        <time>2012-01-24T14:05:31Z</time>
      </trkpt>
      <trkpt lat="45.68892" lon="6.55282">
        <ele>1269.521</ele>
        <time>2012-01-24T14:05:41Z</time>
      </trkpt>
      <trkpt lat="45.68896" lon="6.55294">
        <ele>1266.784</ele>
        <time>2012-01-24T14:05:51Z</time>
      </trkpt>
      <trkpt lat="45.68896" lon="6.55304">
        <ele>1265.038</ele>
        <time>2012-01-24T14:06:01Z</time>
      </trkpt>
      <trkpt lat="45.68899" lon="6.55312">
        <ele>1263.191</ele>
        <time>2012-01-24T14:06:11Z</time>
      </trkpt>
      <trkpt lat="45.68902" lon="6.55316">
        <ele>1261.356</ele>
        <time>2012-01-24T14:06:21Z</time>
      </trkpt>
      <trkpt lat="45.68901" lon="6.55313">
        <ele>1261.642</ele>
        <time>2012-01-24T14:06:31Z</time>
      </trkpt>
      <trkpt lat="45.68902" lon="6.55313">
        <ele>1261.337</ele>
        <time>2012-01-24T14:06:41Z</time>
      </trkpt>
      <trkpt lat="45.68901" lon="6.55313">
        <ele>1261.08</ele>
        <time>2012-01-24T14:06:51Z</time>
      </trkpt>
      <trkpt lat="45.68902" lon="6.55314">
        <ele>1260.264</ele>
        <time>2012-01-24T14:07:01Z</time>
      </trkpt>
      <trkpt lat="45.68901" lon="6.55311">
        <ele>1260.833</ele>
        <time>2012-01-24T14:07:11Z</time>
      </trkpt>
      <trkpt lat="45.68901" lon="6.55315">
        <ele>1260.494</ele>
        <time>2012-01-24T14:07:21Z</time>
      </trkpt>
      <trkpt lat="45.689" lon="6.55315">
        <ele>1260.195</ele>
        <time>2012-01-24T14:07:31Z</time>
      </trkpt>
      <trkpt lat="45.689" lon="6.55315">
        <ele>1259.966</ele>
        <time>2012-01-24T14:07:41Z</time>
      </trkpt>
      <trkpt lat="45.689" lon="6.55315">
        <ele>1260.091</ele>
        <time>2012-01-24T14:07:51Z</time>
      </trkpt>
      <trkpt lat="45.689" lon="6.55315">
        <ele>1259.874</ele>
        <time>2012-01-24T14:08:01Z</time>
      </trkpt>
      <trkpt lat="45.68901" lon="6.55313">
        <ele>1260.634</ele>
        <time>2012-01-24T14:08:11Z</time>
      </trkpt>
      <trkpt lat="45.68902" lon="6.55314">
        <ele>1260.511</ele>
        <time>2012-01-24T14:08:21Z</time>
      </trkpt>
      <trkpt lat="45.68902" lon="6.55314">
        <ele>1260.227</ele>
        <time>2012-01-24T14:08:31Z</time>
      </trkpt>
      <trkpt lat="45.68901" lon="6.55314">
        <ele>1260.371</ele>
        <time>2012-01-24T14:08:41Z</time>
      </trkpt>
      <trkpt lat="45.68899" lon="6.55315">
        <ele>1261.279</ele>
        <time>2012-01-24T14:08:51Z</time>
      </trkpt>
      <trkpt lat="45.68898" lon="6.55315">
        <ele>1261.084</ele>
        <time>2012-01-24T14:09:01Z</time>
      </trkpt>
      <trkpt lat="45.68898" lon="6.55315">
        <ele>1261.374</ele>
        <time>2012-01-24T14:09:11Z</time>
      </trkpt>
      <trkpt lat="45.68898" lon="6.55315">
        <ele>1261.373</ele>
        <time>2012-01-24T14:09:21Z</time>
      </trkpt>
      <trkpt lat="45.68898" lon="6.55315">
        <ele>1261.188</ele>
        <time>2012-01-24T14:09:31Z</time>
      </trkpt>
      <trkpt lat="45.68898" lon="6.55315">
        <ele>1261.299</ele>
        <time>2012-01-24T14:09:41Z</time>
      </trkpt>
      <trkpt lat="45.68898" lon="6.55315">
        <ele>1260.945</ele>
        <time>2012-01-24T14:09:51Z</time>
      </trkpt>
      <trkpt lat="45.68898" lon="6.55315">
        <ele>1261.256</ele>
        <time>2012-01-24T14:10:01Z</time>
      </trkpt>
      <trkpt lat="45.68898" lon="6.55315">
        <ele>1261.262</ele>
        <time>2012-01-24T14:10:11Z</time>
      </trkpt>
      <trkpt lat="45.68898" lon="6.55315">
        <ele>1261.359</ele>
        <time>2012-01-24T14:10:21Z</time>
      </trkpt>
      <trkpt lat="45.68898" lon="6.55315">
        <ele>1261.22</ele>
        <time>2012-01-24T14:10:31Z</time>
      </trkpt>
      <trkpt lat="45.68898" lon="6.55315">
        <ele>1261.345</ele>
        <time>2012-01-24T14:10:41Z</time>
      </trkpt>
      <trkpt lat="45.68898" lon="6.55315">
        <ele>1261.348</ele>
        <time>2012-01-24T14:10:51Z</time>
      </trkpt>
      <trkpt lat="45.68898" lon="6.55315">
        <ele>1261.552</ele>
        <time>2012-01-24T14:11:01Z</time>
      </trkpt>
      <trkpt lat="45.68898" lon="6.55315">
        <ele>1261.347</ele>
        <time>2012-01-24T14:11:11Z</time>
      </trkpt>
      <trkpt lat="45.689" lon="6.5532">
        <ele>1261.127</ele>
        <time>2012-01-24T14:11:21Z</time>
      </trkpt>
      <trkpt lat="45.68907" lon="6.55325">
        <ele>1259.099</ele>
        <time>2012-01-24T14:11:31Z</time>
      </trkpt>
      <trkpt lat="45.68914" lon="6.5533">
        <ele>1256.237</ele>
        <time>2012-01-24T14:11:41Z</time>
      </trkpt>
      <trkpt lat="45.68913" lon="6.55338">
        <ele>1253.379</ele>
        <time>2012-01-24T14:11:51Z</time>
      </trkpt>
      <trkpt lat="45.68918" lon="6.55345">
        <ele>1251.044</ele>
        <time>2012-01-24T14:12:01Z</time>
      </trkpt>
      <trkpt lat="45.6892" lon="6.55353">
        <ele>1248.131</ele>
        <time>2012-01-24T14:12:11Z</time>
      </trkpt>
      <trkpt lat="45.68924" lon="6.55358">
        <ele>1245.786</ele>
        <time>2012-01-24T14:12:21Z</time>
      </trkpt>
      <trkpt lat="45.68926" lon="6.55365">
        <ele>1243.192</ele>
        <time>2012-01-24T14:12:31Z</time>
      </trkpt>
      <trkpt lat="45.68931" lon="6.55374">
        <ele>1240.996</ele>
        <time>2012-01-24T14:12:41Z</time>
      </trkpt>
      <trkpt lat="45.68935" lon="6.55382">
        <ele>1238.329</ele>
        <time>2012-01-24T14:12:51Z</time>
      </trkpt>
      <trkpt lat="45.68937" lon="6.55388">
        <ele>1235.77</ele>
        <time>2012-01-24T14:13:01Z</time>
      </trkpt>
      <trkpt lat="45.68937" lon="6.55397">
        <ele>1233.742</ele>
        <time>2012-01-24T14:13:11Z</time>
      </trkpt>
      <trkpt lat="45.68942" lon="6.55405">
        <ele>1232.029</ele>
        <time>2012-01-24T14:13:21Z</time>
      </trkpt>
      <trkpt lat="45.68948" lon="6.55413">
        <ele>1231.706</ele>
        <time>2012-01-24T14:13:31Z</time>
      </trkpt>
      <trkpt lat="45.68955" lon="6.55424">
        <ele>1229.099</ele>
        <time>2012-01-24T14:13:41Z</time>
      </trkpt>
      <trkpt lat="45.68957" lon="6.55434">
        <ele>1227.593</ele>
        <time>2012-01-24T14:13:51Z</time>
      </trkpt>
      <trkpt lat="45.68963" lon="6.55446">
        <ele>1225.709</ele>
        <time>2012-01-24T14:14:01Z</time>
      </trkpt>
      <trkpt lat="45.68969" lon="6.55456">
        <ele>1223.788</ele>
        <time>2012-01-24T14:14:11Z</time>
      </trkpt>
      <trkpt lat="45.68976" lon="6.55467">
        <ele>1222.825</ele>
        <time>2012-01-24T14:14:21Z</time>
      </trkpt>
      <trkpt lat="45.68985" lon="6.55477">
        <ele>1221.567</ele>
        <time>2012-01-24T14:14:31Z</time>
      </trkpt>
      <trkpt lat="45.68991" lon="6.55488">
        <ele>1220.849</ele>
        <time>2012-01-24T14:14:41Z</time>
      </trkpt>
      <trkpt lat="45.68998" lon="6.55495">
        <ele>1220.348</ele>
        <time>2012-01-24T14:14:51Z</time>
      </trkpt>
      <trkpt lat="45.68997" lon="6.55505">
        <ele>1218.481</ele>
        <time>2012-01-24T14:15:01Z</time>
      </trkpt>
      <trkpt lat="45.68997" lon="6.55519">
        <ele>1217.682</ele>
        <time>2012-01-24T14:15:11Z</time>
      </trkpt>
      <trkpt lat="45.69002" lon="6.5553">
        <ele>1218.094</ele>
        <time>2012-01-24T14:15:21Z</time>
      </trkpt>
      <trkpt lat="45.69007" lon="6.55541">
        <ele>1217.309</ele>
        <time>2012-01-24T14:15:31Z</time>
      </trkpt>
      <trkpt lat="45.69012" lon="6.55555">
        <ele>1215.402</ele>
        <time>2012-01-24T14:15:41Z</time>
      </trkpt>
      <trkpt lat="45.69017" lon="6.55566">
        <ele>1214.703</ele>
        <time>2012-01-24T14:15:51Z</time>
      </trkpt>
      <trkpt lat="45.69016" lon="6.55573">
        <ele>1213.903</ele>
        <time>2012-01-24T14:16:01Z</time>
      </trkpt>
      <trkpt lat="45.69016" lon="6.55578">
        <ele>1212.599</ele>
        <time>2012-01-24T14:16:11Z</time>
      </trkpt>
      <trkpt lat="45.69016" lon="6.55579">
        <ele>1212.851</ele>
        <time>2012-01-24T14:16:21Z</time>
      </trkpt>
      <trkpt lat="45.69015" lon="6.5558">
        <ele>1213.04</ele>
        <time>2012-01-24T14:16:31Z</time>
      </trkpt>
      <trkpt lat="45.69014" lon="6.55581">
        <ele>1212.634</ele>
        <time>2012-01-24T14:16:41Z</time>
      </trkpt>
      <trkpt lat="45.69014" lon="6.55581">
        <ele>1212.787</ele>
        <time>2012-01-24T14:16:51Z</time>
      </trkpt>
      <trkpt lat="45.69014" lon="6.55582">
        <ele>1213.033</ele>
        <time>2012-01-24T14:17:01Z</time>
      </trkpt>
      <trkpt lat="45.69014" lon="6.55582">
        <ele>1212.896</ele>
        <time>2012-01-24T14:17:11Z</time>
      </trkpt>
      <trkpt lat="45.69014" lon="6.55582">
        <ele>1213.152</ele>
        <time>2012-01-24T14:17:21Z</time>
      </trkpt>
      <trkpt lat="45.69014" lon="6.55582">
        <ele>1213.08</ele>
        <time>2012-01-24T14:17:31Z</time>
      </trkpt>
      <trkpt lat="45.69014" lon="6.55582">
        <ele>1213.146</ele>
        <time>2012-01-24T14:17:41Z</time>
      </trkpt>
      <trkpt lat="45.69014" lon="6.55582">
        <ele>1212.825</ele>
        <time>2012-01-24T14:17:51Z</time>
      </trkpt>
      <trkpt lat="45.69014" lon="6.55582">
        <ele>1213.532</ele>
        <time>2012-01-24T14:18:01Z</time>
      </trkpt>
      <trkpt lat="45.69014" lon="6.55581">
        <ele>1213.339</ele>
        <time>2012-01-24T14:18:11Z</time>
      </trkpt>
      <trkpt lat="45.69014" lon="6.55581">
        <ele>1213.217</ele>
        <time>2012-01-24T14:18:21Z</time>
      </trkpt>
      <trkpt lat="45.69014" lon="6.55581">
        <ele>1213.106</ele>
        <time>2012-01-24T14:18:31Z</time>
      </trkpt>
      <trkpt lat="45.69014" lon="6.55581">
        <ele>1213.608</ele>
        <time>2012-01-24T14:18:41Z</time>
      </trkpt>
      <trkpt lat="45.69014" lon="6.55581">
        <ele>1213.644</ele>
        <time>2012-01-24T14:18:51Z</time>
      </trkpt>
      <trkpt lat="45.69014" lon="6.55581">
        <ele>1213.405</ele>
        <time>2012-01-24T14:19:01Z</time>
      </trkpt>
      <trkpt lat="45.69014" lon="6.55582">
        <ele>1213.544</ele>
        <time>2012-01-24T14:19:11Z</time>
      </trkpt>
      <trkpt lat="45.69015" lon="6.55583">
        <ele>1213.462</ele>
        <time>2012-01-24T14:19:21Z</time>
      </trkpt>
      <trkpt lat="45.69016" lon="6.55582">
        <ele>1213.499</ele>
        <time>2012-01-24T14:19:31Z</time>
      </trkpt>
      <trkpt lat="45.69018" lon="6.55581">
        <ele>1213.144</ele>
        <time>2012-01-24T14:19:41Z</time>
      </trkpt>
      <trkpt lat="45.69016" lon="6.5558">
        <ele>1213.181</ele>
        <time>2012-01-24T14:19:51Z</time>
      </trkpt>
      <trkpt lat="45.69019" lon="6.55586">
        <ele>1211.975</ele>
        <time>2012-01-24T14:20:01Z</time>
      </trkpt>
      <trkpt lat="45.69022" lon="6.55599">
        <ele>1207.22</ele>
        <time>2012-01-24T14:20:11Z</time>
      </trkpt>
      <trkpt lat="45.69026" lon="6.55612">
        <ele>1200.13</ele>
        <time>2012-01-24T14:20:21Z</time>
      </trkpt>
      <trkpt lat="45.69027" lon="6.55615">
        <ele>1198.193</ele>
        <time>2012-01-24T14:20:31Z</time>
      </trkpt>
      <trkpt lat="45.69033" lon="6.55632">
        <ele>1196.443</ele>
        <time>2012-01-24T14:20:41Z</time>
      </trkpt>
      <trkpt lat="45.69035" lon="6.55646">
        <ele>1192.121</ele>
        <time>2012-01-24T14:20:51Z</time>
      </trkpt>
      <trkpt lat="45.69041" lon="6.55658">
        <ele>1188.304</ele>
        <time>2012-01-24T14:21:01Z</time>
      </trkpt>
      <trkpt lat="45.69041" lon="6.5567">
        <ele>1183.032</ele>
        <time>2012-01-24T14:21:11Z</time>
      </trkpt>
      <trkpt lat="45.69048" lon="6.55683">
        <ele>1178.116</ele>
        <time>2012-01-24T14:21:21Z</time>
      </trkpt>
      <trkpt lat="45.69051" lon="6.55693">
        <ele>1172.906</ele>
        <time>2012-01-24T14:21:31Z</time>
      </trkpt>
      <trkpt lat="45.69054" lon="6.557">
        <ele>1169.723</ele>
        <time>2012-01-24T14:21:41Z</time>
      </trkpt>
      <trkpt lat="45.69059" lon="6.55714">
        <ele>1165.618</ele>
        <time>2012-01-24T14:21:51Z</time>
      </trkpt>
      <trkpt lat="45.69064" lon="6.55726">
        <ele>1161.916</ele>
        <time>2012-01-24T14:22:01Z</time>
      </trkpt>
      <trkpt lat="45.69069" lon="6.5574">
        <ele>1158.473</ele>
        <time>2012-01-24T14:22:11Z</time>
      </trkpt>
      <trkpt lat="45.69074" lon="6.55755">
        <ele>1154.321</ele>
        <time>2012-01-24T14:22:21Z</time>
      </trkpt>
      <trkpt lat="45.69076" lon="6.5577">
        <ele>1149.272</ele>
        <time>2012-01-24T14:22:31Z</time>
      </trkpt>
      <trkpt lat="45.6908" lon="6.55785">
        <ele>1143.156</ele>
        <time>2012-01-24T14:22:41Z</time>
      </trkpt>
      <trkpt lat="45.69088" lon="6.55803">
        <ele>1139.85</ele>
        <time>2012-01-24T14:22:51Z</time>
      </trkpt>
      <trkpt lat="45.69094" lon="6.55818">
        <ele>1136.061</ele>
        <time>2012-01-24T14:23:01Z</time>
      </trkpt>
      <trkpt lat="45.69101" lon="6.55833">
        <ele>1131.431</ele>
        <time>2012-01-24T14:23:11Z</time>
      </trkpt>
      <trkpt lat="45.691" lon="6.55833">
        <ele>1130.748</ele>
        <time>2012-01-24T14:23:21Z</time>
      </trkpt>
      <trkpt lat="45.69105" lon="6.55845">
        <ele>1128.277</ele>
        <time>2012-01-24T14:23:31Z</time>
      </trkpt>
      <trkpt lat="45.69113" lon="6.55857">
        <ele>1125.026</ele>
        <time>2012-01-24T14:23:41Z</time>
      </trkpt>
      <trkpt lat="45.69118" lon="6.55869">
        <ele>1121.957</ele>
        <time>2012-01-24T14:23:51Z</time>
      </trkpt>
      <trkpt lat="45.69119" lon="6.55882">
        <ele>1117.116</ele>
        <time>2012-01-24T14:24:01Z</time>
      </trkpt>
      <trkpt lat="45.69119" lon="6.55895">
        <ele>1112.721</ele>
        <time>2012-01-24T14:24:11Z</time>
      </trkpt>
      <trkpt lat="45.69123" lon="6.55906">
        <ele>1108.534</ele>
        <time>2012-01-24T14:24:21Z</time>
      </trkpt>
      <trkpt lat="45.69128" lon="6.55918">
        <ele>1103.824</ele>
        <time>2012-01-24T14:24:31Z</time>
      </trkpt>
      <trkpt lat="45.69128" lon="6.55928">
        <ele>1098.363</ele>
        <time>2012-01-24T14:24:41Z</time>
      </trkpt>
      <trkpt lat="45.6913" lon="6.55935">
        <ele>1096.024</ele>
        <time>2012-01-24T14:24:51Z</time>
      </trkpt>
      <trkpt lat="45.69128" lon="6.55939">
        <ele>1090.012</ele>
        <time>2012-01-24T14:25:01Z</time>
      </trkpt>
      <trkpt lat="45.69127" lon="6.55938">
        <ele>1092.521</ele>
        <time>2012-01-24T14:25:11Z</time>
      </trkpt>
      <trkpt lat="45.69128" lon="6.5594">
        <ele>1093.246</ele>
        <time>2012-01-24T14:25:21Z</time>
      </trkpt>
      <trkpt lat="45.6913" lon="6.55953">
        <ele>1088.435</ele>
        <time>2012-01-24T14:25:31Z</time>
      </trkpt>
      <trkpt lat="45.69131" lon="6.55965">
        <ele>1083.847</ele>
        <time>2012-01-24T14:25:41Z</time>
      </trkpt>
      <trkpt lat="45.69129" lon="6.55976">
        <ele>1080.619</ele>
        <time>2012-01-24T14:25:51Z</time>
      </trkpt>
      <trkpt lat="45.6913" lon="6.55988">
        <ele>1076.979</ele>
        <time>2012-01-24T14:26:01Z</time>
      </trkpt>
      <trkpt lat="45.69139" lon="6.55999">
        <ele>1075.944</ele>
        <time>2012-01-24T14:26:11Z</time>
      </trkpt>
      <trkpt lat="45.69147" lon="6.56011">
        <ele>1072.914</ele>
        <time>2012-01-24T14:26:21Z</time>
      </trkpt>
      <trkpt lat="45.69146" lon="6.5601">
        <ele>1070.587</ele>
        <time>2012-01-24T14:26:31Z</time>
      </trkpt>
      <trkpt lat="45.69153" lon="6.56021">
        <ele>1068.212</ele>
        <time>2012-01-24T14:26:41Z</time>
      </trkpt>
      <trkpt lat="45.69157" lon="6.56029">
        <ele>1065.472</ele>
        <time>2012-01-24T14:26:51Z</time>
      </trkpt>
      <trkpt lat="45.69169" lon="6.56037">
        <ele>1062.81</ele>
        <time>2012-01-24T14:27:01Z</time>
      </trkpt>
      <trkpt lat="45.69178" lon="6.56041">
        <ele>1060.399</ele>
        <time>2012-01-24T14:27:11Z</time>
      </trkpt>
      <trkpt lat="45.69187" lon="6.56046">
        <ele>1057.568</ele>
        <time>2012-01-24T14:27:21Z</time>
      </trkpt>
      <trkpt lat="45.69194" lon="6.56053">
        <ele>1056.778</ele>
        <time>2012-01-24T14:27:31Z</time>
      </trkpt>
      <trkpt lat="45.69198" lon="6.56057">
        <ele>1053.527</ele>
        <time>2012-01-24T14:27:41Z</time>
      </trkpt>
      <trkpt lat="45.69201" lon="6.56063">
        <ele>1050.24</ele>
        <time>2012-01-24T14:27:51Z</time>
      </trkpt>
      <trkpt lat="45.69208" lon="6.56075">
        <ele>1047.945</ele>
        <time>2012-01-24T14:28:01Z</time>
      </trkpt>
      <trkpt lat="45.69216" lon="6.5609">
        <ele>1045.973</ele>
        <time>2012-01-24T14:28:11Z</time>
      </trkpt>
      <trkpt lat="45.69226" lon="6.56106">
        <ele>1045.481</ele>
        <time>2012-01-24T14:28:21Z</time>
      </trkpt>
      <trkpt lat="45.69228" lon="6.56118">
        <ele>1044.504</ele>
        <time>2012-01-24T14:28:31Z</time>
      </trkpt>
      <trkpt lat="45.69229" lon="6.56129">
        <ele>1042.51</ele>
        <time>2012-01-24T14:28:41Z</time>
      </trkpt>
      <trkpt lat="45.69229" lon="6.56144">
        <ele>1039.054</ele>
        <time>2012-01-24T14:28:51Z</time>
      </trkpt>
      <trkpt lat="45.6923" lon="6.56166">
        <ele>1036.021</ele>
        <time>2012-01-24T14:29:01Z</time>
      </trkpt>
      <trkpt lat="45.69238" lon="6.56175">
        <ele>1036.197</ele>
        <time>2012-01-24T14:29:11Z</time>
      </trkpt>
      <trkpt lat="45.69227" lon="6.56174">
        <ele>1034.431</ele>
        <time>2012-01-24T14:29:21Z</time>
      </trkpt>
      <trkpt lat="45.69223" lon="6.56183">
        <ele>1031.898</ele>
        <time>2012-01-24T14:29:31Z</time>
      </trkpt>
      <trkpt lat="45.69219" lon="6.56192">
        <ele>1029.258</ele>
        <time>2012-01-24T14:29:41Z</time>
      </trkpt>
      <trkpt lat="45.69217" lon="6.56205">
        <ele>1026.038</ele>
        <time>2012-01-24T14:29:51Z</time>
      </trkpt>
      <trkpt lat="45.69214" lon="6.56209">
        <ele>1019.512</ele>
        <time>2012-01-24T14:30:01Z</time>
      </trkpt>
      <trkpt lat="45.69214" lon="6.56212">
        <ele>1021.136</ele>
        <time>2012-01-24T14:30:11Z</time>
      </trkpt>
      <trkpt lat="45.69217" lon="6.56219">
        <ele>1021.94</ele>
        <time>2012-01-24T14:30:21Z</time>
      </trkpt>
      <trkpt lat="45.69218" lon="6.5622">
        <ele>1021.747</ele>
        <time>2012-01-24T14:30:31Z</time>
      </trkpt>
      <trkpt lat="45.69221" lon="6.56219">
        <ele>1023.306</ele>
        <time>2012-01-24T14:30:41Z</time>
      </trkpt>
      <trkpt lat="45.69223" lon="6.56221">
        <ele>1021.947</ele>
        <time>2012-01-24T14:30:51Z</time>
      </trkpt>
      <trkpt lat="45.69226" lon="6.56225">
        <ele>1023.449</ele>
        <time>2012-01-24T14:31:01Z</time>
      </trkpt>
      <trkpt lat="45.69224" lon="6.56227">
        <ele>1023.344</ele>
        <time>2012-01-24T14:31:11Z</time>
      </trkpt>
      <trkpt lat="45.69223" lon="6.56232">
        <ele>1021.937</ele>
        <time>2012-01-24T14:31:21Z</time>
      </trkpt>
      <trkpt lat="45.69223" lon="6.56233">
        <ele>1021.822</ele>
        <time>2012-01-24T14:31:31Z</time>
      </trkpt>
      <trkpt lat="45.69224" lon="6.56234">
        <ele>1019.376</ele>
        <time>2012-01-24T14:31:41Z</time>
      </trkpt>
      <trkpt lat="45.69229" lon="6.56232">
        <ele>1019.044</ele>
        <time>2012-01-24T14:31:51Z</time>
      </trkpt>
      <trkpt lat="45.69236" lon="6.56238">
        <ele>1018.248</ele>
        <time>2012-01-24T14:32:01Z</time>
      </trkpt>
      <trkpt lat="45.69231" lon="6.56237">
        <ele>1018.309</ele>
        <time>2012-01-24T14:32:11Z</time>
      </trkpt>
      <trkpt lat="45.69228" lon="6.56238">
        <ele>1018.557</ele>
        <time>2012-01-24T14:32:21Z</time>
      </trkpt>
      <trkpt lat="45.69222" lon="6.56245">
        <ele>1018.908</ele>
        <time>2012-01-24T14:32:31Z</time>
      </trkpt>
      <trkpt lat="45.69219" lon="6.56251">
        <ele>1018.742</ele>
        <time>2012-01-24T14:32:41Z</time>
      </trkpt>
      <trkpt lat="45.69213" lon="6.56251">
        <ele>1018.757</ele>
        <time>2012-01-24T14:32:51Z</time>
      </trkpt>
      <trkpt lat="45.69216" lon="6.56253">
        <ele>1018.701</ele>
        <time>2012-01-24T14:33:01Z</time>
      </trkpt>
      <trkpt lat="45.69214" lon="6.56252">
        <ele>1018.918</ele>
        <time>2012-01-24T14:33:11Z</time>
      </trkpt>
      <trkpt lat="45.69207" lon="6.56254">
        <ele>1018.793</ele>
        <time>2012-01-24T14:33:21Z</time>
      </trkpt>
      <trkpt lat="45.69196" lon="6.56262">
        <ele>1019.015</ele>
        <time>2012-01-24T14:33:31Z</time>
      </trkpt>
      <trkpt lat="45.69182" lon="6.56261">
        <ele>1019.93</ele>
        <time>2012-01-24T14:33:41Z</time>
      </trkpt>
      <trkpt lat="45.69176" lon="6.56264">
        <ele>1020.572</ele>
        <time>2012-01-24T14:33:51Z</time>
      </trkpt>
      <trkpt lat="45.69175" lon="6.56266">
        <ele>1020.309</ele>
        <time>2012-01-24T14:34:01Z</time>
      </trkpt>
      <trkpt lat="45.6917" lon="6.56265">
        <ele>1019.487</ele>
        <time>2012-01-24T14:34:11Z</time>
      </trkpt>
      <trkpt lat="45.69157" lon="6.56264">
        <ele>1018.807</ele>
        <time>2012-01-24T14:34:21Z</time>
      </trkpt>
      <trkpt lat="45.69146" lon="6.56265">
        <ele>1017.816</ele>
        <time>2012-01-24T14:34:31Z</time>
      </trkpt>
      <trkpt lat="45.69133" lon="6.56267">
        <ele>1016.792</ele>
        <time>2012-01-24T14:34:41Z</time>
      </trkpt>
      <trkpt lat="45.69119" lon="6.56264">
        <ele>1015.843</ele>
        <time>2012-01-24T14:34:51Z</time>
      </trkpt>
      <trkpt lat="45.69108" lon="6.56267">
        <ele>1015.161</ele>
        <time>2012-01-24T14:35:01Z</time>
      </trkpt>
      <trkpt lat="45.69095" lon="6.56267">
        <ele>1013.512</ele>
        <time>2012-01-24T14:35:11Z</time>
      </trkpt>
      <trkpt lat="45.69085" lon="6.56272">
        <ele>1012.252</ele>
        <time>2012-01-24T14:35:21Z</time>
      </trkpt>
      <trkpt lat="45.69072" lon="6.56274">
        <ele>1010.318</ele>
        <time>2012-01-24T14:35:31Z</time>
      </trkpt>
      <trkpt lat="45.69059" lon="6.56277">
        <ele>1009.245</ele>
        <time>2012-01-24T14:35:41Z</time>
      </trkpt>
      <trkpt lat="45.69061" lon="6.56285">
        <ele>1008.016</ele>
        <time>2012-01-24T14:35:51Z</time>
      </trkpt>
      <trkpt lat="45.69077" lon="6.56288">
        <ele>1006.597</ele>
        <time>2012-01-24T14:36:01Z</time>
      </trkpt>
      <trkpt lat="45.69091" lon="6.56296">
        <ele>1006.579</ele>
        <time>2012-01-24T14:36:11Z</time>
      </trkpt>
      <trkpt lat="45.69101" lon="6.563">
        <ele>1006.362</ele>
        <time>2012-01-24T14:36:21Z</time>
      </trkpt>
      <trkpt lat="45.69118" lon="6.56309">
        <ele>1006.303</ele>
        <time>2012-01-24T14:36:31Z</time>
      </trkpt>
      <trkpt lat="45.69133" lon="6.56315">
        <ele>1005.671</ele>
        <time>2012-01-24T14:36:41Z</time>
      </trkpt>
      <trkpt lat="45.69145" lon="6.56318">
        <ele>1004.991</ele>
        <time>2012-01-24T14:36:51Z</time>
      </trkpt>
      <trkpt lat="45.69156" lon="6.56324">
        <ele>1004.064</ele>
        <time>2012-01-24T14:37:01Z</time>
      </trkpt>
      <trkpt lat="45.69166" lon="6.56329">
        <ele>1003.52</ele>
        <time>2012-01-24T14:37:11Z</time>
      </trkpt>
      <trkpt lat="45.69176" lon="6.5633">
        <ele>1002.992</ele>
        <time>2012-01-24T14:37:21Z</time>
      </trkpt>
      <trkpt lat="45.69187" lon="6.56321">
        <ele>1004.372</ele>
        <time>2012-01-24T14:37:31Z</time>
      </trkpt>
      <trkpt lat="45.69192" lon="6.56307">
        <ele>1004.85</ele>
        <time>2012-01-24T14:37:41Z</time>
      </trkpt>
      <trkpt lat="45.69202" lon="6.56313">
        <ele>1005.382</ele>
        <time>2012-01-24T14:37:51Z</time>
      </trkpt>
      <trkpt lat="45.69204" lon="6.56311">
        <ele>1005.827</ele>
        <time>2012-01-24T14:38:01Z</time>
      </trkpt>
      <trkpt lat="45.6922" lon="6.5631">
        <ele>1006.989</ele>
        <time>2012-01-24T14:38:11Z</time>
      </trkpt>
      <trkpt lat="45.6922" lon="6.56309">
        <ele>1007.009</ele>
        <time>2012-01-24T14:38:21Z</time>
      </trkpt>
      <trkpt lat="45.69215" lon="6.56301">
        <ele>1006.868</ele>
        <time>2012-01-24T14:38:31Z</time>
      </trkpt>
      <trkpt lat="45.69214" lon="6.56299">
        <ele>1006.537</ele>
        <time>2012-01-24T14:38:41Z</time>
      </trkpt>
      <trkpt lat="45.69214" lon="6.56299">
        <ele>1007.3</ele>
        <time>2012-01-24T14:38:51Z</time>
      </trkpt>
      <trkpt lat="45.69214" lon="6.563">
        <ele>1007.215</ele>
        <time>2012-01-24T14:39:01Z</time>
      </trkpt>
      <trkpt lat="45.69214" lon="6.563">
        <ele>1007.122</ele>
        <time>2012-01-24T14:39:11Z</time>
      </trkpt>
      <trkpt lat="45.69214" lon="6.563">
        <ele>1006.594</ele>
        <time>2012-01-24T14:39:21Z</time>
      </trkpt>
      <trkpt lat="45.69214" lon="6.563">
        <ele>1007.126</ele>
        <time>2012-01-24T14:39:31Z</time>
      </trkpt>
    </trkseg>
  </trk>
</gpx>